Darstellungsparameter: Aktuell verwendete Einstellungen:
Skalierung der Graphiken ... ?
xyx+y,   Skalierungsfaktor:      Skalierung: Modus: x, Faktor: 1
Darstellungszeitraum ... ?
Vom - - bis: - -   Zeitraum: 21.09.2010 - 11.10.2010
Min/Max/Avg-Anzeige ... ?
Zeige MMA aktuell
Zeige MMA Monat
Zeige MMA alles
Zeige --A aktuell
Zeige --A Monat
Zeige --A alles
Keine MMA-Anzeige
MMA:
Average (ber die Originaldaten)
MMA-Basis: 21.09.2010 - 11.10.2010
Quicknavigation für Darstellung... ?
Tage:      1T, 2T, 3T, 5T -1T -2T -3T -5T +1T +2T +3T +5T
Wochen: 1W, 2W, 3W -1W -2W -3W +1W +2W +3W
Monate: 1M, 3M, 6M -1M -3M -6M +1M +3M +6M
Jahre:    1J, 3J, 5J, 10J -1J -3J -5J -10J +1J +3J +5J +10J
Nutze für die Darstellung ... ?
Originaldaten oder Mittelwerte auf ...
Stundenbasis Tagesbasis Wochenbasis
Monatsbasis Jahresbasis      Datenbasis: Original-Daten
Darstellen als:
Statistik (Auto) Statistik J:M      Darstellung:
Zur Graphik,    zurück zur Übersicht aller Sensoren.
 
Tabellarische Datenbersicht: ?
 
Sensor: Nr:Datum:Temp:Abs-Feuchte:Windchill:Wind:
Aussen-T/F 1 21-09-2010 00:06:03 11.8 C 7.89 g/m*3 11.8 C 0 km/h
2 21-09-2010 00:18:03 11.6 C 7.9 g/m*3 11.6 C 0 km/h
3 21-09-2010 00:30:03 11.5 C 7.85 g/m*3 11.5 C 0 km/h
4 21-09-2010 00:42:03 11.4 C 7.9 g/m*3 11.4 C 0 km/h
5 21-09-2010 00:54:03 11.3 C 7.85 g/m*3 11.3 C 0 km/h
6 21-09-2010 01:06:03 11.2 C 7.8 g/m*3 11.2 C 0 km/h
7 21-09-2010 01:18:03 11.1 C 7.86 g/m*3 11.1 C 0 km/h
8 21-09-2010 01:30:03 10.9 C 7.86 g/m*3 10.9 C 0 km/h
9 21-09-2010 01:42:03 10.8 C 7.81 g/m*3 10.8 C 0 km/h
10 21-09-2010 01:54:03 10.5 C 7.66 g/m*3 10.5 C 0 km/h
11 21-09-2010 02:06:03 10.4 C 7.71 g/m*3 10.4 C 0 km/h
12 21-09-2010 02:18:03 10.4 C 7.71 g/m*3 10.4 C 0 km/h
13 21-09-2010 02:30:03 10.3 C 7.76 g/m*3 10.3 C 0 km/h
14 21-09-2010 02:42:03 10.1 C 7.66 g/m*3 10.1 C 0 km/h
15 21-09-2010 02:54:03 10 C 7.61 g/m*3 10 C 0 km/h
16 21-09-2010 03:06:03 10 C 7.71 g/m*3 10 C 0 km/h
17 21-09-2010 03:18:03 9.9 C 7.75 g/m*3 9.9 C 0 km/h
18 21-09-2010 03:30:03 9.8 C 7.79 g/m*3 9.8 C 0 km/h
19 21-09-2010 03:42:03 9.5 C 7.65 g/m*3 9.5 C 0 km/h
20 21-09-2010 03:54:03 9.5 C 7.65 g/m*3 9.5 C 0 km/h
21 21-09-2010 04:06:04 9.4 C 7.6 g/m*3 9.4 C 0 km/h
22 21-09-2010 04:18:04 9.3 C 7.55 g/m*3 9.3 C 0 km/h
23 21-09-2010 04:30:04 9.2 C 7.5 g/m*3 9.2 C 0 km/h
24 21-09-2010 04:42:04 9.2 C 7.5 g/m*3 9.2 C 0 km/h
25 21-09-2010 04:54:04 9 C 7.41 g/m*3 9 C 0 km/h
Sensor: Nr:Datum:Temp:Abs-Feuchte:Windchill:Wind:
Aussen-T/F 26 21-09-2010 05:06:04 9 C 7.49 g/m*3 9 C 0 km/h
27 21-09-2010 05:18:04 8.8 C 7.49 g/m*3 8.8 C 0 km/h
28 21-09-2010 05:30:04 8.8 C 7.49 g/m*3 8.8 C 0 km/h
29 21-09-2010 05:42:04 8.7 C 7.44 g/m*3 8.7 C 0 km/h
30 21-09-2010 05:54:04 8.6 C 7.39 g/m*3 8.6 C 0 km/h
31 21-09-2010 06:06:04 8.5 C 7.43 g/m*3 8.5 C 0 km/h
32 21-09-2010 06:18:04 8.4 C 7.38 g/m*3 8.4 C 0 km/h
33 21-09-2010 06:30:04 8.3 C 7.33 g/m*3 8.3 C 0 km/h
34 21-09-2010 06:42:04 8.2 C 7.29 g/m*3 8.2 C 0 km/h
35 21-09-2010 06:54:04 8.3 C 7.42 g/m*3 8.3 C 0 km/h
36 21-09-2010 07:06:02 8.2 C 7.37 g/m*3 8.2 C 0 km/h
37 21-09-2010 07:18:02 8.2 C 7.37 g/m*3 8.2 C 0 km/h
38 21-09-2010 07:30:02 8.1 C 7.32 g/m*3 8.1 C 0 km/h
39 21-09-2010 07:42:03 8.1 C 7.32 g/m*3 8.1 C 0 km/h
40 21-09-2010 07:54:02 8.1 C 7.32 g/m*3 8.1 C 0 km/h
41 21-09-2010 08:06:01 8 C 7.36 g/m*3 8 C 0 km/h
42 21-09-2010 08:18:02 8.1 C 7.41 g/m*3 8.1 C 0 km/h
43 21-09-2010 08:30:02 8.2 C 7.54 g/m*3 8.2 C 0 km/h
44 21-09-2010 08:42:02 8.4 C 7.63 g/m*3 8.4 C 0 km/h
45 21-09-2010 08:54:02 8.6 C 7.73 g/m*3 8.6 C 0 km/h
46 21-09-2010 09:06:02 8.7 C 7.78 g/m*3 8.7 C 0 km/h
47 21-09-2010 09:18:02 8.9 C 7.88 g/m*3 8.9 C 0 km/h
48 21-09-2010 09:30:02 9.3 C 8 g/m*3 9.3 C 0 km/h
49 21-09-2010 09:42:02 9.5 C 8.1 g/m*3 9.5 C 0 km/h
50 21-09-2010 09:54:01 9.5 C 8.1 g/m*3 9.5 C 0 km/h
Sensor: Nr:Datum:Temp:Abs-Feuchte:Windchill:Wind:
Aussen-T/F 51 21-09-2010 10:06:02 9.9 C 8.31 g/m*3 9.9 C 0 km/h
52 21-09-2010 10:18:01 10.5 C 8.53 g/m*3 10.5 C 0 km/h
53 21-09-2010 10:30:01 11.1 C 8.76 g/m*3 11.1 C 0 km/h
54 21-09-2010 10:42:01 11.7 C 8.99 g/m*3 11.7 C 0 km/h
55 21-09-2010 10:54:01 12.4 C 8.96 g/m*3 12.4 C 0 km/h
56 21-09-2010 11:06:01 13 C 8.51 g/m*3 13 C 0 km/h
57 21-09-2010 11:18:02 13.6 C 8.59 g/m*3 13.6 C 0 km/h
58 21-09-2010 11:30:02 14 C 8.56 g/m*3 14 C 0 km/h
59 21-09-2010 11:42:01 14.7 C 8.81 g/m*3 14.7 C 0 km/h
60 21-09-2010 11:54:03 15.3 C 8.75 g/m*3 15.3 C 0 km/h
61 21-09-2010 12:06:02 15.8 C 8.75 g/m*3 15.8 C 0 km/h
62 21-09-2010 12:18:02 16.5 C 8.85 g/m*3 16.5 C 0 km/h
63 21-09-2010 12:30:03 16.5 C 9.13 g/m*3 16.5 C 0 km/h
64 21-09-2010 12:42:02 16 C 8.86 g/m*3 16 C 0 km/h
65 21-09-2010 12:54:02 15.9 C 9.34 g/m*3 15.9 C 0 km/h
66 21-09-2010 13:06:02 16.4 C 9.77 g/m*3 16.4 C 0 km/h
67 21-09-2010 13:18:02 16.6 C 9.46 g/m*3 16.6 C 0 km/h
68 21-09-2010 13:30:02 16.8 C 9.72 g/m*3 16.8 C 0 km/h
69 21-09-2010 13:42:02 17.3 C 9.87 g/m*3 17.3 C 0 km/h
70 21-09-2010 13:54:02 18 C 9.37 g/m*3 18 C 0 km/h
71 21-09-2010 14:06:02 17.5 C 9.54 g/m*3 17.5 C 0 km/h
72 21-09-2010 14:18:01 17.4 C 9.63 g/m*3 17.4 C 0 km/h
73 21-09-2010 14:30:01 17.2 C 9.52 g/m*3 17.2 C 0 km/h
74 21-09-2010 14:42:02 17.5 C 9.54 g/m*3 17.5 C 0 km/h
75 21-09-2010 14:54:02 19.5 C 9.06 g/m*3 19.5 C 0 km/h
Sensor: Nr:Datum:Temp:Abs-Feuchte:Windchill:Wind:
Aussen-T/F 76 21-09-2010 15:06:02 21.3 C 8.76 g/m*3 21.3 C 0 km/h
77 21-09-2010 15:18:02 22.6 C 8.44 g/m*3 22.6 C 0 km/h
78 21-09-2010 15:30:02 23.3 C 7.95 g/m*3 23.3 C 0 km/h
79 21-09-2010 15:42:02 23.9 C 7.79 g/m*3 23.9 C 0 km/h
80 21-09-2010 15:54:02 24.5 C 7.83 g/m*3 24.5 C 0 km/h
81 21-09-2010 16:06:02 25 C 7.6 g/m*3 25 C 0 km/h
82 21-09-2010 16:18:02 25.2 C 7.45 g/m*3 25.2 C 0 km/h
83 21-09-2010 16:30:02 25.2 C 7.68 g/m*3 25.2 C 0 km/h
84 21-09-2010 16:42:02 25.1 C 7.87 g/m*3 25.1 C 0 km/h
85 21-09-2010 16:54:02 25.3 C 7.49 g/m*3 25.3 C 0 km/h
86 21-09-2010 17:06:02 25.4 C 7.53 g/m*3 25.4 C 0 km/h
87 21-09-2010 17:18:02 25.5 C 7.81 g/m*3 25.5 C 0 km/h
88 21-09-2010 17:30:02 24.5 C 7.39 g/m*3 24.5 C 0 km/h
89 21-09-2010 17:42:02 24.1 C 7.44 g/m*3 24.1 C 0 km/h
90 21-09-2010 17:54:02 23.5 C 7.61 g/m*3 23.5 C 0 km/h
91 21-09-2010 18:06:02 23.2 C 7.69 g/m*3 23.2 C 0 km/h
92 21-09-2010 18:18:02 22.7 C 7.88 g/m*3 22.7 C 0 km/h
93 21-09-2010 18:30:02 22.2 C 7.85 g/m*3 22.2 C 0 km/h
94 21-09-2010 18:42:02 21.7 C 8.01 g/m*3 21.7 C 0 km/h
95 21-09-2010 18:54:02 21.1 C 7.92 g/m*3 21.1 C 0 km/h
96 21-09-2010 19:06:01 20.2 C 8.04 g/m*3 20.2 C 0 km/h
97 21-09-2010 19:18:02 19.5 C 8.22 g/m*3 19.5 C 0 km/h
98 21-09-2010 19:30:02 18.5 C 8.39 g/m*3 18.5 C 0 km/h
99 21-09-2010 19:42:02 17.8 C 8.5 g/m*3 17.8 C 0 km/h
100 21-09-2010 19:54:02 17.2 C 8.49 g/m*3 17.2 C 0 km/h
Sensor: Nr:Datum:Temp:Abs-Feuchte:Windchill:Wind:
Aussen-T/F 101 21-09-2010 20:06:03 16.8 C 8.58 g/m*3 16.8 C 0 km/h
102 21-09-2010 20:18:02 16.5 C 8.43 g/m*3 16.5 C 0 km/h
103 21-09-2010 20:30:02 16.3 C 8.46 g/m*3 16.3 C 0 km/h
104 21-09-2010 20:42:02 16.1 C 8.5 g/m*3 16.1 C 0 km/h
105 21-09-2010 20:54:02 15.8 C 8.62 g/m*3 15.8 C 0 km/h
106 21-09-2010 21:06:02 15.6 C 8.51 g/m*3 15.6 C 0 km/h
107 21-09-2010 21:18:01 15.4 C 8.41 g/m*3 15.4 C 0 km/h
108 21-09-2010 21:30:01 15.1 C 8.51 g/m*3 15.1 C 0 km/h
109 21-09-2010 21:42:02 14.7 C 8.56 g/m*3 14.7 C 0 km/h
110 21-09-2010 21:54:02 14.5 C 8.46 g/m*3 14.5 C 0 km/h
111 21-09-2010 22:06:02 14.4 C 8.53 g/m*3 14.4 C 0 km/h
112 21-09-2010 22:18:01 14.1 C 8.5 g/m*3 14.1 C 0 km/h
113 21-09-2010 22:30:01 13.9 C 8.51 g/m*3 13.9 C 0 km/h
114 21-09-2010 22:42:01 13.6 C 8.47 g/m*3 13.6 C 0 km/h
115 21-09-2010 22:54:01 13.5 C 8.54 g/m*3 13.5 C 0 km/h
116 21-09-2010 23:06:01 13.2 C 8.38 g/m*3 13.2 C 0 km/h
117 21-09-2010 23:18:01 13.1 C 8.44 g/m*3 13.1 C 0 km/h
118 21-09-2010 23:30:01 13 C 8.51 g/m*3 13 C 0 km/h
119 21-09-2010 23:42:01 12.9 C 8.68 g/m*3 12.9 C 0 km/h
120 21-09-2010 23:54:01 12.7 C 8.68 g/m*3 12.7 C 0 km/h
121 22-09-2010 00:06:01 12.5 C 8.69 g/m*3 12.5 C 0 km/h
122 22-09-2010 00:18:01 12.3 C 8.58 g/m*3 12.3 C 0 km/h
123 22-09-2010 00:30:01 12.2 C 8.52 g/m*3 12.2 C 0 km/h
124 22-09-2010 00:42:01 12.1 C 8.47 g/m*3 12.1 C 0 km/h
125 22-09-2010 00:54:01 11.9 C 8.47 g/m*3 11.9 C 0 km/h
Sensor: Nr:Datum:Temp:Abs-Feuchte:Windchill:Wind:
Aussen-T/F 126 22-09-2010 01:06:02 11.8 C 8.53 g/m*3 11.8 C 0 km/h
127 22-09-2010 01:18:02 11.6 C 8.42 g/m*3 11.6 C 0 km/h
128 22-09-2010 01:30:02 11.5 C 8.47 g/m*3 11.5 C 0 km/h
129 22-09-2010 01:42:02 11.3 C 8.26 g/m*3 11.3 C 0 km/h
130 22-09-2010 01:54:02 11.3 C 8.36 g/m*3 11.3 C 0 km/h
131 22-09-2010 02:06:02 11 C 8.21 g/m*3 11 C 0 km/h
132 22-09-2010 02:18:02 10.9 C 8.16 g/m*3 10.9 C 0 km/h
133 22-09-2010 02:30:02 10.8 C 8.2 g/m*3 10.8 C 0 km/h
134 22-09-2010 02:42:02 10.7 C 8.15 g/m*3 10.7 C 0 km/h
135 22-09-2010 02:54:02 10.5 C 8.05 g/m*3 10.5 C 0 km/h
136 22-09-2010 03:06:02 10.4 C 8 g/m*3 10.4 C 0 km/h
137 22-09-2010 03:18:02 10.4 C 8 g/m*3 10.4 C 0 km/h
138 22-09-2010 03:30:02 10.3 C 8.04 g/m*3 10.3 C 0 km/h
139 22-09-2010 03:42:02 10.1 C 7.94 g/m*3 10.1 C 0 km/h
140 22-09-2010 03:54:02 9.9 C 8.03 g/m*3 9.9 C 0 km/h
141 22-09-2010 04:06:02 9.9 C 8.03 g/m*3 9.9 C 0 km/h
142 22-09-2010 04:18:02 9.7 C 7.93 g/m*3 9.7 C 0 km/h
143 22-09-2010 04:30:02 9.6 C 7.79 g/m*3 9.6 C 0 km/h
144 22-09-2010 04:42:02 9.6 C 7.88 g/m*3 9.6 C 0 km/h
145 22-09-2010 04:54:02 9.8 C 8.07 g/m*3 9.8 C 0 km/h
146 22-09-2010 05:06:02 9.8 C 8.07 g/m*3 9.8 C 0 km/h
147 22-09-2010 05:18:02 9.9 C 8.22 g/m*3 9.9 C 0 km/h
148 22-09-2010 05:30:03 9.9 C 8.22 g/m*3 9.9 C 0 km/h
149 22-09-2010 05:42:03 9.9 C 8.22 g/m*3 9.9 C 0 km/h
150 22-09-2010 05:54:03 9.7 C 8.02 g/m*3 9.7 C 0 km/h
Sensor: Nr:Datum:Temp:Abs-Feuchte:Windchill:Wind:
Aussen-T/F 151 22-09-2010 06:06:03 9.8 C 8.16 g/m*3 9.8 C 0 km/h
152 22-09-2010 06:18:03 9.8 C 8.16 g/m*3 9.8 C 0 km/h
153 22-09-2010 06:30:03 9.8 C 8.16 g/m*3 9.8 C 0 km/h
154 22-09-2010 06:42:03 9.7 C 8.11 g/m*3 9.7 C 0 km/h
155 22-09-2010 06:54:03 9.8 C 8.16 g/m*3 9.8 C 0 km/h
156 22-09-2010 07:06:01 9.8 C 8.16 g/m*3 9.8 C 0 km/h
157 22-09-2010 07:18:02 9.8 C 8.16 g/m*3 9.8 C 0 km/h
158 22-09-2010 07:30:02 9.6 C 8.06 g/m*3 9.6 C 0 km/h
159 22-09-2010 07:42:01 9.3 C 7.91 g/m*3 9.3 C 0 km/h
160 22-09-2010 07:54:01 9.3 C 7.91 g/m*3 9.3 C 0 km/h
161 22-09-2010 08:06:01 9.3 C 7.91 g/m*3 9.3 C 0 km/h
162 22-09-2010 08:18:02 9.3 C 7.91 g/m*3 9.3 C 0 km/h
163 22-09-2010 08:30:02 9.6 C 8.15 g/m*3 9.6 C 0 km/h
164 22-09-2010 08:42:01 9.3 C 7.91 g/m*3 9.3 C 0 km/h
165 22-09-2010 08:54:02 9.3 C 7.91 g/m*3 9.3 C 0 km/h
166 22-09-2010 09:06:01 9.6 C 8.06 g/m*3 9.6 C 0 km/h
167 22-09-2010 09:18:02 9.8 C 8.16 g/m*3 9.8 C 0 km/h
168 22-09-2010 09:30:02 10.2 C 8.09 g/m*3 10.2 C 0 km/h
169 22-09-2010 09:42:01 10.3 C 8.04 g/m*3 10.3 C 0 km/h
170 22-09-2010 09:54:02 11 C 8.41 g/m*3 11 C 0 km/h
171 22-09-2010 10:06:01 11.8 C 8.63 g/m*3 11.8 C 0 km/h
172 22-09-2010 10:18:01 12.4 C 8.74 g/m*3 12.4 C 0 km/h
173 22-09-2010 10:30:01 12 C 8.31 g/m*3 12 C 0 km/h
174 22-09-2010 10:42:02 12.7 C 8.79 g/m*3 12.7 C 0 km/h
175 22-09-2010 10:54:01 13.2 C 8.73 g/m*3 13.2 C 0 km/h
Sensor: Nr:Datum:Temp:Abs-Feuchte:Windchill:Wind:
Aussen-T/F 176 22-09-2010 11:06:02 12.9 C 8.68 g/m*3 12.9 C 0 km/h
177 22-09-2010 11:18:01 13.1 C 8.9 g/m*3 13.1 C 0 km/h
178 22-09-2010 11:30:01 13.6 C 9.3 g/m*3 13.6 C 0 km/h
179 22-09-2010 11:42:02 14.2 C 9.52 g/m*3 14.2 C 0 km/h
180 22-09-2010 11:54:01 15.1 C 9.55 g/m*3 15.1 C 0 km/h
181 22-09-2010 12:06:02 15.6 C 9.71 g/m*3 15.6 C 0 km/h
182 22-09-2010 12:18:01 16 C 9.67 g/m*3 16 C 0 km/h
183 22-09-2010 12:30:01 16.5 C 9.97 g/m*3 16.5 C 0 km/h
184 22-09-2010 12:42:01 17.1 C 10.19 g/m*3 17.1 C 0 km/h
185 22-09-2010 12:54:01 17.5 C 10.29 g/m*3 17.5 C 0 km/h
186 22-09-2010 13:06:01 18.4 C 9.91 g/m*3 18.4 C 0 km/h
187 22-09-2010 13:18:02 19.1 C 9.84 g/m*3 19.1 C 0 km/h
188 22-09-2010 13:30:02 19.7 C 10.19 g/m*3 19.7 C 0 km/h
189 22-09-2010 13:42:01 20.4 C 10.26 g/m*3 20.4 C 0 km/h
190 22-09-2010 13:54:01 21.2 C 10.19 g/m*3 21.2 C 0 km/h
191 22-09-2010 14:06:01 21.8 C 10.36 g/m*3 21.8 C 0 km/h
192 22-09-2010 14:18:02 22.2 C 10.01 g/m*3 22.2 C 0 km/h
193 22-09-2010 14:30:02 22.9 C 10.22 g/m*3 22.9 C 0 km/h
194 22-09-2010 14:42:01 23.4 C 9.88 g/m*3 23.4 C 0 km/h
195 22-09-2010 14:54:02 24 C 9.79 g/m*3 24 C 0 km/h
196 22-09-2010 15:06:01 24.2 C 9.9 g/m*3 24.2 C 0 km/h
197 22-09-2010 15:18:01 24.1 C 9.63 g/m*3 24.1 C 0 km/h
198 22-09-2010 15:30:01 24.9 C 9.61 g/m*3 24.9 C 0 km/h
199 22-09-2010 15:42:01 25.6 C 8.81 g/m*3 25.6 C 0 km/h
200 22-09-2010 15:54:01 26.5 C 8.26 g/m*3 26.5 C 0 km/h
Sensor: Nr:Datum:Temp:Abs-Feuchte:Windchill:Wind:
Aussen-T/F 201 22-09-2010 16:06:01 26.9 C 8.7 g/m*3 26.9 C 0 km/h
202 22-09-2010 16:18:01 27.1 C 8.8 g/m*3 27.1 C 0 km/h
203 22-09-2010 16:30:01 27.4 C 8.68 g/m*3 27.4 C 0 km/h
204 22-09-2010 16:42:02 27.6 C 8.51 g/m*3 27.6 C 0 km/h
205 22-09-2010 16:54:01 27.6 C 8.25 g/m*3 27.6 C 0 km/h
206 22-09-2010 17:06:02 27.3 C 7.85 g/m*3 27.3 C 0 km/h
207 22-09-2010 17:18:01 27.4 C 8.16 g/m*3 27.4 C 0 km/h
208 22-09-2010 17:30:01 27.2 C 8.07 g/m*3 27.2 C 0 km/h
209 22-09-2010 17:42:01 26.9 C 7.93 g/m*3 26.9 C 0 km/h
210 22-09-2010 17:54:01 26.5 C 8.76 g/m*3 26.5 C 0 km/h
211 22-09-2010 18:06:02 26.1 C 8.81 g/m*3 26.1 C 0 km/h
212 22-09-2010 18:18:01 25.6 C 9.05 g/m*3 25.6 C 0 km/h
213 22-09-2010 18:30:01 25.3 C 9.36 g/m*3 25.3 C 0 km/h
214 22-09-2010 18:42:01 24.1 C 8.97 g/m*3 24.1 C 0 km/h
215 22-09-2010 18:54:01 23.3 C 9.2 g/m*3 23.3 C 0 km/h
216 22-09-2010 19:06:01 22.5 C 9.19 g/m*3 22.5 C 0 km/h
217 22-09-2010 19:18:02 21.8 C 9.4 g/m*3 21.8 C 0 km/h
218 22-09-2010 19:30:02 20.6 C 9.31 g/m*3 20.6 C 0 km/h
219 22-09-2010 19:42:01 20 C 8.99 g/m*3 20 C 0 km/h
220 22-09-2010 19:54:01 19.5 C 9.06 g/m*3 19.5 C 0 km/h
221 22-09-2010 20:06:01 19 C 9.13 g/m*3 19 C 0 km/h
222 22-09-2010 20:18:02 18.7 C 9.13 g/m*3 18.7 C 0 km/h
223 22-09-2010 20:30:02 18.5 C 9.02 g/m*3 18.5 C 0 km/h
224 22-09-2010 20:42:01 18.4 C 9.12 g/m*3 18.4 C 0 km/h
225 22-09-2010 20:54:02 18.1 C 9.12 g/m*3 18.1 C 0 km/h
Sensor: Nr:Datum:Temp:Abs-Feuchte:Windchill:Wind:
Aussen-T/F 226 22-09-2010 21:06:01 17.9 C 9.31 g/m*3 17.9 C 0 km/h
227 22-09-2010 21:18:01 17.6 C 9.45 g/m*3 17.6 C 0 km/h
228 22-09-2010 21:30:01 17.5 C 9.24 g/m*3 17.5 C 0 km/h
229 22-09-2010 21:42:01 17.3 C 9.28 g/m*3 17.3 C 0 km/h
230 22-09-2010 21:54:01 17 C 9.26 g/m*3 17 C 0 km/h
231 22-09-2010 22:08:02 16.8 C 9.29 g/m*3 16.8 C 0 km/h
232 22-09-2010 22:20:02 16.4 C 9.35 g/m*3 16.4 C 0 km/h
233 22-09-2010 22:32:02 16.1 C 9.32 g/m*3 16.1 C 0 km/h
234 22-09-2010 22:44:02 15.9 C 9.21 g/m*3 15.9 C 0 km/h
235 22-09-2010 22:56:02 15.7 C 9.1 g/m*3 15.7 C 0 km/h
236 22-09-2010 23:08:02 15.4 C 8.8 g/m*3 15.4 C 0 km/h
237 22-09-2010 23:20:02 15.1 C 8.77 g/m*3 15.1 C 0 km/h
238 22-09-2010 23:32:02 14.9 C 8.79 g/m*3 14.9 C 0 km/h
239 22-09-2010 23:44:02 14.7 C 8.81 g/m*3 14.7 C 0 km/h
240 22-09-2010 23:56:02 14.5 C 8.71 g/m*3 14.5 C 0 km/h
241 23-09-2010 00:08:02 14.4 C 8.53 g/m*3 14.4 C 0 km/h
242 23-09-2010 00:20:02 14.2 C 8.67 g/m*3 14.2 C 0 km/h
243 23-09-2010 00:32:02 14 C 8.56 g/m*3 14 C 0 km/h
244 23-09-2010 00:44:02 13.8 C 8.7 g/m*3 13.8 C 0 km/h
245 23-09-2010 00:56:02 13.7 C 8.76 g/m*3 13.7 C 0 km/h
246 23-09-2010 01:08:02 13.5 C 8.77 g/m*3 13.5 C 0 km/h
247 23-09-2010 01:20:02 13.4 C 8.72 g/m*3 13.4 C 0 km/h
248 23-09-2010 01:32:02 13.2 C 8.73 g/m*3 13.2 C 0 km/h
249 23-09-2010 01:44:02 13.1 C 8.67 g/m*3 13.1 C 0 km/h
250 23-09-2010 01:56:03 12.9 C 8.68 g/m*3 12.9 C 0 km/h
Sensor: Nr:Datum:Temp:Abs-Feuchte:Windchill:Wind:
Aussen-T/F 251 23-09-2010 02:08:03 12.8 C 8.74 g/m*3 12.8 C 0 km/h
252 23-09-2010 02:20:03 12.6 C 8.74 g/m*3 12.6 C 0 km/h
253 23-09-2010 02:32:03 12.4 C 8.74 g/m*3 12.4 C 0 km/h
254 23-09-2010 02:44:03 12.3 C 8.69 g/m*3 12.3 C 0 km/h
255 23-09-2010 02:56:03 12.1 C 8.58 g/m*3 12.1 C 0 km/h
256 23-09-2010 03:08:03 12 C 8.53 g/m*3 12 C 0 km/h
257 23-09-2010 03:20:03 11.8 C 8.53 g/m*3 11.8 C 0 km/h
258 23-09-2010 03:32:03 11.8 C 8.53 g/m*3 11.8 C 0 km/h
259 23-09-2010 03:44:03 11.8 C 8.63 g/m*3 11.8 C 0 km/h
260 23-09-2010 03:56:03 11.6 C 8.63 g/m*3 11.6 C 0 km/h
261 23-09-2010 04:08:03 11.4 C 8.52 g/m*3 11.4 C 0 km/h
262 23-09-2010 04:20:03 11.2 C 8.41 g/m*3 11.2 C 0 km/h
263 23-09-2010 04:32:03 11.2 C 8.41 g/m*3 11.2 C 0 km/h
264 23-09-2010 04:44:03 11 C 8.31 g/m*3 11 C 0 km/h
265 23-09-2010 04:56:03 11 C 8.31 g/m*3 11 C 0 km/h
266 23-09-2010 05:08:03 10.9 C 8.36 g/m*3 10.9 C 0 km/h
267 23-09-2010 05:20:03 10.7 C 8.25 g/m*3 10.7 C 0 km/h
268 23-09-2010 05:32:03 10.6 C 8.2 g/m*3 10.6 C 0 km/h
269 23-09-2010 05:44:03 10.5 C 8.15 g/m*3 10.5 C 0 km/h
270 23-09-2010 05:56:03 10.5 C 8.15 g/m*3 10.5 C 0 km/h
271 23-09-2010 06:08:03 10.4 C 8.1 g/m*3 10.4 C 0 km/h
272 23-09-2010 06:20:04 10.5 C 8.24 g/m*3 10.5 C 0 km/h
273 23-09-2010 06:32:04 10.6 C 8.3 g/m*3 10.6 C 0 km/h
274 23-09-2010 06:44:04 10.4 C 8.19 g/m*3 10.4 C 0 km/h
275 23-09-2010 06:56:04 10.4 C 8.19 g/m*3 10.4 C 0 km/h
Sensor: Nr:Datum:Temp:Abs-Feuchte:Windchill:Wind:
Aussen-T/F 276 23-09-2010 07:08:02 10.5 C 8.24 g/m*3 10.5 C 0 km/h
277 23-09-2010 07:20:01 10.4 C 8.19 g/m*3 10.4 C 0 km/h
278 23-09-2010 07:32:02 10.5 C 8.24 g/m*3 10.5 C 0 km/h
279 23-09-2010 07:44:02 10.6 C 8.3 g/m*3 10.6 C 0 km/h
280 23-09-2010 07:56:02 10.6 C 8.3 g/m*3 10.6 C 0 km/h
281 23-09-2010 08:08:02 10.6 C 8.3 g/m*3 10.6 C 0 km/h
282 23-09-2010 08:20:01 10.7 C 8.35 g/m*3 10.7 C 0 km/h
283 23-09-2010 08:32:02 10.8 C 8.4 g/m*3 10.8 C 0 km/h
284 23-09-2010 08:44:02 11 C 8.51 g/m*3 11 C 0 km/h
285 23-09-2010 08:56:02 11.3 C 8.57 g/m*3 11.3 C 0 km/h
286 23-09-2010 09:08:01 11.4 C 8.52 g/m*3 11.4 C 0 km/h
287 23-09-2010 09:20:01 11.4 C 8.52 g/m*3 11.4 C 0 km/h
288 23-09-2010 09:32:02 11.4 C 8.52 g/m*3 11.4 C 0 km/h
289 23-09-2010 09:44:02 11.7 C 8.79 g/m*3 11.7 C 0 km/h
290 23-09-2010 09:56:02 12.3 C 8.9 g/m*3 12.3 C 0 km/h
291 23-09-2010 10:08:02 12.4 C 8.96 g/m*3 12.4 C 0 km/h
292 23-09-2010 10:20:02 12.5 C 9.02 g/m*3 12.5 C 0 km/h
293 23-09-2010 10:32:02 12.9 C 9.24 g/m*3 12.9 C 0 km/h
294 23-09-2010 10:44:02 13.3 C 9.36 g/m*3 13.3 C 0 km/h
295 23-09-2010 10:56:02 13.8 C 9.65 g/m*3 13.8 C 0 km/h
296 23-09-2010 11:08:02 14.1 C 9.71 g/m*3 14.1 C 0 km/h
297 23-09-2010 11:20:02 15 C 10 g/m*3 15 C 0 km/h
298 23-09-2010 11:32:02 15.8 C 10.23 g/m*3 15.8 C 0 km/h
299 23-09-2010 11:44:02 16.3 C 10.13 g/m*3 16.3 C 0 km/h
300 23-09-2010 11:56:02 17 C 10.27 g/m*3 17 C 0 km/h
Sensor: Nr:Datum:Temp:Abs-Feuchte:Windchill:Wind:
Aussen-T/F 301 23-09-2010 12:08:02 17.5 C 10.44 g/m*3 17.5 C 0 km/h
302 23-09-2010 12:20:02 18 C 10.44 g/m*3 18 C 0 km/h
303 23-09-2010 12:32:02 18.7 C 10.73 g/m*3 18.7 C 0 km/h
304 23-09-2010 12:44:02 19.2 C 10.55 g/m*3 19.2 C 0 km/h
305 23-09-2010 12:56:02 19.9 C 10.82 g/m*3 19.9 C 0 km/h
306 23-09-2010 13:08:02 20.5 C 11.03 g/m*3 20.5 C 0 km/h
307 23-09-2010 13:20:02 21.4 C 11.06 g/m*3 21.4 C 0 km/h
308 23-09-2010 13:32:01 22.3 C 11.26 g/m*3 22.3 C 0 km/h
309 23-09-2010 13:44:01 23.3 C 10.66 g/m*3 23.3 C 0 km/h
310 23-09-2010 13:56:02 24 C 9.14 g/m*3 24 C 0 km/h
311 23-09-2010 14:08:01 24.5 C 9.62 g/m*3 24.5 C 0 km/h
312 23-09-2010 14:20:02 23.8 C 10.11 g/m*3 23.8 C 0 km/h
313 23-09-2010 14:32:02 23.7 C 10.48 g/m*3 23.7 C 0 km/h
314 23-09-2010 14:44:02 23.8 C 10.54 g/m*3 23.8 C 0 km/h
315 23-09-2010 14:56:02 24.5 C 10.3 g/m*3 24.5 C 0 km/h
316 23-09-2010 15:08:02 25.2 C 8.85 g/m*3 25.2 C 0 km/h
317 23-09-2010 15:20:02 25.2 C 9.78 g/m*3 25.2 C 0 km/h
318 23-09-2010 15:32:02 24.8 C 9.33 g/m*3 24.8 C 0 km/h
319 23-09-2010 15:44:03 25.1 C 9.26 g/m*3 25.1 C 0 km/h
320 23-09-2010 15:56:01 24.9 C 9.61 g/m*3 24.9 C 0 km/h
321 23-09-2010 16:08:02 25.1 C 10.19 g/m*3 25.1 C 0 km/h
322 23-09-2010 16:20:01 26 C 9.74 g/m*3 26 C 0 km/h
323 23-09-2010 16:32:01 25.6 C 9.05 g/m*3 25.6 C 0 km/h
324 23-09-2010 16:44:01 24.9 C 10.07 g/m*3 24.9 C 0 km/h
325 23-09-2010 16:56:01 24.1 C 10.28 g/m*3 24.1 C 0 km/h
Sensor: Nr:Datum:Temp:Abs-Feuchte:Windchill:Wind:
Aussen-T/F 326 23-09-2010 17:08:01 23.7 C 10.91 g/m*3 23.7 C 0 km/h
327 23-09-2010 17:20:02 23.4 C 10.72 g/m*3 23.4 C 0 km/h
328 23-09-2010 17:32:01 23.2 C 10.81 g/m*3 23.2 C 0 km/h
329 23-09-2010 17:44:01 23.3 C 10.45 g/m*3 23.3 C 0 km/h
330 23-09-2010 17:56:02 23.8 C 10.76 g/m*3 23.8 C 0 km/h
331 23-09-2010 18:08:01 23.3 C 10.45 g/m*3 23.3 C 0 km/h
332 23-09-2010 18:20:02 22.6 C 10.25 g/m*3 22.6 C 0 km/h
333 23-09-2010 18:32:01 21.7 C 10.68 g/m*3 21.7 C 0 km/h
334 23-09-2010 18:44:01 21.6 C 10.81 g/m*3 21.6 C 0 km/h
335 23-09-2010 18:56:02 21.4 C 10.87 g/m*3 21.4 C 0 km/h
336 23-09-2010 19:08:02 20.9 C 10.93 g/m*3 20.9 C 0 km/h
337 23-09-2010 19:20:02 20.4 C 10.97 g/m*3 20.4 C 0 km/h
338 23-09-2010 19:32:02 19.8 C 11.1 g/m*3 19.8 C 0 km/h
339 23-09-2010 19:44:02 19.4 C 11.18 g/m*3 19.4 C 0 km/h
340 23-09-2010 19:56:02 19 C 11.08 g/m*3 19 C 0 km/h
341 23-09-2010 20:08:01 18.8 C 11.43 g/m*3 18.8 C 0 km/h
342 23-09-2010 20:20:02 18.6 C 11.3 g/m*3 18.6 C 0 km/h
343 23-09-2010 20:32:02 18.6 C 11.3 g/m*3 18.6 C 0 km/h
344 23-09-2010 20:44:02 18.4 C 11.32 g/m*3 18.4 C 0 km/h
345 23-09-2010 20:56:02 18.1 C 11.12 g/m*3 18.1 C 0 km/h
346 23-09-2010 21:08:02 18.4 C 11.48 g/m*3 18.4 C 0 km/h
347 23-09-2010 21:20:01 18.3 C 11.41 g/m*3 18.3 C 0 km/h
348 23-09-2010 21:32:02 18.4 C 11.64 g/m*3 18.4 C 0 km/h
349 23-09-2010 21:44:02 18.7 C 11.53 g/m*3 18.7 C 0 km/h
350 23-09-2010 21:57:02 18.7 C 11.37 g/m*3 18.7 C 0 km/h
Sensor: Nr:Datum:Temp:Abs-Feuchte:Windchill:Wind:
Aussen-T/F 351 23-09-2010 22:09:02 18.5 C 11.23 g/m*3 18.5 C 0 km/h
352 23-09-2010 22:21:02 18.5 C 11.39 g/m*3 18.5 C 0 km/h
353 23-09-2010 22:33:02 17.9 C 11.6 g/m*3 17.9 C 0 km/h
354 23-09-2010 22:45:02 17.7 C 12.52 g/m*3 17.7 C 0 km/h
355 23-09-2010 22:57:02 17.1 C 12.23 g/m*3 17.1 C 0 km/h
356 23-09-2010 23:09:02 16.9 C 12.37 g/m*3 16.9 C 0 km/h
357 23-09-2010 23:21:02 16.5 C 12.22 g/m*3 16.5 C 0 km/h
358 23-09-2010 23:33:02 16.4 C 12.28 g/m*3 16.4 C 0 km/h
359 23-09-2010 23:45:02 16.2 C 12.14 g/m*3 16.2 C 0 km/h
360 23-09-2010 23:57:02 16.2 C 12.27 g/m*3 16.2 C 0 km/h
361 24-09-2010 00:09:02 16 C 12.13 g/m*3 16 C 0 km/h
362 24-09-2010 00:21:02 15.9 C 12.32 g/m*3 15.9 C 0 km/h
363 24-09-2010 00:33:02 15.6 C 12.1 g/m*3 15.6 C 0 km/h
364 24-09-2010 00:45:02 15.5 C 12.16 g/m*3 15.5 C 0 km/h
365 24-09-2010 00:57:02 15.5 C 12.16 g/m*3 15.5 C 0 km/h
366 24-09-2010 01:09:02 15.5 C 12.16 g/m*3 15.5 C 0 km/h
367 24-09-2010 01:21:02 15.5 C 12.29 g/m*3 15.5 C 0 km/h
368 24-09-2010 01:33:02 15.6 C 12.37 g/m*3 15.6 C 0 km/h
369 24-09-2010 01:45:02 15.6 C 12.37 g/m*3 15.6 C 0 km/h
370 24-09-2010 01:57:03 15.5 C 12.29 g/m*3 15.5 C 0 km/h
371 24-09-2010 02:09:03 15.5 C 12.29 g/m*3 15.5 C 0 km/h
372 24-09-2010 02:21:03 15.5 C 12.29 g/m*3 15.5 C 0 km/h
373 24-09-2010 02:33:03 15.4 C 12.22 g/m*3 15.4 C 0 km/h
374 24-09-2010 02:45:03 15.3 C 12.01 g/m*3 15.3 C 0 km/h
375 24-09-2010 02:57:03 15.2 C 11.94 g/m*3 15.2 C 0 km/h
Sensor: Nr:Datum:Temp:Abs-Feuchte:Windchill:Wind:
Aussen-T/F 376 24-09-2010 03:09:03 15.1 C 11.87 g/m*3 15.1 C 0 km/h
377 24-09-2010 03:21:03 14.9 C 11.85 g/m*3 14.9 C 0 km/h
378 24-09-2010 03:33:03 14.9 C 11.85 g/m*3 14.9 C 0 km/h
379 24-09-2010 03:45:03 14.9 C 11.98 g/m*3 14.9 C 0 km/h
380 24-09-2010 03:57:03 14.9 C 11.98 g/m*3 14.9 C 0 km/h
381 24-09-2010 04:09:03 14.8 C 11.91 g/m*3 14.8 C 0 km/h
382 24-09-2010 04:21:03 14.8 C 11.91 g/m*3 14.8 C 0 km/h
383 24-09-2010 04:33:03 14.8 C 11.91 g/m*3 14.8 C 0 km/h
384 24-09-2010 04:45:03 14.8 C 11.91 g/m*3 14.8 C 0 km/h
385 24-09-2010 04:57:03 14.7 C 11.83 g/m*3 14.7 C 0 km/h
386 24-09-2010 05:09:03 14.5 C 11.69 g/m*3 14.5 C 0 km/h
387 24-09-2010 05:21:03 14.5 C 11.69 g/m*3 14.5 C 0 km/h
388 24-09-2010 05:33:03 14.5 C 11.69 g/m*3 14.5 C 0 km/h
389 24-09-2010 05:45:03 14.6 C 11.76 g/m*3 14.6 C 0 km/h
390 24-09-2010 05:57:03 14.6 C 11.76 g/m*3 14.6 C 0 km/h
391 24-09-2010 06:09:03 14.7 C 11.83 g/m*3 14.7 C 0 km/h
392 24-09-2010 06:21:04 14.7 C 11.83 g/m*3 14.7 C 0 km/h
393 24-09-2010 06:33:04 14.7 C 11.83 g/m*3 14.7 C 0 km/h
394 24-09-2010 06:45:04 14.7 C 11.83 g/m*3 14.7 C 0 km/h
395 24-09-2010 06:57:04 14.7 C 11.83 g/m*3 14.7 C 0 km/h
396 24-09-2010 07:09:04 14.5 C 11.69 g/m*3 14.5 C 0 km/h
397 24-09-2010 07:21:04 14.4 C 11.62 g/m*3 14.4 C 0 km/h
398 24-09-2010 07:33:02 14.3 C 11.55 g/m*3 14.3 C 0 km/h
399 24-09-2010 07:45:02 14.4 C 11.62 g/m*3 14.4 C 0 km/h
400 24-09-2010 07:57:02 14.4 C 11.62 g/m*3 14.4 C 0 km/h
Sensor: Nr:Datum:Temp:Abs-Feuchte:Windchill:Wind:
Aussen-T/F 401 24-09-2010 08:09:02 14.4 C 11.62 g/m*3 14.4 C 0 km/h
402 24-09-2010 08:21:01 14.3 C 11.55 g/m*3 14.3 C 0 km/h
403 24-09-2010 08:33:02 14.6 C 11.89 g/m*3 14.6 C 0 km/h
404 24-09-2010 08:45:02 14.8 C 12.03 g/m*3 14.8 C 0 km/h
405 24-09-2010 08:57:02 14.8 C 12.03 g/m*3 14.8 C 0 km/h
406 24-09-2010 09:09:01 14.8 C 12.03 g/m*3 14.8 C 0 km/h
407 24-09-2010 09:21:02 14.8 C 12.03 g/m*3 14.8 C 0 km/h
408 24-09-2010 09:33:01 14.9 C 12.11 g/m*3 14.9 C 0 km/h
409 24-09-2010 09:45:02 14.9 C 12.11 g/m*3 14.9 C 0 km/h
410 24-09-2010 09:57:02 15 C 12.05 g/m*3 15 C 0 km/h
411 24-09-2010 10:09:02 15 C 12.05 g/m*3 15 C 0 km/h
412 24-09-2010 10:21:02 14.9 C 12.11 g/m*3 14.9 C 0 km/h
413 24-09-2010 10:33:02 15 C 12.05 g/m*3 15 C 0 km/h
414 24-09-2010 10:45:01 15 C 12.05 g/m*3 15 C 0 km/h
415 24-09-2010 10:57:01 15 C 12.05 g/m*3 15 C 0 km/h
416 24-09-2010 11:09:02 15.1 C 12.13 g/m*3 15.1 C 0 km/h
417 24-09-2010 11:21:01 15.1 C 12.13 g/m*3 15.1 C 0 km/h
418 24-09-2010 11:33:01 15.4 C 12.35 g/m*3 15.4 C 0 km/h
419 24-09-2010 11:45:02 15.4 C 12.35 g/m*3 15.4 C 0 km/h
420 24-09-2010 11:57:02 15.1 C 12.13 g/m*3 15.1 C 0 km/h
421 24-09-2010 12:09:02 15.1 C 12.13 g/m*3 15.1 C 0 km/h
422 24-09-2010 12:21:02 15.1 C 12.13 g/m*3 15.1 C 0 km/h
423 24-09-2010 12:33:03 15.4 C 12.48 g/m*3 15.4 C 0 km/h
424 24-09-2010 12:45:02 15.1 C 12.13 g/m*3 15.1 C 0 km/h
425 24-09-2010 12:57:03 15 C 12.05 g/m*3 15 C 0 km/h
Sensor: Nr:Datum:Temp:Abs-Feuchte:Windchill:Wind:
Aussen-T/F 426 24-09-2010 13:09:02 14.8 C 11.91 g/m*3 14.8 C 0 km/h
427 24-09-2010 13:21:02 14.6 C 11.76 g/m*3 14.6 C 0 km/h
428 24-09-2010 13:33:02 14.5 C 11.69 g/m*3 14.5 C 0 km/h
429 24-09-2010 13:45:02 14.5 C 11.69 g/m*3 14.5 C 0 km/h
430 24-09-2010 13:57:02 14.4 C 11.62 g/m*3 14.4 C 0 km/h
431 24-09-2010 14:09:03 14.1 C 11.41 g/m*3 14.1 C 0 km/h
432 24-09-2010 14:21:02 13.8 C 11.2 g/m*3 13.8 C 0 km/h
433 24-09-2010 14:33:03 13.5 C 10.99 g/m*3 13.5 C 0 km/h
434 24-09-2010 14:45:02 13.2 C 10.79 g/m*3 13.2 C 0 km/h
435 24-09-2010 14:57:02 13.1 C 10.73 g/m*3 13.1 C 0 km/h
436 24-09-2010 15:09:02 12.9 C 10.71 g/m*3 12.9 C 0 km/h
437 24-09-2010 15:21:03 13.1 C 10.73 g/m*3 13.1 C 0 km/h
438 24-09-2010 15:33:02 13 C 10.77 g/m*3 13 C 0 km/h
439 24-09-2010 15:45:03 13.2 C 10.91 g/m*3 13.2 C 0 km/h
440 24-09-2010 15:57:03 13.2 C 10.91 g/m*3 13.2 C 0 km/h
441 24-09-2010 16:09:02 13.3 C 10.98 g/m*3 13.3 C 0 km/h
442 24-09-2010 16:21:02 13.7 C 11.25 g/m*3 13.7 C 0 km/h
443 24-09-2010 16:33:02 14 C 11.46 g/m*3 14 C 0 km/h
444 24-09-2010 16:45:02 14.1 C 11.53 g/m*3 14.1 C 0 km/h
445 24-09-2010 16:57:02 13.9 C 11.39 g/m*3 13.9 C 0 km/h
446 24-09-2010 17:09:02 13.9 C 11.39 g/m*3 13.9 C 0 km/h
447 24-09-2010 17:21:02 13.9 C 11.39 g/m*3 13.9 C 0 km/h
448 24-09-2010 17:33:02 13.4 C 10.93 g/m*3 13.4 C 0 km/h
449 24-09-2010 17:45:02 13.2 C 10.79 g/m*3 13.2 C 0 km/h
450 24-09-2010 17:57:02 13 C 10.66 g/m*3 13 C 0 km/h
Sensor: Nr:Datum:Temp:Abs-Feuchte:Windchill:Wind:
Aussen-T/F 451 24-09-2010 18:09:01 13.2 C 10.79 g/m*3 13.2 C 0 km/h
452 24-09-2010 18:21:01 13.3 C 10.86 g/m*3 13.3 C 0 km/h
453 24-09-2010 18:33:02 13.3 C 10.86 g/m*3 13.3 C 0 km/h
454 24-09-2010 18:45:02 13.3 C 10.86 g/m*3 13.3 C 0 km/h
455 24-09-2010 18:57:02 13.2 C 10.79 g/m*3 13.2 C 0 km/h
456 24-09-2010 19:09:02 13.1 C 10.73 g/m*3 13.1 C 0 km/h
457 24-09-2010 19:21:01 12.9 C 10.71 g/m*3 12.9 C 0 km/h
458 24-09-2010 19:33:02 12.8 C 10.64 g/m*3 12.8 C 0 km/h
459 24-09-2010 19:45:02 12.7 C 10.58 g/m*3 12.7 C 0 km/h
460 24-09-2010 19:57:02 12.7 C 10.58 g/m*3 12.7 C 0 km/h
461 24-09-2010 20:09:02 12.7 C 10.58 g/m*3 12.7 C 0 km/h
462 24-09-2010 20:21:01 12.7 C 10.58 g/m*3 12.7 C 0 km/h
463 24-09-2010 20:33:02 12.7 C 10.58 g/m*3 12.7 C 0 km/h
464 24-09-2010 20:45:01 12.7 C 10.58 g/m*3 12.7 C 0 km/h
465 24-09-2010 20:57:01 12.7 C 10.58 g/m*3 12.7 C 0 km/h
466 24-09-2010 21:09:02 12.8 C 10.64 g/m*3 12.8 C 0 km/h
467 24-09-2010 21:21:02 12.8 C 10.64 g/m*3 12.8 C 0 km/h
468 24-09-2010 21:33:02 12.9 C 10.71 g/m*3 12.9 C 0 km/h
469 24-09-2010 21:45:02 12.8 C 10.64 g/m*3 12.8 C 0 km/h
470 24-09-2010 21:57:02 12.8 C 10.64 g/m*3 12.8 C 0 km/h
471 24-09-2010 22:09:01 12.8 C 10.64 g/m*3 12.8 C 0 km/h
472 24-09-2010 22:21:02 12.8 C 10.64 g/m*3 12.8 C 0 km/h
473 24-09-2010 22:33:02 12.7 C 10.58 g/m*3 12.7 C 0 km/h
474 24-09-2010 22:46:04 12.6 C 10.51 g/m*3 12.6 C 0 km/h
475 24-09-2010 22:58:04 12.6 C 10.51 g/m*3 12.6 C 0 km/h
Sensor: Nr:Datum:Temp:Abs-Feuchte:Windchill:Wind:
Aussen-T/F 476 24-09-2010 23:10:04 12.5 C 10.44 g/m*3 12.5 C 0 km/h
477 24-09-2010 23:22:04 12.4 C 10.38 g/m*3 12.4 C 0 km/h
478 24-09-2010 23:34:04 12.4 C 10.38 g/m*3 12.4 C 0 km/h
479 24-09-2010 23:46:04 12.3 C 10.32 g/m*3 12.3 C 0 km/h
480 24-09-2010 23:58:04 12.4 C 10.38 g/m*3 12.4 C 0 km/h
481 25-09-2010 00:10:04 12.4 C 10.38 g/m*3 12.4 C 0 km/h
482 25-09-2010 00:22:04 12.5 C 10.44 g/m*3 12.5 C 0 km/h
483 25-09-2010 00:34:04 12.5 C 10.44 g/m*3 12.5 C 0 km/h
484 25-09-2010 00:46:04 12.5 C 10.44 g/m*3 12.5 C 0 km/h
485 25-09-2010 00:58:05 12.5 C 10.44 g/m*3 12.5 C 0 km/h
486 25-09-2010 01:10:05 12.5 C 10.44 g/m*3 12.5 C 0 km/h
487 25-09-2010 01:22:05 12.5 C 10.44 g/m*3 12.5 C 0 km/h
488 25-09-2010 01:34:05 12.5 C 10.44 g/m*3 12.5 C 0 km/h
489 25-09-2010 01:46:05 12.5 C 10.44 g/m*3 12.5 C 0 km/h
490 25-09-2010 01:58:05 12.6 C 10.51 g/m*3 12.6 C 0 km/h
491 25-09-2010 02:10:05 12.6 C 10.51 g/m*3 12.6 C 0 km/h
492 25-09-2010 02:22:05 12.6 C 10.51 g/m*3 12.6 C 0 km/h
493 25-09-2010 02:34:05 12.6 C 10.51 g/m*3 12.6 C 0 km/h
494 25-09-2010 02:46:05 12.6 C 10.51 g/m*3 12.6 C 0 km/h
495 25-09-2010 02:58:05 12.6 C 10.51 g/m*3 12.6 C 0 km/h
496 25-09-2010 03:10:05 12.7 C 10.58 g/m*3 12.7 C 0 km/h
497 25-09-2010 03:22:05 12.6 C 10.51 g/m*3 12.6 C 0 km/h
498 25-09-2010 03:34:05 12.6 C 10.51 g/m*3 12.6 C 0 km/h
499 25-09-2010 03:46:05 12.6 C 10.51 g/m*3 12.6 C 0 km/h
500 25-09-2010 03:58:05 12.6 C 10.51 g/m*3 12.6 C 0 km/h
Sensor: Nr:Datum:Temp:Abs-Feuchte:Windchill:Wind:
Aussen-T/F 501 25-09-2010 04:10:05 12.6 C 10.51 g/m*3 12.6 C 0 km/h
502 25-09-2010 04:22:05 12.5 C 10.44 g/m*3 12.5 C 0 km/h
503 25-09-2010 04:34:05 12.6 C 10.51 g/m*3 12.6 C 0 km/h
504 25-09-2010 04:46:05 12.5 C 10.44 g/m*3 12.5 C 0 km/h
505 25-09-2010 04:58:06 12.5 C 10.44 g/m*3 12.5 C 0 km/h
506 25-09-2010 05:10:06 12.5 C 10.44 g/m*3 12.5 C 0 km/h
507 25-09-2010 05:22:06 12.4 C 10.38 g/m*3 12.4 C 0 km/h
508 25-09-2010 05:34:06 12.4 C 10.38 g/m*3 12.4 C 0 km/h
509 25-09-2010 05:46:06 12.3 C 10.32 g/m*3 12.3 C 0 km/h
510 25-09-2010 05:58:06 12.3 C 10.21 g/m*3 12.3 C 0 km/h
511 25-09-2010 06:10:06 12.1 C 10.08 g/m*3 12.1 C 0 km/h
512 25-09-2010 06:22:06 12.1 C 10.08 g/m*3 12.1 C 0 km/h
513 25-09-2010 06:34:06 12.1 C 10.08 g/m*3 12.1 C 0 km/h
514 25-09-2010 06:46:06 12 C 10.02 g/m*3 12 C 0 km/h
515 25-09-2010 06:58:06 12 C 10.02 g/m*3 12 C 0 km/h
516 25-09-2010 07:10:06 12 C 10.02 g/m*3 12 C 0 km/h
517 25-09-2010 07:22:06 11.9 C 9.96 g/m*3 11.9 C 0 km/h
518 25-09-2010 07:34:06 11.9 C 9.96 g/m*3 11.9 C 0 km/h
519 25-09-2010 07:46:02 11.8 C 9.89 g/m*3 11.8 C 0 km/h
520 25-09-2010 07:58:02 11.8 C 9.89 g/m*3 11.8 C 0 km/h
521 25-09-2010 08:10:02 11.7 C 9.83 g/m*3 11.7 C 0 km/h
522 25-09-2010 08:22:02 11.6 C 9.77 g/m*3 11.6 C 0 km/h
523 25-09-2010 08:34:02 11.2 C 9.43 g/m*3 11.2 C 0 km/h
524 25-09-2010 08:46:02 11 C 9.31 g/m*3 11 C 0 km/h
525 25-09-2010 08:58:02 10.8 C 9.19 g/m*3 10.8 C 0 km/h
Sensor: Nr:Datum:Temp:Abs-Feuchte:Windchill:Wind:
Aussen-T/F 526 25-09-2010 09:10:01 10.6 C 9.08 g/m*3 10.6 C 0 km/h
527 25-09-2010 09:22:02 10.4 C 8.96 g/m*3 10.4 C 0 km/h
528 25-09-2010 09:34:02 10.5 C 8.92 g/m*3 10.5 C 0 km/h
529 25-09-2010 09:46:02 10.5 C 8.83 g/m*3 10.5 C 0 km/h
530 25-09-2010 09:58:02 10.4 C 8.29 g/m*3 10.4 C 0 km/h
531 25-09-2010 10:10:03 10.5 C 8.15 g/m*3 10.5 C 0 km/h
532 25-09-2010 10:22:02 10.8 C 8.2 g/m*3 10.8 C 0 km/h
533 25-09-2010 10:34:02 11.1 C 8.36 g/m*3 11.1 C 0 km/h
534 25-09-2010 10:46:01 11.3 C 8.36 g/m*3 11.3 C 0 km/h
535 25-09-2010 10:58:01 11.5 C 8.16 g/m*3 11.5 C 0 km/h
536 25-09-2010 11:10:02 11.6 C 7.8 g/m*3 11.6 C 0 km/h
537 25-09-2010 11:22:01 12.1 C 7.72 g/m*3 12.1 C 0 km/h
538 25-09-2010 11:34:02 12.3 C 7.38 g/m*3 12.3 C 0 km/h
539 25-09-2010 11:46:01 12.5 C 7.26 g/m*3 12.5 C 0 km/h
540 25-09-2010 11:58:01 13 C 7.03 g/m*3 13 C 0 km/h
541 25-09-2010 12:10:02 12.8 C 6.83 g/m*3 12.8 C 0 km/h
542 25-09-2010 12:22:01 12.8 C 7.06 g/m*3 12.8 C 0 km/h
543 25-09-2010 12:34:02 12.4 C 6.88 g/m*3 12.4 C 0 km/h
544 25-09-2010 12:46:02 11.8 C 6.84 g/m*3 11.8 C 0 km/h
545 25-09-2010 12:58:02 12.4 C 6.88 g/m*3 12.4 C 0 km/h
546 25-09-2010 13:10:02 12.7 C 6.68 g/m*3 12.7 C 0 km/h
547 25-09-2010 13:22:01 13 C 6.35 g/m*3 13 C 0 km/h
548 25-09-2010 13:34:02 13.8 C 6.43 g/m*3 13.8 C 0 km/h
549 25-09-2010 13:46:01 13.5 C 5.38 g/m*3 13.5 C 0 km/h
550 25-09-2010 13:58:01 13.3 C 5.31 g/m*3 13.3 C 0 km/h
Sensor: Nr:Datum:Temp:Abs-Feuchte:Windchill:Wind:
Aussen-T/F 551 25-09-2010 14:10:02 13.7 C 5.45 g/m*3 13.7 C 0 km/h
552 25-09-2010 14:22:01 13.5 C 5.5 g/m*3 13.5 C 0 km/h
553 25-09-2010 14:34:02 13.8 C 5.36 g/m*3 13.8 C 0 km/h
554 25-09-2010 14:46:01 14.4 C 5.32 g/m*3 14.4 C 0 km/h
555 25-09-2010 14:58:01 15.8 C 5.12 g/m*3 15.8 C 0 km/h
556 25-09-2010 15:10:02 14.8 C 4.43 g/m*3 14.8 C 0 km/h
557 25-09-2010 15:22:02 14.5 C 4.6 g/m*3 14.5 C 0 km/h
558 25-09-2010 15:34:01 15.7 C 4.68 g/m*3 15.7 C 0 km/h
559 25-09-2010 15:46:02 15.5 C 4.63 g/m*3 15.5 C 0 km/h
560 25-09-2010 15:58:02 14.7 C 5.04 g/m*3 14.7 C 0 km/h
561 25-09-2010 16:10:01 14.2 C 4.88 g/m*3 14.2 C 0 km/h
562 25-09-2010 16:22:02 14.4 C 5.07 g/m*3 14.4 C 0 km/h
563 25-09-2010 16:34:01 14.7 C 5.16 g/m*3 14.7 C 0 km/h
564 25-09-2010 16:46:02 15.6 C 4.79 g/m*3 15.6 C 0 km/h
565 25-09-2010 16:58:02 14.7 C 4.91 g/m*3 14.7 C 0 km/h
566 25-09-2010 17:10:02 14.3 C 4.91 g/m*3 14.3 C 0 km/h
567 25-09-2010 17:22:02 14.8 C 5.32 g/m*3 14.8 C 0 km/h
568 25-09-2010 17:34:03 15.6 C 5.19 g/m*3 15.6 C 0 km/h
569 25-09-2010 17:46:02 16.8 C 5.15 g/m*3 16.8 C 0 km/h
570 25-09-2010 17:58:02 16.5 C 4.77 g/m*3 16.5 C 0 km/h
571 25-09-2010 18:10:01 15.4 C 4.47 g/m*3 15.4 C 0 km/h
572 25-09-2010 18:22:01 14.3 C 4.67 g/m*3 14.3 C 0 km/h
573 25-09-2010 18:34:02 13.9 C 4.92 g/m*3 13.9 C 0 km/h
574 25-09-2010 18:46:02 13.8 C 5.36 g/m*3 13.8 C 0 km/h
575 25-09-2010 18:58:02 13.7 C 5.8 g/m*3 13.7 C 0 km/h
Sensor: Nr:Datum:Temp:Abs-Feuchte:Windchill:Wind:
Aussen-T/F 576 25-09-2010 19:10:02 13.5 C 5.5 g/m*3 13.5 C 0 km/h
577 25-09-2010 19:22:02 13.1 C 5.59 g/m*3 13.1 C 0 km/h
578 25-09-2010 19:34:02 13 C 5.67 g/m*3 13 C 0 km/h
579 25-09-2010 19:46:02 12.7 C 5.9 g/m*3 12.7 C 0 km/h
580 25-09-2010 19:58:02 12.6 C 6.08 g/m*3 12.6 C 0 km/h
581 25-09-2010 20:10:02 12.5 C 5.72 g/m*3 12.5 C 0 km/h
582 25-09-2010 20:22:02 12.2 C 5.61 g/m*3 12.2 C 0 km/h
583 25-09-2010 20:34:02 11.8 C 5.79 g/m*3 11.8 C 0 km/h
584 25-09-2010 20:46:02 11.1 C 6.04 g/m*3 11.1 C 0 km/h
585 25-09-2010 20:58:02 10.9 C 6.17 g/m*3 10.9 C 0 km/h
586 25-09-2010 21:10:02 10.4 C 6.17 g/m*3 10.4 C 0 km/h
587 25-09-2010 21:22:03 10.2 C 6.28 g/m*3 10.2 C 0 km/h
588 25-09-2010 21:34:02 10.1 C 6.34 g/m*3 10.1 C 0 km/h
589 25-09-2010 21:46:03 10 C 6.3 g/m*3 10 C 0 km/h
590 25-09-2010 21:58:03 9.9 C 6.44 g/m*3 9.9 C 0 km/h
591 25-09-2010 22:10:02 9.9 C 6.54 g/m*3 9.9 C 0 km/h
592 25-09-2010 22:22:02 10.2 C 6.57 g/m*3 10.2 C 0 km/h
593 25-09-2010 22:34:02 10.5 C 6.69 g/m*3 10.5 C 0 km/h
594 25-09-2010 22:46:02 10.5 C 6.69 g/m*3 10.5 C 0 km/h
595 25-09-2010 22:58:02 10.3 C 6.9 g/m*3 10.3 C 0 km/h
596 25-09-2010 23:10:02 9.6 C 7.15 g/m*3 9.6 C 0 km/h
597 25-09-2010 23:22:02 9.3 C 7.28 g/m*3 9.3 C 0 km/h
598 25-09-2010 23:34:01 9.2 C 7.5 g/m*3 9.2 C 0 km/h
599 25-09-2010 23:46:02 9.1 C 7.45 g/m*3 9.1 C 0 km/h
600 25-09-2010 23:58:02 9.2 C 7.59 g/m*3 9.2 C 0 km/h
Sensor: Nr:Datum:Temp:Abs-Feuchte:Windchill:Wind:
Aussen-T/F 601 26-09-2010 00:10:01 9.1 C 7.63 g/m*3 9.1 C 0 km/h
602 26-09-2010 00:22:02 9.5 C 7.92 g/m*3 9.5 C 0 km/h
603 26-09-2010 00:34:02 9.5 C 7.92 g/m*3 9.5 C 0 km/h
604 26-09-2010 00:46:02 9.6 C 7.79 g/m*3 9.6 C 0 km/h
605 26-09-2010 00:58:02 9.5 C 7.55 g/m*3 9.5 C 0 km/h
606 26-09-2010 01:10:02 9.5 C 7.37 g/m*3 9.5 C 0 km/h
607 26-09-2010 01:22:02 9.5 C 7.28 g/m*3 9.5 C 0 km/h
608 26-09-2010 01:34:02 9.4 C 7.15 g/m*3 9.4 C 0 km/h
609 26-09-2010 01:46:01 9.5 C 7.19 g/m*3 9.5 C 0 km/h
610 26-09-2010 01:58:01 9.5 C 7.19 g/m*3 9.5 C 0 km/h
611 26-09-2010 02:10:02 9.5 C 7.19 g/m*3 9.5 C 0 km/h
612 26-09-2010 02:22:01 9.5 C 7.1 g/m*3 9.5 C 0 km/h
613 26-09-2010 02:34:01 9.3 C 7.01 g/m*3 9.3 C 0 km/h
614 26-09-2010 02:46:01 9.4 C 6.96 g/m*3 9.4 C 0 km/h
615 26-09-2010 02:58:01 9.4 C 6.96 g/m*3 9.4 C 0 km/h
616 26-09-2010 03:10:01 9.3 C 6.92 g/m*3 9.3 C 0 km/h
617 26-09-2010 03:22:01 9.3 C 7.01 g/m*3 9.3 C 0 km/h
618 26-09-2010 03:34:01 9.3 C 7.1 g/m*3 9.3 C 0 km/h
619 26-09-2010 03:46:01 9.1 C 7.1 g/m*3 9.1 C 0 km/h
620 26-09-2010 03:58:01 9 C 7.23 g/m*3 9 C 0 km/h
621 26-09-2010 04:10:01 9 C 7.32 g/m*3 9 C 0 km/h
622 26-09-2010 04:22:01 9 C 7.23 g/m*3 9 C 0 km/h
623 26-09-2010 04:34:02 8.9 C 7.27 g/m*3 8.9 C 0 km/h
624 26-09-2010 04:46:01 8.7 C 7.26 g/m*3 8.7 C 0 km/h
625 26-09-2010 04:58:01 8.8 C 7.31 g/m*3 8.8 C 0 km/h
Sensor: Nr:Datum:Temp:Abs-Feuchte:Windchill:Wind:
Aussen-T/F 626 26-09-2010 05:10:02 9 C 7.32 g/m*3 9 C 0 km/h
627 26-09-2010 05:22:01 9.1 C 7.36 g/m*3 9.1 C 0 km/h
628 26-09-2010 05:34:01 9 C 7.32 g/m*3 9 C 0 km/h
629 26-09-2010 05:46:01 9 C 7.32 g/m*3 9 C 0 km/h
630 26-09-2010 05:58:01 9 C 7.32 g/m*3 9 C 0 km/h
631 26-09-2010 06:10:02 9 C 7.32 g/m*3 9 C 0 km/h
632 26-09-2010 06:22:01 9.1 C 7.36 g/m*3 9.1 C 0 km/h
633 26-09-2010 06:34:01 8.8 C 7.31 g/m*3 8.8 C 0 km/h
634 26-09-2010 06:46:01 8.8 C 7.4 g/m*3 8.8 C 0 km/h
635 26-09-2010 06:58:01 8.8 C 7.49 g/m*3 8.8 C 0 km/h
636 26-09-2010 07:10:01 8.8 C 7.49 g/m*3 8.8 C 0 km/h
637 26-09-2010 07:22:02 8.5 C 7.26 g/m*3 8.5 C 0 km/h
638 26-09-2010 07:34:01 8.6 C 7.39 g/m*3 8.6 C 0 km/h
639 26-09-2010 07:46:02 8.9 C 7.62 g/m*3 8.9 C 0 km/h
640 26-09-2010 07:58:02 9.2 C 7.5 g/m*3 9.2 C 0 km/h
641 26-09-2010 08:10:01 9.5 C 7.55 g/m*3 9.5 C 0 km/h
642 26-09-2010 08:22:02 9.6 C 7.33 g/m*3 9.6 C 0 km/h
643 26-09-2010 08:34:01 9.7 C 7.19 g/m*3 9.7 C 0 km/h
644 26-09-2010 08:46:02 9.7 C 7.19 g/m*3 9.7 C 0 km/h
645 26-09-2010 08:58:02 9.6 C 7.24 g/m*3 9.6 C 0 km/h
646 26-09-2010 09:10:01 9.4 C 7.24 g/m*3 9.4 C 0 km/h
647 26-09-2010 09:22:01 9.4 C 7.33 g/m*3 9.4 C 0 km/h
648 26-09-2010 09:34:02 10.5 C 7.57 g/m*3 10.5 C 0 km/h
649 26-09-2010 09:46:01 11 C 7.11 g/m*3 11 C 0 km/h
650 26-09-2010 09:58:01 11 C 6.61 g/m*3 11 C 0 km/h
Sensor: Nr:Datum:Temp:Abs-Feuchte:Windchill:Wind:
Aussen-T/F 651 26-09-2010 10:10:02 11 C 6.61 g/m*3 11 C 0 km/h
652 26-09-2010 10:22:01 11.6 C 6.76 g/m*3 11.6 C 0 km/h
653 26-09-2010 10:34:02 12 C 6.61 g/m*3 12 C 0 km/h
654 26-09-2010 10:46:01 11.9 C 6.78 g/m*3 11.9 C 0 km/h
655 26-09-2010 10:58:01 12.7 C 7.01 g/m*3 12.7 C 0 km/h
656 26-09-2010 11:10:02 12.9 C 6.42 g/m*3 12.9 C 0 km/h
657 26-09-2010 11:22:01 13.1 C 6.5 g/m*3 13.1 C 0 km/h
658 26-09-2010 11:34:02 13.2 C 6.66 g/m*3 13.2 C 0 km/h
659 26-09-2010 11:46:02 13.5 C 6.32 g/m*3 13.5 C 0 km/h
660 26-09-2010 11:58:02 13.4 C 6.28 g/m*3 13.4 C 0 km/h
661 26-09-2010 12:10:01 14 C 6.39 g/m*3 14 C 0 km/h
662 26-09-2010 12:22:02 14.3 C 6.51 g/m*3 14.3 C 0 km/h
663 26-09-2010 12:34:01 14.6 C 6.51 g/m*3 14.6 C 0 km/h
664 26-09-2010 12:46:01 15 C 6.28 g/m*3 15 C 0 km/h
665 26-09-2010 12:58:01 14.5 C 6.22 g/m*3 14.5 C 0 km/h
666 26-09-2010 13:10:02 14.5 C 6.34 g/m*3 14.5 C 0 km/h
667 26-09-2010 13:22:01 13.2 C 7.12 g/m*3 13.2 C 0 km/h
668 26-09-2010 13:34:01 12.6 C 7.63 g/m*3 12.6 C 0 km/h
669 26-09-2010 13:46:01 12.4 C 8.3 g/m*3 12.4 C 0 km/h
670 26-09-2010 13:58:01 12.3 C 8.25 g/m*3 12.3 C 0 km/h
671 26-09-2010 14:10:01 13.2 C 8.61 g/m*3 13.2 C 0 km/h
672 26-09-2010 14:22:01 13.4 C 8.37 g/m*3 13.4 C 0 km/h
673 26-09-2010 14:34:01 13.3 C 8.43 g/m*3 13.3 C 0 km/h
674 26-09-2010 14:46:01 13.2 C 8.15 g/m*3 13.2 C 0 km/h
675 26-09-2010 14:58:01 13.4 C 7.9 g/m*3 13.4 C 0 km/h
Sensor: Nr:Datum:Temp:Abs-Feuchte:Windchill:Wind:
Aussen-T/F 676 26-09-2010 15:10:01 13.6 C 7.89 g/m*3 13.6 C 0 km/h
677 26-09-2010 15:22:02 13.9 C 8.39 g/m*3 13.9 C 0 km/h
678 26-09-2010 15:34:01 14.4 C 8.16 g/m*3 14.4 C 0 km/h
679 26-09-2010 15:46:02 14.5 C 7.96 g/m*3 14.5 C 0 km/h
680 26-09-2010 15:58:02 14.5 C 8.21 g/m*3 14.5 C 0 km/h
681 26-09-2010 16:10:01 13.7 C 7.7 g/m*3 13.7 C 0 km/h
682 26-09-2010 16:22:02 13.8 C 7.51 g/m*3 13.8 C 0 km/h
683 26-09-2010 16:34:01 15.7 C 7.09 g/m*3 15.7 C 0 km/h
684 26-09-2010 16:46:01 15.5 C 6.21 g/m*3 15.5 C 0 km/h
685 26-09-2010 16:58:01 15.9 C 6.5 g/m*3 15.9 C 0 km/h
686 26-09-2010 17:10:01 16.1 C 6.44 g/m*3 16.1 C 0 km/h
687 26-09-2010 17:22:01 15.6 C 6.38 g/m*3 15.6 C 0 km/h
688 26-09-2010 17:34:02 15.4 C 6.7 g/m*3 15.4 C 0 km/h
689 26-09-2010 17:46:01 14.6 C 6.76 g/m*3 14.6 C 0 km/h
690 26-09-2010 17:58:01 14.2 C 6.72 g/m*3 14.2 C 0 km/h
691 26-09-2010 18:10:02 13.6 C 6.83 g/m*3 13.6 C 0 km/h
692 26-09-2010 18:22:01 13.1 C 6.85 g/m*3 13.1 C 0 km/h
693 26-09-2010 18:34:01 12.9 C 6.99 g/m*3 12.9 C 0 km/h
694 26-09-2010 18:46:01 12.7 C 7.01 g/m*3 12.7 C 0 km/h
695 26-09-2010 18:58:01 12.5 C 7.04 g/m*3 12.5 C 0 km/h
696 26-09-2010 19:10:02 12.4 C 7.1 g/m*3 12.4 C 0 km/h
697 26-09-2010 19:22:01 12.4 C 7.1 g/m*3 12.4 C 0 km/h
698 26-09-2010 19:34:01 12.2 C 7.01 g/m*3 12.2 C 0 km/h
699 26-09-2010 19:46:01 12.1 C 7.18 g/m*3 12.1 C 0 km/h
700 26-09-2010 19:58:01 12.1 C 7.08 g/m*3 12.1 C 0 km/h
Sensor: Nr:Datum:Temp:Abs-Feuchte:Windchill:Wind:
Aussen-T/F 701 26-09-2010 20:10:02 12 C 7.25 g/m*3 12 C 0 km/h
702 26-09-2010 20:22:01 11.9 C 7.31 g/m*3 11.9 C 0 km/h
703 26-09-2010 20:34:01 11.7 C 7.22 g/m*3 11.7 C 0 km/h
704 26-09-2010 20:46:01 11.7 C 7.22 g/m*3 11.7 C 0 km/h
705 26-09-2010 20:58:01 11.6 C 7.07 g/m*3 11.6 C 0 km/h
706 26-09-2010 21:10:01 11.6 C 7.07 g/m*3 11.6 C 0 km/h
707 26-09-2010 21:22:01 11.4 C 7.08 g/m*3 11.4 C 0 km/h
708 26-09-2010 21:34:01 11.2 C 7.1 g/m*3 11.2 C 0 km/h
709 26-09-2010 21:46:01 10.9 C 7.16 g/m*3 10.9 C 0 km/h
710 26-09-2010 21:58:01 10.7 C 7.17 g/m*3 10.7 C 0 km/h
711 26-09-2010 22:10:01 10.3 C 6.99 g/m*3 10.3 C 0 km/h
712 26-09-2010 22:22:01 10 C 7.05 g/m*3 10 C 0 km/h
713 26-09-2010 22:34:01 9.7 C 7.1 g/m*3 9.7 C 0 km/h
714 26-09-2010 22:47:04 9.3 C 7.1 g/m*3 9.3 C 0 km/h
715 26-09-2010 22:59:04 9.2 C 7.05 g/m*3 9.2 C 0 km/h
716 26-09-2010 23:11:04 9 C 7.05 g/m*3 9 C 0 km/h
717 26-09-2010 23:23:04 8.9 C 7.18 g/m*3 8.9 C 0 km/h
718 26-09-2010 23:35:04 8.9 C 7.27 g/m*3 8.9 C 0 km/h
719 26-09-2010 23:47:04 8.8 C 7.22 g/m*3 8.8 C 0 km/h
720 26-09-2010 23:59:04 8.6 C 7.13 g/m*3 8.6 C 0 km/h
721 27-09-2010 00:11:04 8.5 C 7.17 g/m*3 8.5 C 0 km/h
722 27-09-2010 00:23:04 8.2 C 7.03 g/m*3 8.2 C 0 km/h
723 27-09-2010 00:35:04 8.1 C 6.99 g/m*3 8.1 C 0 km/h
724 27-09-2010 00:47:04 7.9 C 6.98 g/m*3 7.9 C 0 km/h
725 27-09-2010 00:59:04 7.9 C 7.15 g/m*3 7.9 C 0 km/h
Sensor: Nr:Datum:Temp:Abs-Feuchte:Windchill:Wind:
Aussen-T/F 726 27-09-2010 01:11:04 7.8 C 7.18 g/m*3 7.8 C 0 km/h
727 27-09-2010 01:23:04 7.6 C 7.09 g/m*3 7.6 C 0 km/h
728 27-09-2010 01:35:04 7.5 C 7.04 g/m*3 7.5 C 0 km/h
729 27-09-2010 01:47:04 7.3 C 6.95 g/m*3 7.3 C 0 km/h
730 27-09-2010 01:59:04 7.1 C 6.94 g/m*3 7.1 C 0 km/h
731 27-09-2010 02:11:04 7 C 6.9 g/m*3 7 C 0 km/h
732 27-09-2010 02:23:04 7 C 6.9 g/m*3 7 C 0 km/h
733 27-09-2010 02:35:05 6.8 C 6.81 g/m*3 6.8 C 0 km/h
734 27-09-2010 02:47:05 6.7 C 6.84 g/m*3 6.7 C 0 km/h
735 27-09-2010 02:59:05 6.7 C 6.84 g/m*3 6.7 C 0 km/h
736 27-09-2010 03:11:05 6.5 C 6.75 g/m*3 6.5 C 0 km/h
737 27-09-2010 03:23:05 6.7 C 6.84 g/m*3 6.7 C 0 km/h
738 27-09-2010 03:35:05 6.4 C 6.71 g/m*3 6.4 C 0 km/h
739 27-09-2010 03:47:05 6.3 C 6.66 g/m*3 6.3 C 0 km/h
740 27-09-2010 03:59:05 6.4 C 6.78 g/m*3 6.4 C 0 km/h
741 27-09-2010 04:11:05 6.5 C 6.9 g/m*3 6.5 C 0 km/h
742 27-09-2010 04:23:05 6.4 C 6.85 g/m*3 6.4 C 0 km/h
743 27-09-2010 04:35:05 6.3 C 6.81 g/m*3 6.3 C 0 km/h
744 27-09-2010 04:47:05 6.1 C 6.72 g/m*3 6.1 C 0 km/h
745 27-09-2010 04:59:05 5.9 C 6.71 g/m*3 5.9 C 0 km/h
746 27-09-2010 05:11:05 5.9 C 6.71 g/m*3 5.9 C 0 km/h
747 27-09-2010 05:23:05 6.1 C 6.72 g/m*3 6.1 C 0 km/h
748 27-09-2010 05:35:05 6.3 C 6.81 g/m*3 6.3 C 0 km/h
749 27-09-2010 05:47:05 6.4 C 6.93 g/m*3 6.4 C 0 km/h
750 27-09-2010 05:59:05 6.5 C 6.97 g/m*3 6.5 C 0 km/h
Sensor: Nr:Datum:Temp:Abs-Feuchte:Windchill:Wind:
Aussen-T/F 751 27-09-2010 06:11:05 6.5 C 6.97 g/m*3 6.5 C 0 km/h
752 27-09-2010 06:23:05 6.4 C 6.93 g/m*3 6.4 C 0 km/h
753 27-09-2010 06:35:05 6.2 C 6.84 g/m*3 6.2 C 0 km/h
754 27-09-2010 06:47:06 6.2 C 6.84 g/m*3 6.2 C 0 km/h
755 27-09-2010 06:59:06 6.3 C 6.88 g/m*3 6.3 C 0 km/h
756 27-09-2010 07:11:04 6.3 C 6.88 g/m*3 6.3 C 0 km/h
757 27-09-2010 07:23:04 6.6 C 7.02 g/m*3 6.6 C 0 km/h
758 27-09-2010 07:35:04 6.7 C 7.14 g/m*3 6.7 C 0 km/h
759 27-09-2010 07:47:02 6.9 C 7.24 g/m*3 6.9 C 0 km/h
760 27-09-2010 07:59:02 7.2 C 7.38 g/m*3 7.2 C 0 km/h
761 27-09-2010 08:11:02 7.5 C 7.52 g/m*3 7.5 C 0 km/h
762 27-09-2010 08:23:02 7.5 C 7.52 g/m*3 7.5 C 0 km/h
763 27-09-2010 08:35:02 7.6 C 7.57 g/m*3 7.6 C 0 km/h
764 27-09-2010 08:47:02 7.8 C 7.67 g/m*3 7.8 C 0 km/h
765 27-09-2010 08:59:02 8.1 C 7.74 g/m*3 8.1 C 0 km/h
766 27-09-2010 09:11:02 8.5 C 7.94 g/m*3 8.5 C 0 km/h
767 27-09-2010 09:23:02 8.8 C 8.09 g/m*3 8.8 C 0 km/h
768 27-09-2010 09:35:02 9.2 C 8.22 g/m*3 9.2 C 0 km/h
769 27-09-2010 09:47:01 9.6 C 8.34 g/m*3 9.6 C 0 km/h
770 27-09-2010 09:59:01 10.1 C 8.42 g/m*3 10.1 C 0 km/h
771 27-09-2010 10:11:02 10.4 C 8.29 g/m*3 10.4 C 0 km/h
772 27-09-2010 10:23:01 10.4 C 7.9 g/m*3 10.4 C 0 km/h
773 27-09-2010 10:35:02 10.8 C 7.51 g/m*3 10.8 C 0 km/h
774 27-09-2010 10:47:01 11 C 7.11 g/m*3 11 C 0 km/h
775 27-09-2010 10:59:01 11.2 C 6.99 g/m*3 11.2 C 0 km/h
Sensor: Nr:Datum:Temp:Abs-Feuchte:Windchill:Wind:
Aussen-T/F 776 27-09-2010 11:11:02 11.7 C 7.01 g/m*3 11.7 C 0 km/h
777 27-09-2010 11:23:01 11.8 C 6.74 g/m*3 11.8 C 0 km/h
778 27-09-2010 11:35:02 12.2 C 6.8 g/m*3 12.2 C 0 km/h
779 27-09-2010 11:47:01 12 C 6.61 g/m*3 12 C 0 km/h
780 27-09-2010 11:59:01 12.2 C 6.8 g/m*3 12.2 C 0 km/h
781 27-09-2010 12:11:02 12.4 C 6.77 g/m*3 12.4 C 0 km/h
782 27-09-2010 12:23:01 12.8 C 6.94 g/m*3 12.8 C 0 km/h
783 27-09-2010 12:35:02 12.8 C 6.83 g/m*3 12.8 C 0 km/h
784 27-09-2010 12:47:01 13 C 6.8 g/m*3 13 C 0 km/h
785 27-09-2010 12:59:01 12.9 C 6.76 g/m*3 12.9 C 0 km/h
786 27-09-2010 13:11:02 13.1 C 6.73 g/m*3 13.1 C 0 km/h
787 27-09-2010 13:23:02 13.4 C 6.97 g/m*3 13.4 C 0 km/h
788 27-09-2010 13:35:01 13.6 C 6.71 g/m*3 13.6 C 0 km/h
789 27-09-2010 13:47:02 13.6 C 6.71 g/m*3 13.6 C 0 km/h
790 27-09-2010 13:59:02 13.7 C 6.51 g/m*3 13.7 C 0 km/h
791 27-09-2010 14:11:01 13.4 C 6.51 g/m*3 13.4 C 0 km/h
792 27-09-2010 14:23:02 13.3 C 6.7 g/m*3 13.3 C 0 km/h
793 27-09-2010 14:35:01 13.4 C 6.74 g/m*3 13.4 C 0 km/h
794 27-09-2010 14:47:03 13.2 C 6.77 g/m*3 13.2 C 0 km/h
795 27-09-2010 14:59:03 13 C 6.58 g/m*3 13 C 0 km/h
796 27-09-2010 15:11:02 13.4 C 6.74 g/m*3 13.4 C 0 km/h
797 27-09-2010 15:23:02 13.6 C 6.59 g/m*3 13.6 C 0 km/h
798 27-09-2010 15:35:02 13.6 C 6.47 g/m*3 13.6 C 0 km/h
799 27-09-2010 15:47:02 13.2 C 6.66 g/m*3 13.2 C 0 km/h
800 27-09-2010 15:59:02 13.2 C 6.77 g/m*3 13.2 C 0 km/h
Sensor: Nr:Datum:Temp:Abs-Feuchte:Windchill:Wind:
Aussen-T/F 801 27-09-2010 16:11:01 13.4 C 6.97 g/m*3 13.4 C 0 km/h
802 27-09-2010 16:23:02 13.4 C 7.44 g/m*3 13.4 C 0 km/h
803 27-09-2010 16:35:02 13.4 C 7.44 g/m*3 13.4 C 0 km/h
804 27-09-2010 16:47:01 13.3 C 7.05 g/m*3 13.3 C 0 km/h
805 27-09-2010 16:59:01 13.4 C 7.09 g/m*3 13.4 C 0 km/h
806 27-09-2010 17:11:01 13.2 C 7.58 g/m*3 13.2 C 0 km/h
807 27-09-2010 17:23:01 13 C 7.6 g/m*3 13 C 0 km/h
808 27-09-2010 17:35:02 12.8 C 7.73 g/m*3 12.8 C 0 km/h
809 27-09-2010 17:47:02 12.8 C 7.84 g/m*3 12.8 C 0 km/h
810 27-09-2010 17:59:02 12.7 C 7.68 g/m*3 12.7 C 0 km/h
811 27-09-2010 18:11:02 12.5 C 7.59 g/m*3 12.5 C 0 km/h
812 27-09-2010 18:23:01 12.3 C 7.71 g/m*3 12.3 C 0 km/h
813 27-09-2010 18:35:02 11.9 C 7.73 g/m*3 11.9 C 0 km/h
814 27-09-2010 18:47:02 11.7 C 7.74 g/m*3 11.7 C 0 km/h
815 27-09-2010 18:59:02 11.3 C 7.85 g/m*3 11.3 C 0 km/h
816 27-09-2010 19:11:02 10.8 C 8.01 g/m*3 10.8 C 0 km/h
817 27-09-2010 19:23:02 10.7 C 8.15 g/m*3 10.7 C 0 km/h
818 27-09-2010 19:35:02 10.5 C 8.15 g/m*3 10.5 C 0 km/h
819 27-09-2010 19:47:02 10.5 C 8.15 g/m*3 10.5 C 0 km/h
820 27-09-2010 19:59:02 10.4 C 8.19 g/m*3 10.4 C 0 km/h
821 27-09-2010 20:11:02 10.3 C 8.24 g/m*3 10.3 C 0 km/h
822 27-09-2010 20:23:02 10.3 C 8.33 g/m*3 10.3 C 0 km/h
823 27-09-2010 20:35:02 10.3 C 8.43 g/m*3 10.3 C 0 km/h
824 27-09-2010 20:47:01 10.3 C 8.43 g/m*3 10.3 C 0 km/h
825 27-09-2010 20:59:01 10.3 C 8.52 g/m*3 10.3 C 0 km/h
Sensor: Nr:Datum:Temp:Abs-Feuchte:Windchill:Wind:
Aussen-T/F 826 27-09-2010 21:11:02 10.4 C 8.58 g/m*3 10.4 C 0 km/h
827 27-09-2010 21:23:01 10.2 C 8.47 g/m*3 10.2 C 0 km/h
828 27-09-2010 21:35:02 10.3 C 8.52 g/m*3 10.3 C 0 km/h
829 27-09-2010 21:47:02 10.4 C 8.58 g/m*3 10.4 C 0 km/h
830 27-09-2010 21:59:03 10.4 C 8.58 g/m*3 10.4 C 0 km/h
831 27-09-2010 22:11:02 10.4 C 8.58 g/m*3 10.4 C 0 km/h
832 27-09-2010 22:24:10 10.4 C 8.67 g/m*3 10.4 C 0 km/h
833 27-09-2010 22:36:10 10.2 C 8.56 g/m*3 10.2 C 0 km/h
834 27-09-2010 22:48:10 10.2 C 8.56 g/m*3 10.2 C 0 km/h
835 27-09-2010 23:00:10 10.2 C 8.56 g/m*3 10.2 C 0 km/h
836 27-09-2010 23:12:10 10.2 C 8.66 g/m*3 10.2 C 0 km/h
837 27-09-2010 23:24:10 10.2 C 8.66 g/m*3 10.2 C 0 km/h
838 27-09-2010 23:36:10 10.1 C 8.61 g/m*3 10.1 C 0 km/h
839 27-09-2010 23:48:10 10.1 C 8.7 g/m*3 10.1 C 0 km/h
840 28-09-2010 00:00:10 10.1 C 8.7 g/m*3 10.1 C 0 km/h
841 28-09-2010 00:12:10 10 C 8.64 g/m*3 10 C 0 km/h
842 28-09-2010 00:24:10 10 C 8.64 g/m*3 10 C 0 km/h
843 28-09-2010 00:36:10 10 C 8.64 g/m*3 10 C 0 km/h
844 28-09-2010 00:48:10 9.9 C 8.78 g/m*3 9.9 C 0 km/h
845 28-09-2010 01:00:10 10 C 8.74 g/m*3 10 C 0 km/h
846 28-09-2010 01:12:11 10 C 8.74 g/m*3 10 C 0 km/h
847 28-09-2010 01:24:11 10 C 8.74 g/m*3 10 C 0 km/h
848 28-09-2010 01:36:11 10 C 8.74 g/m*3 10 C 0 km/h
849 28-09-2010 01:48:11 9.9 C 8.78 g/m*3 9.9 C 0 km/h
850 28-09-2010 02:00:11 9.9 C 8.78 g/m*3 9.9 C 0 km/h
Sensor: Nr:Datum:Temp:Abs-Feuchte:Windchill:Wind:
Aussen-T/F 851 28-09-2010 02:12:11 9.9 C 8.78 g/m*3 9.9 C 0 km/h
852 28-09-2010 02:24:11 9.9 C 8.78 g/m*3 9.9 C 0 km/h
853 28-09-2010 02:36:11 9.9 C 8.78 g/m*3 9.9 C 0 km/h
854 28-09-2010 02:48:11 9.9 C 8.78 g/m*3 9.9 C 0 km/h
855 28-09-2010 03:00:11 9.9 C 8.87 g/m*3 9.9 C 0 km/h
856 28-09-2010 03:12:11 9.9 C 8.87 g/m*3 9.9 C 0 km/h
857 28-09-2010 03:24:11 9.9 C 8.87 g/m*3 9.9 C 0 km/h
858 28-09-2010 03:36:12 9.9 C 8.87 g/m*3 9.9 C 0 km/h
859 28-09-2010 03:48:12 9.9 C 8.87 g/m*3 9.9 C 0 km/h
860 28-09-2010 04:00:12 9.9 C 8.87 g/m*3 9.9 C 0 km/h
861 28-09-2010 04:12:12 9.9 C 8.87 g/m*3 9.9 C 0 km/h
862 28-09-2010 04:24:12 9.9 C 8.87 g/m*3 9.9 C 0 km/h
863 28-09-2010 04:36:12 9.9 C 8.87 g/m*3 9.9 C 0 km/h
864 28-09-2010 04:48:12 10 C 8.83 g/m*3 10 C 0 km/h
865 28-09-2010 05:00:12 10 C 8.93 g/m*3 10 C 0 km/h
866 28-09-2010 05:12:12 10 C 8.93 g/m*3 10 C 0 km/h
867 28-09-2010 05:24:12 10 C 8.93 g/m*3 10 C 0 km/h
868 28-09-2010 05:36:12 10 C 8.93 g/m*3 10 C 0 km/h
869 28-09-2010 05:48:12 10 C 8.93 g/m*3 10 C 0 km/h
870 28-09-2010 06:00:12 10.1 C 8.98 g/m*3 10.1 C 0 km/h
871 28-09-2010 06:12:12 10.1 C 8.98 g/m*3 10.1 C 0 km/h
872 28-09-2010 06:24:12 10.1 C 8.98 g/m*3 10.1 C 0 km/h
873 28-09-2010 06:36:12 10.1 C 8.98 g/m*3 10.1 C 0 km/h
874 28-09-2010 06:48:12 10 C 8.93 g/m*3 10 C 0 km/h
875 28-09-2010 07:00:12 10 C 8.93 g/m*3 10 C 0 km/h
Sensor: Nr:Datum:Temp:Abs-Feuchte:Windchill:Wind:
Aussen-T/F 876 28-09-2010 07:12:12 10 C 8.93 g/m*3 10 C 0 km/h
877 28-09-2010 07:24:12 10 C 8.93 g/m*3 10 C 0 km/h
878 28-09-2010 07:36:13 10 C 8.93 g/m*3 10 C 0 km/h
879 28-09-2010 07:48:01 10 C 8.93 g/m*3 10 C 0 km/h
880 28-09-2010 08:00:01 10 C 8.93 g/m*3 10 C 0 km/h
881 28-09-2010 08:12:02 10 C 8.93 g/m*3 10 C 0 km/h
882 28-09-2010 08:24:02 10 C 8.93 g/m*3 10 C 0 km/h
883 28-09-2010 08:36:02 10.1 C 8.98 g/m*3 10.1 C 0 km/h
884 28-09-2010 08:48:03 10.1 C 8.98 g/m*3 10.1 C 0 km/h
885 28-09-2010 09:00:03 10.1 C 8.98 g/m*3 10.1 C 0 km/h
886 28-09-2010 09:12:03 10.2 C 9.04 g/m*3 10.2 C 0 km/h
887 28-09-2010 09:24:02 10.2 C 9.04 g/m*3 10.2 C 0 km/h
888 28-09-2010 09:36:02 10.3 C 9.1 g/m*3 10.3 C 0 km/h
889 28-09-2010 09:48:02 10.4 C 9.16 g/m*3 10.4 C 0 km/h
890 28-09-2010 10:00:02 10.4 C 9.16 g/m*3 10.4 C 0 km/h
891 28-09-2010 10:12:02 10.5 C 9.21 g/m*3 10.5 C 0 km/h
892 28-09-2010 10:24:01 10.5 C 9.21 g/m*3 10.5 C 0 km/h
893 28-09-2010 10:36:02 10.7 C 9.33 g/m*3 10.7 C 0 km/h
894 28-09-2010 10:48:02 10.8 C 9.39 g/m*3 10.8 C 0 km/h
895 28-09-2010 11:00:02 11 C 9.51 g/m*3 11 C 0 km/h
896 28-09-2010 11:12:02 11 C 9.51 g/m*3 11 C 0 km/h
897 28-09-2010 11:24:02 11.2 C 9.63 g/m*3 11.2 C 0 km/h
898 28-09-2010 11:36:02 11.3 C 9.69 g/m*3 11.3 C 0 km/h
899 28-09-2010 11:48:02 11.4 C 9.75 g/m*3 11.4 C 0 km/h
900 28-09-2010 12:00:02 11.4 C 9.75 g/m*3 11.4 C 0 km/h
Sensor: Nr:Datum:Temp:Abs-Feuchte:Windchill:Wind:
Aussen-T/F 901 28-09-2010 12:12:02 11.4 C 9.65 g/m*3 11.4 C 0 km/h
902 28-09-2010 12:24:02 11.4 C 9.65 g/m*3 11.4 C 0 km/h
903 28-09-2010 12:36:02 11.5 C 9.71 g/m*3 11.5 C 0 km/h
904 28-09-2010 12:48:02 11.7 C 9.83 g/m*3 11.7 C 0 km/h
905 28-09-2010 13:00:02 11.6 C 9.67 g/m*3 11.6 C 0 km/h
906 28-09-2010 13:12:02 11.6 C 9.67 g/m*3 11.6 C 0 km/h
907 28-09-2010 13:24:03 11.8 C 9.79 g/m*3 11.8 C 0 km/h
908 28-09-2010 13:36:02 11.8 C 9.68 g/m*3 11.8 C 0 km/h
909 28-09-2010 13:48:03 11.9 C 9.74 g/m*3 11.9 C 0 km/h
910 28-09-2010 14:00:03 11.9 C 9.74 g/m*3 11.9 C 0 km/h
911 28-09-2010 14:12:02 11.8 C 9.68 g/m*3 11.8 C 0 km/h
912 28-09-2010 14:24:02 11.7 C 9.62 g/m*3 11.7 C 0 km/h
913 28-09-2010 14:36:02 11.7 C 9.62 g/m*3 11.7 C 0 km/h
914 28-09-2010 14:48:02 11.7 C 9.62 g/m*3 11.7 C 0 km/h
915 28-09-2010 15:00:02 11.7 C 9.62 g/m*3 11.7 C 0 km/h
916 28-09-2010 15:12:02 11.7 C 9.73 g/m*3 11.7 C 0 km/h
917 28-09-2010 15:24:02 11.7 C 9.73 g/m*3 11.7 C 0 km/h
918 28-09-2010 15:36:02 11.8 C 9.79 g/m*3 11.8 C 0 km/h
919 28-09-2010 15:48:02 11.8 C 9.79 g/m*3 11.8 C 0 km/h
920 28-09-2010 16:00:02 11.8 C 9.79 g/m*3 11.8 C 0 km/h
921 28-09-2010 16:12:01 11.8 C 9.79 g/m*3 11.8 C 0 km/h
922 28-09-2010 16:24:01 11.8 C 9.79 g/m*3 11.8 C 0 km/h
923 28-09-2010 16:36:02 11.9 C 9.96 g/m*3 11.9 C 0 km/h
924 28-09-2010 16:48:02 11.9 C 9.96 g/m*3 11.9 C 0 km/h
925 28-09-2010 17:00:02 11.9 C 9.96 g/m*3 11.9 C 0 km/h
Sensor: Nr:Datum:Temp:Abs-Feuchte:Windchill:Wind:
Aussen-T/F 926 28-09-2010 17:12:02 12 C 10.02 g/m*3 12 C 0 km/h
927 28-09-2010 17:24:02 12 C 10.02 g/m*3 12 C 0 km/h
928 28-09-2010 17:36:02 12 C 10.02 g/m*3 12 C 0 km/h
929 28-09-2010 17:48:02 12 C 10.02 g/m*3 12 C 0 km/h
930 28-09-2010 18:00:02 11.9 C 9.96 g/m*3 11.9 C 0 km/h
931 28-09-2010 18:12:02 11.9 C 9.96 g/m*3 11.9 C 0 km/h
932 28-09-2010 18:24:02 11.9 C 10.06 g/m*3 11.9 C 0 km/h
933 28-09-2010 18:36:02 11.8 C 10 g/m*3 11.8 C 0 km/h
934 28-09-2010 18:48:01 11.8 C 10 g/m*3 11.8 C 0 km/h
935 28-09-2010 19:00:01 11.8 C 10 g/m*3 11.8 C 0 km/h
936 28-09-2010 19:12:02 11.7 C 9.94 g/m*3 11.7 C 0 km/h
937 28-09-2010 19:24:01 11.7 C 9.94 g/m*3 11.7 C 0 km/h
938 28-09-2010 19:36:01 11.7 C 9.94 g/m*3 11.7 C 0 km/h
939 28-09-2010 19:48:01 11.7 C 9.94 g/m*3 11.7 C 0 km/h
940 28-09-2010 20:00:01 11.6 C 9.87 g/m*3 11.6 C 0 km/h
941 28-09-2010 20:12:02 11.6 C 9.87 g/m*3 11.6 C 0 km/h
942 28-09-2010 20:24:02 11.6 C 9.87 g/m*3 11.6 C 0 km/h
943 28-09-2010 20:36:01 11.6 C 9.87 g/m*3 11.6 C 0 km/h
944 28-09-2010 20:48:01 11.6 C 9.87 g/m*3 11.6 C 0 km/h
945 28-09-2010 21:00:01 11.6 C 9.87 g/m*3 11.6 C 0 km/h
946 28-09-2010 21:12:01 11.6 C 9.87 g/m*3 11.6 C 0 km/h
947 28-09-2010 21:24:02 11.6 C 9.87 g/m*3 11.6 C 0 km/h
948 28-09-2010 21:36:01 11.5 C 9.81 g/m*3 11.5 C 0 km/h
949 28-09-2010 21:48:03 11.6 C 9.87 g/m*3 11.6 C 0 km/h
950 28-09-2010 22:00:03 11.6 C 9.87 g/m*3 11.6 C 0 km/h
Sensor: Nr:Datum:Temp:Abs-Feuchte:Windchill:Wind:
Aussen-T/F 951 28-09-2010 22:12:02 11.6 C 9.87 g/m*3 11.6 C 0 km/h
952 28-09-2010 22:24:03 11.6 C 9.87 g/m*3 11.6 C 0 km/h
953 28-09-2010 22:36:02 11.7 C 9.94 g/m*3 11.7 C 0 km/h
954 28-09-2010 22:48:03 11.6 C 9.87 g/m*3 11.6 C 0 km/h
955 28-09-2010 23:00:03 11.6 C 9.87 g/m*3 11.6 C 0 km/h
956 28-09-2010 23:12:02 11.6 C 9.87 g/m*3 11.6 C 0 km/h
957 28-09-2010 23:24:02 11.6 C 9.87 g/m*3 11.6 C 0 km/h
958 28-09-2010 23:36:02 11.6 C 9.87 g/m*3 11.6 C 0 km/h
959 28-09-2010 23:48:02 11.6 C 9.87 g/m*3 11.6 C 0 km/h
960 29-09-2010 00:00:02 11.6 C 9.87 g/m*3 11.6 C 0 km/h
961 29-09-2010 00:12:02 11.7 C 9.94 g/m*3 11.7 C 0 km/h
962 29-09-2010 00:24:02 11.6 C 9.87 g/m*3 11.6 C 0 km/h
963 29-09-2010 00:36:02 11.7 C 9.94 g/m*3 11.7 C 0 km/h
964 29-09-2010 00:48:02 11.6 C 9.87 g/m*3 11.6 C 0 km/h
965 29-09-2010 01:00:02 11.7 C 9.94 g/m*3 11.7 C 0 km/h
966 29-09-2010 01:12:03 11.6 C 9.87 g/m*3 11.6 C 0 km/h
967 29-09-2010 01:24:02 11.6 C 9.87 g/m*3 11.6 C 0 km/h
968 29-09-2010 01:36:02 11.6 C 9.87 g/m*3 11.6 C 0 km/h
969 29-09-2010 01:48:01 11.6 C 9.87 g/m*3 11.6 C 0 km/h
970 29-09-2010 02:00:01 11.6 C 9.87 g/m*3 11.6 C 0 km/h
971 29-09-2010 02:12:02 11.6 C 9.87 g/m*3 11.6 C 0 km/h
972 29-09-2010 02:24:01 11.5 C 9.81 g/m*3 11.5 C 0 km/h
973 29-09-2010 02:36:02 11.5 C 9.81 g/m*3 11.5 C 0 km/h
974 29-09-2010 02:48:01 11.6 C 9.87 g/m*3 11.6 C 0 km/h
975 29-09-2010 03:00:01 11.4 C 9.75 g/m*3 11.4 C 0 km/h
Sensor: Nr:Datum:Temp:Abs-Feuchte:Windchill:Wind:
Aussen-T/F 976 29-09-2010 03:12:01 11.3 C 9.69 g/m*3 11.3 C 0 km/h
977 29-09-2010 03:24:02 11.4 C 9.75 g/m*3 11.4 C 0 km/h
978 29-09-2010 03:36:01 11.7 C 9.94 g/m*3 11.7 C 0 km/h
979 29-09-2010 03:48:01 11.6 C 9.87 g/m*3 11.6 C 0 km/h
980 29-09-2010 04:00:01 11.6 C 9.87 g/m*3 11.6 C 0 km/h
981 29-09-2010 04:12:02 11.6 C 9.87 g/m*3 11.6 C 0 km/h
982 29-09-2010 04:24:01 11.6 C 9.87 g/m*3 11.6 C 0 km/h
983 29-09-2010 04:36:01 11.3 C 9.69 g/m*3 11.3 C 0 km/h
984 29-09-2010 04:48:01 11.3 C 9.69 g/m*3 11.3 C 0 km/h
985 29-09-2010 05:00:01 11.4 C 9.75 g/m*3 11.4 C 0 km/h
986 29-09-2010 05:12:02 11.4 C 9.75 g/m*3 11.4 C 0 km/h
987 29-09-2010 05:24:01 11.4 C 9.75 g/m*3 11.4 C 0 km/h
988 29-09-2010 05:36:01 11.4 C 9.75 g/m*3 11.4 C 0 km/h
989 29-09-2010 05:48:01 11.4 C 9.75 g/m*3 11.4 C 0 km/h
990 29-09-2010 06:00:01 11.7 C 9.94 g/m*3 11.7 C 0 km/h
991 29-09-2010 06:12:01 11.6 C 9.87 g/m*3 11.6 C 0 km/h
992 29-09-2010 06:24:02 11.5 C 9.81 g/m*3 11.5 C 0 km/h
993 29-09-2010 06:36:01 11.5 C 9.81 g/m*3 11.5 C 0 km/h
994 29-09-2010 06:48:02 11.3 C 9.69 g/m*3 11.3 C 0 km/h
995 29-09-2010 07:00:02 11.1 C 9.57 g/m*3 11.1 C 0 km/h
996 29-09-2010 07:12:01 10.8 C 9.39 g/m*3 10.8 C 0 km/h
997 29-09-2010 07:24:02 11 C 9.51 g/m*3 11 C 0 km/h
998 29-09-2010 07:36:01 11.2 C 9.63 g/m*3 11.2 C 0 km/h
999 29-09-2010 07:48:02 11.1 C 9.57 g/m*3 11.1 C 0 km/h
1000 29-09-2010 08:00:02 11 C 9.51 g/m*3 11 C 0 km/h
Sensor: Nr:Datum:Temp:Abs-Feuchte:Windchill:Wind:
Aussen-T/F 1001 29-09-2010 08:12:01 11.2 C 9.63 g/m*3 11.2 C 0 km/h
1002 29-09-2010 08:24:01 11.2 C 9.63 g/m*3 11.2 C 0 km/h
1003 29-09-2010 08:36:01 11.1 C 9.57 g/m*3 11.1 C 0 km/h
1004 29-09-2010 08:48:02 11.4 C 9.75 g/m*3 11.4 C 0 km/h
1005 29-09-2010 09:00:02 11.6 C 9.87 g/m*3 11.6 C 0 km/h
1006 29-09-2010 09:12:01 11.2 C 9.53 g/m*3 11.2 C 0 km/h
1007 29-09-2010 09:24:01 10.8 C 9.19 g/m*3 10.8 C 0 km/h
1008 29-09-2010 09:36:02 11.7 C 9.62 g/m*3 11.7 C 0 km/h
1009 29-09-2010 09:48:01 11.9 C 9.64 g/m*3 11.9 C 0 km/h
1010 29-09-2010 10:00:01 12.1 C 9.22 g/m*3 12.1 C 0 km/h
1011 29-09-2010 10:12:02 12.5 C 8.91 g/m*3 12.5 C 0 km/h
1012 29-09-2010 10:24:01 12.9 C 8.79 g/m*3 12.9 C 0 km/h
1013 29-09-2010 10:36:02 13.4 C 8.95 g/m*3 13.4 C 0 km/h
1014 29-09-2010 10:48:01 13.7 C 9 g/m*3 13.7 C 0 km/h
1015 29-09-2010 11:00:01 13.8 C 8.94 g/m*3 13.8 C 0 km/h
1016 29-09-2010 11:12:02 13.7 C 8.53 g/m*3 13.7 C 0 km/h
1017 29-09-2010 11:24:01 13.8 C 8.46 g/m*3 13.8 C 0 km/h
1018 29-09-2010 11:36:01 14.1 C 8.01 g/m*3 14.1 C 0 km/h
1019 29-09-2010 11:48:01 14.4 C 8.16 g/m*3 14.4 C 0 km/h
1020 29-09-2010 12:00:01 14.5 C 8.21 g/m*3 14.5 C 0 km/h
1021 29-09-2010 12:12:01 14.6 C 8.01 g/m*3 14.6 C 0 km/h
1022 29-09-2010 12:24:01 14.1 C 7.52 g/m*3 14.1 C 0 km/h
1023 29-09-2010 12:36:01 14 C 8.08 g/m*3 14 C 0 km/h
1024 29-09-2010 12:48:01 14.8 C 8.36 g/m*3 14.8 C 0 km/h
1025 29-09-2010 13:00:01 15.4 C 8.15 g/m*3 15.4 C 0 km/h
Sensor: Nr:Datum:Temp:Abs-Feuchte:Windchill:Wind:
Aussen-T/F 1026 29-09-2010 13:12:01 15.7 C 7.89 g/m*3 15.7 C 0 km/h
1027 29-09-2010 13:24:02 15.8 C 7.81 g/m*3 15.8 C 0 km/h
1028 29-09-2010 13:36:01 15.9 C 7.99 g/m*3 15.9 C 0 km/h
1029 29-09-2010 13:48:02 15.9 C 7.58 g/m*3 15.9 C 0 km/h
1030 29-09-2010 14:00:02 16.3 C 7.35 g/m*3 16.3 C 0 km/h
1031 29-09-2010 14:12:01 15.6 C 7.58 g/m*3 15.6 C 0 km/h
1032 29-09-2010 14:24:02 15.8 C 7.94 g/m*3 15.8 C 0 km/h
1033 29-09-2010 14:36:01 17.4 C 7.85 g/m*3 17.4 C 0 km/h
1034 29-09-2010 14:48:02 19 C 7.33 g/m*3 19 C 0 km/h
1035 29-09-2010 15:00:02 18.8 C 6.76 g/m*3 18.8 C 0 km/h
1036 29-09-2010 15:12:01 18.8 C 6.93 g/m*3 18.8 C 0 km/h
1037 29-09-2010 15:24:01 18.9 C 6.97 g/m*3 18.9 C 0 km/h
1038 29-09-2010 15:36:02 19.6 C 6.92 g/m*3 19.6 C 0 km/h
1039 29-09-2010 15:48:01 19.7 C 6.79 g/m*3 19.7 C 0 km/h
1040 29-09-2010 16:00:02 18.8 C 7.41 g/m*3 18.8 C 0 km/h
1041 29-09-2010 16:12:01 18.1 C 7.26 g/m*3 18.1 C 0 km/h
1042 29-09-2010 16:24:01 18.1 C 7.57 g/m*3 18.1 C 0 km/h
1043 29-09-2010 16:36:02 17.6 C 7.95 g/m*3 17.6 C 0 km/h
1044 29-09-2010 16:48:01 18.1 C 7.88 g/m*3 18.1 C 0 km/h
1045 29-09-2010 17:00:02 19 C 7.33 g/m*3 19 C 0 km/h
1046 29-09-2010 17:12:01 19.4 C 7.01 g/m*3 19.4 C 0 km/h
1047 29-09-2010 17:24:01 18.6 C 7.16 g/m*3 18.6 C 0 km/h
1048 29-09-2010 17:36:02 17.6 C 7.95 g/m*3 17.6 C 0 km/h
1049 29-09-2010 17:48:01 16.9 C 8.05 g/m*3 16.9 C 0 km/h
1050 29-09-2010 18:00:01 15.9 C 7.58 g/m*3 15.9 C 0 km/h
Sensor: Nr:Datum:Temp:Abs-Feuchte:Windchill:Wind:
Aussen-T/F 1051 29-09-2010 18:12:04 15.2 C 7.92 g/m*3 15.2 C 0 km/h
1052 29-09-2010 18:24:02 14.4 C 7.91 g/m*3 14.4 C 0 km/h
1053 29-09-2010 18:36:02 14 C 7.84 g/m*3 14 C 0 km/h
1054 29-09-2010 18:48:01 13.6 C 7.89 g/m*3 13.6 C 0 km/h
1055 29-09-2010 19:00:01 13.2 C 7.81 g/m*3 13.2 C 0 km/h
1056 29-09-2010 19:12:01 13.1 C 7.76 g/m*3 13.1 C 0 km/h
1057 29-09-2010 19:24:01 13 C 7.71 g/m*3 13 C 0 km/h
1058 29-09-2010 19:36:02 13 C 7.6 g/m*3 13 C 0 km/h
1059 29-09-2010 19:48:01 13.1 C 7.53 g/m*3 13.1 C 0 km/h
1060 29-09-2010 20:00:01 13.3 C 7.63 g/m*3 13.3 C 0 km/h
1061 29-09-2010 20:12:02 13.2 C 7.81 g/m*3 13.2 C 0 km/h
1062 29-09-2010 20:24:01 13.2 C 7.81 g/m*3 13.2 C 0 km/h
1063 29-09-2010 20:36:02 13 C 7.6 g/m*3 13 C 0 km/h
1064 29-09-2010 20:48:01 12.9 C 7.66 g/m*3 12.9 C 0 km/h
1065 29-09-2010 21:00:01 12.9 C 7.66 g/m*3 12.9 C 0 km/h
1066 29-09-2010 21:12:02 12.8 C 7.84 g/m*3 12.8 C 0 km/h
1067 29-09-2010 21:24:01 12.4 C 7.98 g/m*3 12.4 C 0 km/h
1068 29-09-2010 21:38:05 12.2 C 8.09 g/m*3 12.2 C 0 km/h
1069 29-09-2010 21:50:05 12.2 C 8.09 g/m*3 12.2 C 0 km/h
1070 29-09-2010 22:02:05 12.3 C 8.25 g/m*3 12.3 C 0 km/h
1071 29-09-2010 22:14:05 12.4 C 8.3 g/m*3 12.4 C 0 km/h
1072 29-09-2010 22:26:05 12.4 C 8.41 g/m*3 12.4 C 0 km/h
1073 29-09-2010 22:38:06 12.5 C 8.47 g/m*3 12.5 C 0 km/h
1074 29-09-2010 22:50:06 12.3 C 8.36 g/m*3 12.3 C 0 km/h
1075 29-09-2010 23:02:06 12 C 8.21 g/m*3 12 C 0 km/h
Sensor: Nr:Datum:Temp:Abs-Feuchte:Windchill:Wind:
Aussen-T/F 1076 29-09-2010 23:14:06 11.8 C 8.31 g/m*3 11.8 C 0 km/h
1077 29-09-2010 23:26:06 11.8 C 8.42 g/m*3 11.8 C 0 km/h
1078 29-09-2010 23:38:06 12 C 8.31 g/m*3 12 C 0 km/h
1079 29-09-2010 23:50:06 12.2 C 8.42 g/m*3 12.2 C 0 km/h
1080 30-09-2010 00:02:06 12.4 C 8.52 g/m*3 12.4 C 0 km/h
1081 30-09-2010 00:14:06 12.3 C 8.47 g/m*3 12.3 C 0 km/h
1082 30-09-2010 00:26:06 12.1 C 8.36 g/m*3 12.1 C 0 km/h
1083 30-09-2010 00:38:06 12.1 C 8.47 g/m*3 12.1 C 0 km/h
1084 30-09-2010 00:50:06 11.9 C 8.37 g/m*3 11.9 C 0 km/h
1085 30-09-2010 01:02:06 11.7 C 8.37 g/m*3 11.7 C 0 km/h
1086 30-09-2010 01:14:06 11.8 C 7.89 g/m*3 11.8 C 0 km/h
1087 30-09-2010 01:26:06 11.8 C 7.79 g/m*3 11.8 C 0 km/h
1088 30-09-2010 01:38:06 12 C 7.46 g/m*3 12 C 0 km/h
1089 30-09-2010 01:50:06 12 C 7.25 g/m*3 12 C 0 km/h
1090 30-09-2010 02:02:06 12.1 C 7.4 g/m*3 12.1 C 0 km/h
1091 30-09-2010 02:14:06 11.5 C 7.54 g/m*3 11.5 C 0 km/h
1092 30-09-2010 02:26:06 11.4 C 7.7 g/m*3 11.4 C 0 km/h
1093 30-09-2010 02:38:06 11.1 C 7.66 g/m*3 11.1 C 0 km/h
1094 30-09-2010 02:50:07 11.2 C 7.8 g/m*3 11.2 C 0 km/h
1095 30-09-2010 03:02:07 11.3 C 7.85 g/m*3 11.3 C 0 km/h
1096 30-09-2010 03:14:07 11.2 C 7.91 g/m*3 11.2 C 0 km/h
1097 30-09-2010 03:26:07 11 C 7.81 g/m*3 11 C 0 km/h
1098 30-09-2010 03:38:07 11.1 C 7.86 g/m*3 11.1 C 0 km/h
1099 30-09-2010 03:50:07 11.2 C 7.91 g/m*3 11.2 C 0 km/h
1100 30-09-2010 04:02:07 11.3 C 7.96 g/m*3 11.3 C 0 km/h
Sensor: Nr:Datum:Temp:Abs-Feuchte:Windchill:Wind:
Aussen-T/F 1101 30-09-2010 04:14:07 11.2 C 7.91 g/m*3 11.2 C 0 km/h
1102 30-09-2010 04:26:07 11 C 7.81 g/m*3 11 C 0 km/h
1103 30-09-2010 04:38:07 10.8 C 7.81 g/m*3 10.8 C 0 km/h
1104 30-09-2010 04:50:07 10.8 C 7.91 g/m*3 10.8 C 0 km/h
1105 30-09-2010 05:02:07 10.8 C 7.91 g/m*3 10.8 C 0 km/h
1106 30-09-2010 05:14:07 10.8 C 7.91 g/m*3 10.8 C 0 km/h
1107 30-09-2010 05:26:07 10.8 C 7.81 g/m*3 10.8 C 0 km/h
1108 30-09-2010 05:38:07 10.7 C 7.76 g/m*3 10.7 C 0 km/h
1109 30-09-2010 05:50:07 10.7 C 7.56 g/m*3 10.7 C 0 km/h
1110 30-09-2010 06:02:07 10.8 C 7.31 g/m*3 10.8 C 0 km/h
1111 30-09-2010 06:14:07 10.8 C 7.31 g/m*3 10.8 C 0 km/h
1112 30-09-2010 06:26:07 10.7 C 7.27 g/m*3 10.7 C 0 km/h
1113 30-09-2010 06:38:05 10.6 C 7.32 g/m*3 10.6 C 0 km/h
1114 30-09-2010 06:50:02 10.6 C 7.42 g/m*3 10.6 C 0 km/h
1115 30-09-2010 07:02:02 10.7 C 7.56 g/m*3 10.7 C 0 km/h
1116 30-09-2010 07:14:02 10.7 C 7.66 g/m*3 10.7 C 0 km/h
1117 30-09-2010 07:26:02 10.6 C 7.61 g/m*3 10.6 C 0 km/h
1118 30-09-2010 07:38:02 10.6 C 7.71 g/m*3 10.6 C 0 km/h
1119 30-09-2010 07:50:01 10.7 C 7.76 g/m*3 10.7 C 0 km/h
1120 30-09-2010 08:02:01 10.7 C 7.66 g/m*3 10.7 C 0 km/h
1121 30-09-2010 08:14:02 10.9 C 7.76 g/m*3 10.9 C 0 km/h
1122 30-09-2010 08:26:01 10.9 C 7.76 g/m*3 10.9 C 0 km/h
1123 30-09-2010 08:38:01 11 C 7.81 g/m*3 11 C 0 km/h
1124 30-09-2010 08:50:01 11 C 7.81 g/m*3 11 C 0 km/h
1125 30-09-2010 09:02:01 11.2 C 7.91 g/m*3 11.2 C 0 km/h
Sensor: Nr:Datum:Temp:Abs-Feuchte:Windchill:Wind:
Aussen-T/F 1126 30-09-2010 09:14:01 11.4 C 8.01 g/m*3 11.4 C 0 km/h
1127 30-09-2010 09:26:01 11.4 C 7.8 g/m*3 11.4 C 0 km/h
1128 30-09-2010 09:38:01 11.5 C 7.75 g/m*3 11.5 C 0 km/h
1129 30-09-2010 09:50:02 11.5 C 7.85 g/m*3 11.5 C 0 km/h
1130 30-09-2010 10:02:02 11.4 C 8.01 g/m*3 11.4 C 0 km/h
1131 30-09-2010 10:14:02 11.4 C 8.11 g/m*3 11.4 C 0 km/h
1132 30-09-2010 10:26:03 11.7 C 8.37 g/m*3 11.7 C 0 km/h
1133 30-09-2010 10:38:02 11.8 C 8.42 g/m*3 11.8 C 0 km/h
1134 30-09-2010 10:50:02 11.9 C 8.47 g/m*3 11.9 C 0 km/h
1135 30-09-2010 11:02:02 12 C 8.42 g/m*3 12 C 0 km/h
1136 30-09-2010 11:14:02 12 C 8.42 g/m*3 12 C 0 km/h
1137 30-09-2010 11:26:02 11.8 C 8.42 g/m*3 11.8 C 0 km/h
1138 30-09-2010 11:38:01 11.7 C 8.47 g/m*3 11.7 C 0 km/h
1139 30-09-2010 11:50:02 11.8 C 8.63 g/m*3 11.8 C 0 km/h
1140 30-09-2010 12:02:01 11.9 C 8.79 g/m*3 11.9 C 0 km/h
1141 30-09-2010 12:14:01 11.9 C 8.9 g/m*3 11.9 C 0 km/h
1142 30-09-2010 12:26:02 12 C 8.95 g/m*3 12 C 0 km/h
1143 30-09-2010 12:38:02 12.1 C 9.01 g/m*3 12.1 C 0 km/h
1144 30-09-2010 12:50:02 12 C 9.06 g/m*3 12 C 0 km/h
1145 30-09-2010 13:02:02 12.4 C 9.4 g/m*3 12.4 C 0 km/h
1146 30-09-2010 13:14:02 12.6 C 9.51 g/m*3 12.6 C 0 km/h
1147 30-09-2010 13:26:02 12.6 C 9.51 g/m*3 12.6 C 0 km/h
1148 30-09-2010 13:38:02 12.6 C 9.62 g/m*3 12.6 C 0 km/h
1149 30-09-2010 13:50:01 12.7 C 9.68 g/m*3 12.7 C 0 km/h
1150 30-09-2010 14:02:02 12.9 C 9.81 g/m*3 12.9 C 0 km/h
Sensor: Nr:Datum:Temp:Abs-Feuchte:Windchill:Wind:
Aussen-T/F 1151 30-09-2010 14:14:02 13 C 9.87 g/m*3 13 C 0 km/h
1152 30-09-2010 14:26:01 12.8 C 9.86 g/m*3 12.8 C 0 km/h
1153 30-09-2010 14:38:01 12.9 C 9.92 g/m*3 12.9 C 0 km/h
1154 30-09-2010 14:50:01 13.1 C 10.04 g/m*3 13.1 C 0 km/h
1155 30-09-2010 15:02:02 13.2 C 10.1 g/m*3 13.2 C 0 km/h
1156 30-09-2010 15:14:03 13.2 C 10.1 g/m*3 13.2 C 0 km/h
1157 30-09-2010 15:26:01 13.4 C 10.23 g/m*3 13.4 C 0 km/h
1158 30-09-2010 15:38:01 13.3 C 10.17 g/m*3 13.3 C 0 km/h
1159 30-09-2010 15:50:01 13.2 C 9.99 g/m*3 13.2 C 0 km/h
1160 30-09-2010 16:02:01 13.5 C 10.29 g/m*3 13.5 C 0 km/h
1161 30-09-2010 16:14:01 13.5 C 10.29 g/m*3 13.5 C 0 km/h
1162 30-09-2010 16:26:02 13.6 C 10.24 g/m*3 13.6 C 0 km/h
1163 30-09-2010 16:38:01 13.3 C 10.05 g/m*3 13.3 C 0 km/h
1164 30-09-2010 16:50:03 13.1 C 9.93 g/m*3 13.1 C 0 km/h
1165 30-09-2010 17:02:02 13.1 C 9.93 g/m*3 13.1 C 0 km/h
1166 30-09-2010 17:14:02 13 C 9.98 g/m*3 13 C 0 km/h
1167 30-09-2010 17:26:02 13 C 9.98 g/m*3 13 C 0 km/h
1168 30-09-2010 17:38:02 12.9 C 10.03 g/m*3 12.9 C 0 km/h
1169 30-09-2010 17:50:02 12.8 C 9.97 g/m*3 12.8 C 0 km/h
1170 30-09-2010 18:02:02 12.7 C 9.91 g/m*3 12.7 C 0 km/h
1171 30-09-2010 18:14:02 12.5 C 9.78 g/m*3 12.5 C 0 km/h
1172 30-09-2010 18:26:02 12.5 C 9.78 g/m*3 12.5 C 0 km/h
1173 30-09-2010 18:38:02 12.4 C 9.83 g/m*3 12.4 C 0 km/h
1174 30-09-2010 18:50:01 12.3 C 9.77 g/m*3 12.3 C 0 km/h
1175 30-09-2010 19:02:02 12.2 C 9.71 g/m*3 12.2 C 0 km/h
Sensor: Nr:Datum:Temp:Abs-Feuchte:Windchill:Wind:
Aussen-T/F 1176 30-09-2010 19:14:02 12.1 C 9.76 g/m*3 12.1 C 0 km/h
1177 30-09-2010 19:26:02 12.1 C 9.76 g/m*3 12.1 C 0 km/h
1178 30-09-2010 19:38:02 12.2 C 9.82 g/m*3 12.2 C 0 km/h
1179 30-09-2010 19:50:02 12.1 C 9.87 g/m*3 12.1 C 0 km/h
1180 30-09-2010 20:02:02 12.2 C 9.93 g/m*3 12.2 C 0 km/h
1181 30-09-2010 20:14:02 12.2 C 9.93 g/m*3 12.2 C 0 km/h
1182 30-09-2010 20:26:02 12.1 C 9.87 g/m*3 12.1 C 0 km/h
1183 30-09-2010 20:38:01 12.1 C 9.87 g/m*3 12.1 C 0 km/h
1184 30-09-2010 20:50:02 12.2 C 10.04 g/m*3 12.2 C 0 km/h
1185 30-09-2010 21:02:01 12.1 C 9.97 g/m*3 12.1 C 0 km/h
1186 30-09-2010 21:14:01 12.1 C 9.97 g/m*3 12.1 C 0 km/h
1187 30-09-2010 21:26:02 12.1 C 9.97 g/m*3 12.1 C 0 km/h
1188 30-09-2010 21:38:01 12.1 C 9.97 g/m*3 12.1 C 0 km/h
1189 30-09-2010 21:50:02 12 C 9.91 g/m*3 12 C 0 km/h
1190 30-09-2010 22:02:02 12 C 9.91 g/m*3 12 C 0 km/h
1191 30-09-2010 22:14:02 12 C 9.91 g/m*3 12 C 0 km/h
1192 30-09-2010 22:26:02 11.9 C 9.96 g/m*3 11.9 C 0 km/h
1193 30-09-2010 22:38:02 11.9 C 9.96 g/m*3 11.9 C 0 km/h
1194 30-09-2010 22:50:01 12 C 9.91 g/m*3 12 C 0 km/h
1195 30-09-2010 23:03:03 12 C 9.91 g/m*3 12 C 0 km/h
1196 30-09-2010 23:15:03 11.9 C 9.96 g/m*3 11.9 C 0 km/h
1197 30-09-2010 23:27:03 12 C 10.02 g/m*3 12 C 0 km/h
1198 30-09-2010 23:39:03 12.1 C 10.08 g/m*3 12.1 C 0 km/h
1199 30-09-2010 23:51:03 12 C 10.02 g/m*3 12 C 0 km/h
1200 01-10-2010 00:03:03 12.1 C 10.08 g/m*3 12.1 C 0 km/h
Sensor: Nr:Datum:Temp:Abs-Feuchte:Windchill:Wind:
Aussen-T/F 1201 01-10-2010 00:15:03 12 C 10.02 g/m*3 12 C 0 km/h
1202 01-10-2010 00:27:03 12.1 C 10.08 g/m*3 12.1 C 0 km/h
1203 01-10-2010 00:39:03 12.1 C 10.08 g/m*3 12.1 C 0 km/h
1204 01-10-2010 00:51:03 11.8 C 10 g/m*3 11.8 C 0 km/h
1205 01-10-2010 01:03:03 11.6 C 9.87 g/m*3 11.6 C 0 km/h
1206 01-10-2010 01:15:04 11.7 C 9.94 g/m*3 11.7 C 0 km/h
1207 01-10-2010 01:27:04 11.6 C 9.87 g/m*3 11.6 C 0 km/h
1208 01-10-2010 01:39:04 11.5 C 9.81 g/m*3 11.5 C 0 km/h
1209 01-10-2010 01:51:04 11.5 C 9.81 g/m*3 11.5 C 0 km/h
1210 01-10-2010 02:03:04 11.5 C 9.81 g/m*3 11.5 C 0 km/h
1211 01-10-2010 02:15:04 11.4 C 9.75 g/m*3 11.4 C 0 km/h
1212 01-10-2010 02:27:04 11.4 C 9.75 g/m*3 11.4 C 0 km/h
1213 01-10-2010 02:39:04 11.4 C 9.75 g/m*3 11.4 C 0 km/h
1214 01-10-2010 02:51:04 11.5 C 9.81 g/m*3 11.5 C 0 km/h
1215 01-10-2010 03:03:04 11.5 C 9.81 g/m*3 11.5 C 0 km/h
1216 01-10-2010 03:15:04 11.5 C 9.81 g/m*3 11.5 C 0 km/h
1217 01-10-2010 03:27:04 11.5 C 9.81 g/m*3 11.5 C 0 km/h
1218 01-10-2010 03:39:04 11.5 C 9.81 g/m*3 11.5 C 0 km/h
1219 01-10-2010 03:51:04 11.8 C 10 g/m*3 11.8 C 0 km/h
1220 01-10-2010 04:03:04 11.7 C 9.94 g/m*3 11.7 C 0 km/h
1221 01-10-2010 04:15:04 11.7 C 9.94 g/m*3 11.7 C 0 km/h
1222 01-10-2010 04:27:04 11.7 C 9.94 g/m*3 11.7 C 0 km/h
1223 01-10-2010 04:39:04 11.7 C 9.94 g/m*3 11.7 C 0 km/h
1224 01-10-2010 04:51:04 11.7 C 9.94 g/m*3 11.7 C 0 km/h
1225 01-10-2010 05:03:04 11.7 C 9.94 g/m*3 11.7 C 0 km/h
Sensor: Nr:Datum:Temp:Abs-Feuchte:Windchill:Wind:
Aussen-T/F 1226 01-10-2010 05:15:04 11.7 C 9.94 g/m*3 11.7 C 0 km/h
1227 01-10-2010 05:27:04 11.7 C 9.94 g/m*3 11.7 C 0 km/h
1228 01-10-2010 05:39:04 11.5 C 9.81 g/m*3 11.5 C 0 km/h
1229 01-10-2010 05:51:05 11.5 C 9.81 g/m*3 11.5 C 0 km/h
1230 01-10-2010 06:03:05 11.4 C 9.75 g/m*3 11.4 C 0 km/h
1231 01-10-2010 06:15:05 11.4 C 9.75 g/m*3 11.4 C 0 km/h
1232 01-10-2010 06:27:05 11.4 C 9.75 g/m*3 11.4 C 0 km/h
1233 01-10-2010 06:39:05 11.4 C 9.75 g/m*3 11.4 C 0 km/h
1234 01-10-2010 06:51:05 11.4 C 9.75 g/m*3 11.4 C 0 km/h
1235 01-10-2010 07:03:05 11.3 C 9.69 g/m*3 11.3 C 0 km/h
1236 01-10-2010 07:15:02 11.3 C 9.69 g/m*3 11.3 C 0 km/h
1237 01-10-2010 07:27:02 11 C 9.51 g/m*3 11 C 0 km/h
1238 01-10-2010 07:39:02 10.8 C 9.39 g/m*3 10.8 C 0 km/h
1239 01-10-2010 07:51:02 10.6 C 9.27 g/m*3 10.6 C 0 km/h
1240 01-10-2010 08:03:02 10.4 C 9.16 g/m*3 10.4 C 0 km/h
1241 01-10-2010 08:15:02 10.3 C 9.1 g/m*3 10.3 C 0 km/h
1242 01-10-2010 08:27:02 10.2 C 9.04 g/m*3 10.2 C 0 km/h
1243 01-10-2010 08:39:02 10.2 C 9.04 g/m*3 10.2 C 0 km/h
1244 01-10-2010 08:51:02 10.4 C 9.16 g/m*3 10.4 C 0 km/h
1245 01-10-2010 09:03:02 10.7 C 9.33 g/m*3 10.7 C 0 km/h
1246 01-10-2010 09:15:01 11.1 C 9.57 g/m*3 11.1 C 0 km/h
1247 01-10-2010 09:27:01 11.3 C 9.69 g/m*3 11.3 C 0 km/h
1248 01-10-2010 09:39:02 11.4 C 9.75 g/m*3 11.4 C 0 km/h
1249 01-10-2010 09:51:02 11.7 C 9.94 g/m*3 11.7 C 0 km/h
1250 01-10-2010 10:03:02 11.7 C 9.94 g/m*3 11.7 C 0 km/h
Sensor: Nr:Datum:Temp:Abs-Feuchte:Windchill:Wind:
Aussen-T/F 1251 01-10-2010 10:15:02 11.7 C 9.83 g/m*3 11.7 C 0 km/h
1252 01-10-2010 10:27:02 11.6 C 9.56 g/m*3 11.6 C 0 km/h
1253 01-10-2010 10:39:02 11.7 C 9.52 g/m*3 11.7 C 0 km/h
1254 01-10-2010 10:51:02 11.9 C 9.32 g/m*3 11.9 C 0 km/h
1255 01-10-2010 11:03:02 12.1 C 9.12 g/m*3 12.1 C 0 km/h
1256 01-10-2010 11:15:02 12.2 C 8.85 g/m*3 12.2 C 0 km/h
1257 01-10-2010 11:27:02 12.5 C 8.91 g/m*3 12.5 C 0 km/h
1258 01-10-2010 11:39:02 12.5 C 8.69 g/m*3 12.5 C 0 km/h
1259 01-10-2010 11:51:02 13 C 8.62 g/m*3 13 C 0 km/h
1260 01-10-2010 12:03:02 12.8 C 8.51 g/m*3 12.8 C 0 km/h
1261 01-10-2010 12:15:02 12.8 C 8.62 g/m*3 12.8 C 0 km/h
1262 01-10-2010 12:27:02 12.7 C 8.46 g/m*3 12.7 C 0 km/h
1263 01-10-2010 12:39:02 12.4 C 8.41 g/m*3 12.4 C 0 km/h
1264 01-10-2010 12:51:02 12.7 C 8.46 g/m*3 12.7 C 0 km/h
1265 01-10-2010 13:03:01 12.8 C 8.4 g/m*3 12.8 C 0 km/h
1266 01-10-2010 13:15:02 13.3 C 8.32 g/m*3 13.3 C 0 km/h
1267 01-10-2010 13:27:02 13.4 C 8.14 g/m*3 13.4 C 0 km/h
1268 01-10-2010 13:39:01 13.1 C 7.76 g/m*3 13.1 C 0 km/h
1269 01-10-2010 13:51:02 13.3 C 7.97 g/m*3 13.3 C 0 km/h
1270 01-10-2010 14:03:01 13.1 C 7.87 g/m*3 13.1 C 0 km/h
1271 01-10-2010 14:15:01 13.2 C 8.04 g/m*3 13.2 C 0 km/h
1272 01-10-2010 14:27:01 13.3 C 7.86 g/m*3 13.3 C 0 km/h
1273 01-10-2010 14:39:02 13.2 C 7.92 g/m*3 13.2 C 0 km/h
1274 01-10-2010 14:51:02 13.8 C 7.98 g/m*3 13.8 C 0 km/h
1275 01-10-2010 15:03:02 14.4 C 7.91 g/m*3 14.4 C 0 km/h
Sensor: Nr:Datum:Temp:Abs-Feuchte:Windchill:Wind:
Aussen-T/F 1276 01-10-2010 15:15:02 15.2 C 7.92 g/m*3 15.2 C 0 km/h
1277 01-10-2010 15:27:02 15.3 C 7.7 g/m*3 15.3 C 0 km/h
1278 01-10-2010 15:39:02 15.7 C 7.76 g/m*3 15.7 C 0 km/h
1279 01-10-2010 15:51:02 15.9 C 7.58 g/m*3 15.9 C 0 km/h
1280 01-10-2010 16:03:02 16 C 7.49 g/m*3 16 C 0 km/h
1281 01-10-2010 16:15:02 16.2 C 7.17 g/m*3 16.2 C 0 km/h
1282 01-10-2010 16:27:02 17.1 C 7.42 g/m*3 17.1 C 0 km/h
1283 01-10-2010 16:39:02 17.2 C 7.91 g/m*3 17.2 C 0 km/h
1284 01-10-2010 16:51:02 17.2 C 8.05 g/m*3 17.2 C 0 km/h
1285 01-10-2010 17:03:02 17.5 C 7.9 g/m*3 17.5 C 0 km/h
1286 01-10-2010 17:15:02 16.6 C 8.19 g/m*3 16.6 C 0 km/h
1287 01-10-2010 17:27:02 16 C 8.31 g/m*3 16 C 0 km/h
1288 01-10-2010 17:39:02 15.4 C 8.54 g/m*3 15.4 C 0 km/h
1289 01-10-2010 17:51:02 15.2 C 8.7 g/m*3 15.2 C 0 km/h
1290 01-10-2010 18:03:02 14.8 C 8.74 g/m*3 14.8 C 0 km/h
1291 01-10-2010 18:15:02 14.7 C 8.94 g/m*3 14.7 C 0 km/h
1292 01-10-2010 18:27:02 14.5 C 8.83 g/m*3 14.5 C 0 km/h
1293 01-10-2010 18:39:01 14.1 C 8.74 g/m*3 14.1 C 0 km/h
1294 01-10-2010 18:51:02 13.6 C 8.71 g/m*3 13.6 C 0 km/h
1295 01-10-2010 19:03:01 12.8 C 8.62 g/m*3 12.8 C 0 km/h
1296 01-10-2010 19:15:02 12.5 C 8.58 g/m*3 12.5 C 0 km/h
1297 01-10-2010 19:27:02 12.2 C 8.52 g/m*3 12.2 C 0 km/h
1298 01-10-2010 19:39:02 11.8 C 8.53 g/m*3 11.8 C 0 km/h
1299 01-10-2010 19:51:02 11.6 C 8.52 g/m*3 11.6 C 0 km/h
1300 01-10-2010 20:03:02 11.4 C 8.42 g/m*3 11.4 C 0 km/h
Sensor: Nr:Datum:Temp:Abs-Feuchte:Windchill:Wind:
Aussen-T/F 1301 01-10-2010 20:15:02 11.3 C 8.47 g/m*3 11.3 C 0 km/h
1302 01-10-2010 20:27:02 11.2 C 8.51 g/m*3 11.2 C 0 km/h
1303 01-10-2010 20:39:02 11.2 C 8.51 g/m*3 11.2 C 0 km/h
1304 01-10-2010 20:51:01 11.2 C 8.62 g/m*3 11.2 C 0 km/h
1305 01-10-2010 21:03:02 11.1 C 8.56 g/m*3 11.1 C 0 km/h
1306 01-10-2010 21:15:01 11 C 8.51 g/m*3 11 C 0 km/h
1307 01-10-2010 21:27:01 10.8 C 8.5 g/m*3 10.8 C 0 km/h
1308 01-10-2010 21:39:01 10.7 C 8.55 g/m*3 10.7 C 0 km/h
1309 01-10-2010 21:51:01 10.7 C 8.55 g/m*3 10.7 C 0 km/h
1310 01-10-2010 22:03:02 10.8 C 8.7 g/m*3 10.8 C 0 km/h
1311 01-10-2010 22:15:02 10.9 C 8.75 g/m*3 10.9 C 0 km/h
1312 01-10-2010 22:27:02 11 C 8.81 g/m*3 11 C 0 km/h
1313 01-10-2010 22:39:01 11.1 C 8.76 g/m*3 11.1 C 0 km/h
1314 01-10-2010 22:52:04 11.1 C 8.76 g/m*3 11.1 C 0 km/h
1315 01-10-2010 23:04:04 11.1 C 8.76 g/m*3 11.1 C 0 km/h
1316 01-10-2010 23:16:04 11.1 C 8.76 g/m*3 11.1 C 0 km/h
1317 01-10-2010 23:28:04 11 C 8.71 g/m*3 11 C 0 km/h
1318 01-10-2010 23:40:04 11 C 8.71 g/m*3 11 C 0 km/h
1319 01-10-2010 23:52:04 11.1 C 8.76 g/m*3 11.1 C 0 km/h
1320 02-10-2010 00:04:04 11.2 C 8.82 g/m*3 11.2 C 0 km/h
1321 02-10-2010 00:16:04 11.2 C 8.72 g/m*3 11.2 C 0 km/h
1322 02-10-2010 00:28:04 11.2 C 8.72 g/m*3 11.2 C 0 km/h
1323 02-10-2010 00:40:04 11.1 C 8.66 g/m*3 11.1 C 0 km/h
1324 02-10-2010 00:52:04 10.9 C 8.65 g/m*3 10.9 C 0 km/h
1325 02-10-2010 01:04:04 10.9 C 8.65 g/m*3 10.9 C 0 km/h
Sensor: Nr:Datum:Temp:Abs-Feuchte:Windchill:Wind:
Aussen-T/F 1326 02-10-2010 01:16:04 11 C 8.71 g/m*3 11 C 0 km/h
1327 02-10-2010 01:28:05 10.9 C 8.75 g/m*3 10.9 C 0 km/h
1328 02-10-2010 01:40:05 11 C 8.81 g/m*3 11 C 0 km/h
1329 02-10-2010 01:52:05 10.8 C 8.8 g/m*3 10.8 C 0 km/h
1330 02-10-2010 02:04:05 10.8 C 8.8 g/m*3 10.8 C 0 km/h
1331 02-10-2010 02:16:05 10.8 C 8.9 g/m*3 10.8 C 0 km/h
1332 02-10-2010 02:28:05 11 C 9.01 g/m*3 11 C 0 km/h
1333 02-10-2010 02:40:05 11.1 C 9.07 g/m*3 11.1 C 0 km/h
1334 02-10-2010 02:52:05 11.1 C 9.07 g/m*3 11.1 C 0 km/h
1335 02-10-2010 03:04:05 11.1 C 9.07 g/m*3 11.1 C 0 km/h
1336 02-10-2010 03:16:05 11.1 C 9.17 g/m*3 11.1 C 0 km/h
1337 02-10-2010 03:28:05 11.1 C 9.17 g/m*3 11.1 C 0 km/h
1338 02-10-2010 03:40:05 11.1 C 9.17 g/m*3 11.1 C 0 km/h
1339 02-10-2010 03:52:05 11.1 C 9.17 g/m*3 11.1 C 0 km/h
1340 02-10-2010 04:04:05 11.1 C 9.27 g/m*3 11.1 C 0 km/h
1341 02-10-2010 04:16:05 11.1 C 9.27 g/m*3 11.1 C 0 km/h
1342 02-10-2010 04:28:05 11.1 C 9.27 g/m*3 11.1 C 0 km/h
1343 02-10-2010 04:40:05 11.1 C 9.27 g/m*3 11.1 C 0 km/h
1344 02-10-2010 04:52:05 11 C 9.21 g/m*3 11 C 0 km/h
1345 02-10-2010 05:04:05 11 C 9.21 g/m*3 11 C 0 km/h
1346 02-10-2010 05:16:05 11 C 9.31 g/m*3 11 C 0 km/h
1347 02-10-2010 05:28:05 11 C 9.31 g/m*3 11 C 0 km/h
1348 02-10-2010 05:40:05 10.9 C 9.35 g/m*3 10.9 C 0 km/h
1349 02-10-2010 05:52:05 11 C 9.31 g/m*3 11 C 0 km/h
1350 02-10-2010 06:04:06 11 C 9.31 g/m*3 11 C 0 km/h
Sensor: Nr:Datum:Temp:Abs-Feuchte:Windchill:Wind:
Aussen-T/F 1351 02-10-2010 06:16:06 11 C 9.41 g/m*3 11 C 0 km/h
1352 02-10-2010 06:28:06 11 C 9.41 g/m*3 11 C 0 km/h
1353 02-10-2010 06:40:06 11 C 9.41 g/m*3 11 C 0 km/h
1354 02-10-2010 06:52:06 11 C 9.41 g/m*3 11 C 0 km/h
1355 02-10-2010 07:04:06 11 C 9.41 g/m*3 11 C 0 km/h
1356 02-10-2010 07:16:06 11.1 C 9.47 g/m*3 11.1 C 0 km/h
1357 02-10-2010 07:28:06 11.2 C 9.63 g/m*3 11.2 C 0 km/h
1358 02-10-2010 07:40:03 11.2 C 9.63 g/m*3 11.2 C 0 km/h
1359 02-10-2010 07:52:02 11.2 C 9.63 g/m*3 11.2 C 0 km/h
1360 02-10-2010 08:04:02 11.3 C 9.69 g/m*3 11.3 C 0 km/h
1361 02-10-2010 08:16:03 11.3 C 9.69 g/m*3 11.3 C 0 km/h
1362 02-10-2010 08:28:03 11.4 C 9.75 g/m*3 11.4 C 0 km/h
1363 02-10-2010 08:40:02 11.5 C 9.81 g/m*3 11.5 C 0 km/h
1364 02-10-2010 08:52:02 11.8 C 10 g/m*3 11.8 C 0 km/h
1365 02-10-2010 09:04:02 11.8 C 10 g/m*3 11.8 C 0 km/h
1366 02-10-2010 09:16:02 11.8 C 10 g/m*3 11.8 C 0 km/h
1367 02-10-2010 09:28:02 12 C 10.12 g/m*3 12 C 0 km/h
1368 02-10-2010 09:40:02 12.1 C 10.19 g/m*3 12.1 C 0 km/h
1369 02-10-2010 09:52:02 12.3 C 10.32 g/m*3 12.3 C 0 km/h
1370 02-10-2010 10:04:02 12.6 C 10.51 g/m*3 12.6 C 0 km/h
1371 02-10-2010 10:16:02 13 C 10.66 g/m*3 13 C 0 km/h
1372 02-10-2010 10:28:02 13 C 10.66 g/m*3 13 C 0 km/h
1373 02-10-2010 10:40:01 13.3 C 10.86 g/m*3 13.3 C 0 km/h
1374 02-10-2010 10:52:02 13.8 C 11.08 g/m*3 13.8 C 0 km/h
1375 02-10-2010 11:04:01 14 C 11.1 g/m*3 14 C 0 km/h
Sensor: Nr:Datum:Temp:Abs-Feuchte:Windchill:Wind:
Aussen-T/F 1376 02-10-2010 11:16:01 14.4 C 11.37 g/m*3 14.4 C 0 km/h
1377 02-10-2010 11:28:01 14.4 C 11.37 g/m*3 14.4 C 0 km/h
1378 02-10-2010 11:40:02 14.4 C 11.25 g/m*3 14.4 C 0 km/h
1379 02-10-2010 11:52:02 14.4 C 11.25 g/m*3 14.4 C 0 km/h
1380 02-10-2010 12:04:02 14.5 C 11.32 g/m*3 14.5 C 0 km/h
1381 02-10-2010 12:16:02 14.7 C 11.46 g/m*3 14.7 C 0 km/h
1382 02-10-2010 12:28:02 15.2 C 11.68 g/m*3 15.2 C 0 km/h
1383 02-10-2010 12:40:02 15.4 C 11.69 g/m*3 15.4 C 0 km/h
1384 02-10-2010 12:52:02 15.4 C 11.43 g/m*3 15.4 C 0 km/h
1385 02-10-2010 13:04:02 15.5 C 11.5 g/m*3 15.5 C 0 km/h
1386 02-10-2010 13:16:02 15.6 C 11.57 g/m*3 15.6 C 0 km/h
1387 02-10-2010 13:28:02 15.7 C 11.64 g/m*3 15.7 C 0 km/h
1388 02-10-2010 13:40:02 15.9 C 11.65 g/m*3 15.9 C 0 km/h
1389 02-10-2010 13:52:01 16 C 11.31 g/m*3 16 C 0 km/h
1390 02-10-2010 14:04:01 15.7 C 11.24 g/m*3 15.7 C 0 km/h
1391 02-10-2010 14:16:02 15.4 C 11.17 g/m*3 15.4 C 0 km/h
1392 02-10-2010 14:28:02 15.4 C 11.3 g/m*3 15.4 C 0 km/h
1393 02-10-2010 14:40:01 15.7 C 11.64 g/m*3 15.7 C 0 km/h
1394 02-10-2010 14:52:03 16 C 11.72 g/m*3 16 C 0 km/h
1395 02-10-2010 15:04:02 15.8 C 11.71 g/m*3 15.8 C 0 km/h
1396 02-10-2010 15:16:02 15.9 C 11.65 g/m*3 15.9 C 0 km/h
1397 02-10-2010 15:28:02 16 C 11.44 g/m*3 16 C 0 km/h
1398 02-10-2010 15:40:02 16.2 C 11.31 g/m*3 16.2 C 0 km/h
1399 02-10-2010 15:52:02 16.1 C 11.24 g/m*3 16.1 C 0 km/h
1400 02-10-2010 16:04:02 16.2 C 11.31 g/m*3 16.2 C 0 km/h
Sensor: Nr:Datum:Temp:Abs-Feuchte:Windchill:Wind:
Aussen-T/F 1401 02-10-2010 16:16:02 16.1 C 10.97 g/m*3 16.1 C 0 km/h
1402 02-10-2010 16:28:02 16.2 C 11.03 g/m*3 16.2 C 0 km/h
1403 02-10-2010 16:40:02 16.4 C 11.17 g/m*3 16.4 C 0 km/h
1404 02-10-2010 16:52:02 16.3 C 10.96 g/m*3 16.3 C 0 km/h
1405 02-10-2010 17:04:01 16.4 C 11.03 g/m*3 16.4 C 0 km/h
1406 02-10-2010 17:16:01 16.3 C 10.82 g/m*3 16.3 C 0 km/h
1407 02-10-2010 17:28:01 16.3 C 10.96 g/m*3 16.3 C 0 km/h
1408 02-10-2010 17:40:02 16.3 C 10.96 g/m*3 16.3 C 0 km/h
1409 02-10-2010 17:52:02 16.1 C 10.83 g/m*3 16.1 C 0 km/h
1410 02-10-2010 18:04:02 15.9 C 10.97 g/m*3 15.9 C 0 km/h
1411 02-10-2010 18:16:02 15.6 C 10.91 g/m*3 15.6 C 0 km/h
1412 02-10-2010 18:28:02 15.3 C 10.84 g/m*3 15.3 C 0 km/h
1413 02-10-2010 18:40:02 15.2 C 10.9 g/m*3 15.2 C 0 km/h
1414 02-10-2010 18:52:02 15.1 C 10.97 g/m*3 15.1 C 0 km/h
1415 02-10-2010 19:04:02 15 C 10.9 g/m*3 15 C 0 km/h
1416 02-10-2010 19:16:02 15 C 10.9 g/m*3 15 C 0 km/h
1417 02-10-2010 19:28:02 15 C 10.9 g/m*3 15 C 0 km/h
1418 02-10-2010 19:40:02 14.9 C 10.96 g/m*3 14.9 C 0 km/h
1419 02-10-2010 19:52:01 14.8 C 11.02 g/m*3 14.8 C 0 km/h
1420 02-10-2010 20:04:01 14.8 C 11.02 g/m*3 14.8 C 0 km/h
1421 02-10-2010 20:16:02 14.9 C 11.22 g/m*3 14.9 C 0 km/h
1422 02-10-2010 20:28:02 14.9 C 11.22 g/m*3 14.9 C 0 km/h
1423 02-10-2010 20:40:01 14.8 C 11.02 g/m*3 14.8 C 0 km/h
1424 02-10-2010 20:52:01 14.6 C 11.01 g/m*3 14.6 C 0 km/h
1425 02-10-2010 21:04:01 14.6 C 11.01 g/m*3 14.6 C 0 km/h
Sensor: Nr:Datum:Temp:Abs-Feuchte:Windchill:Wind:
Aussen-T/F 1426 02-10-2010 21:16:02 14.5 C 10.94 g/m*3 14.5 C 0 km/h
1427 02-10-2010 21:28:02 14.5 C 11.07 g/m*3 14.5 C 0 km/h
1428 02-10-2010 21:40:01 14.5 C 11.07 g/m*3 14.5 C 0 km/h
1429 02-10-2010 21:53:02 14.4 C 11 g/m*3 14.4 C 0 km/h
1430 02-10-2010 22:05:02 14.4 C 11 g/m*3 14.4 C 0 km/h
1431 02-10-2010 22:17:02 14.4 C 11.13 g/m*3 14.4 C 0 km/h
1432 02-10-2010 22:29:02 14.4 C 11.13 g/m*3 14.4 C 0 km/h
1433 02-10-2010 22:41:02 14.5 C 11.19 g/m*3 14.5 C 0 km/h
1434 02-10-2010 22:53:02 14.7 C 11.33 g/m*3 14.7 C 0 km/h
1435 02-10-2010 23:05:02 14.7 C 11.33 g/m*3 14.7 C 0 km/h
1436 02-10-2010 23:17:02 14.6 C 11.14 g/m*3 14.6 C 0 km/h
1437 02-10-2010 23:29:03 14.5 C 11.07 g/m*3 14.5 C 0 km/h
1438 02-10-2010 23:41:03 14.5 C 11.07 g/m*3 14.5 C 0 km/h
1439 02-10-2010 23:53:03 14.5 C 11.07 g/m*3 14.5 C 0 km/h
1440 03-10-2010 00:05:03 14.6 C 11.14 g/m*3 14.6 C 0 km/h
1441 03-10-2010 00:17:03 14.4 C 11 g/m*3 14.4 C 0 km/h
1442 03-10-2010 00:29:03 14.3 C 10.93 g/m*3 14.3 C 0 km/h
1443 03-10-2010 00:41:03 14.4 C 11.13 g/m*3 14.4 C 0 km/h
1444 03-10-2010 00:53:03 14.5 C 11.19 g/m*3 14.5 C 0 km/h
1445 03-10-2010 01:05:03 14.5 C 11.07 g/m*3 14.5 C 0 km/h
1446 03-10-2010 01:17:03 14.6 C 10.89 g/m*3 14.6 C 0 km/h
1447 03-10-2010 01:29:03 14.7 C 10.58 g/m*3 14.7 C 0 km/h
1448 03-10-2010 01:41:03 14.8 C 10.51 g/m*3 14.8 C 0 km/h
1449 03-10-2010 01:53:03 14.9 C 10.45 g/m*3 14.9 C 0 km/h
1450 03-10-2010 02:05:03 15 C 10.26 g/m*3 15 C 0 km/h
Sensor: Nr:Datum:Temp:Abs-Feuchte:Windchill:Wind:
Aussen-T/F 1451 03-10-2010 02:17:03 14.8 C 10.39 g/m*3 14.8 C 0 km/h
1452 03-10-2010 02:29:03 14.6 C 10.39 g/m*3 14.6 C 0 km/h
1453 03-10-2010 02:41:03 14.4 C 10.26 g/m*3 14.4 C 0 km/h
1454 03-10-2010 02:53:03 14.1 C 10.32 g/m*3 14.1 C 0 km/h
1455 03-10-2010 03:05:03 14 C 10.37 g/m*3 14 C 0 km/h
1456 03-10-2010 03:17:03 13.8 C 10.48 g/m*3 13.8 C 0 km/h
1457 03-10-2010 03:29:04 13.8 C 10.6 g/m*3 13.8 C 0 km/h
1458 03-10-2010 03:41:04 13.9 C 10.67 g/m*3 13.9 C 0 km/h
1459 03-10-2010 03:53:04 14.1 C 10.8 g/m*3 14.1 C 0 km/h
1460 03-10-2010 04:05:04 14 C 10.74 g/m*3 14 C 0 km/h
1461 03-10-2010 04:17:04 14.1 C 10.68 g/m*3 14.1 C 0 km/h
1462 03-10-2010 04:29:04 14 C 10.61 g/m*3 14 C 0 km/h
1463 03-10-2010 04:41:04 14 C 10.49 g/m*3 14 C 0 km/h
1464 03-10-2010 04:53:04 14.3 C 10.57 g/m*3 14.3 C 0 km/h
1465 03-10-2010 05:05:04 14.3 C 10.44 g/m*3 14.3 C 0 km/h
1466 03-10-2010 05:17:04 14.4 C 10.38 g/m*3 14.4 C 0 km/h
1467 03-10-2010 05:29:04 14.4 C 10.38 g/m*3 14.4 C 0 km/h
1468 03-10-2010 05:41:04 14.2 C 10.26 g/m*3 14.2 C 0 km/h
1469 03-10-2010 05:53:04 14 C 10.25 g/m*3 14 C 0 km/h
1470 03-10-2010 06:05:04 13.8 C 10.37 g/m*3 13.8 C 0 km/h
1471 03-10-2010 06:17:04 13.5 C 10.18 g/m*3 13.5 C 0 km/h
1472 03-10-2010 06:29:04 13.4 C 10.23 g/m*3 13.4 C 0 km/h
1473 03-10-2010 06:41:04 13.3 C 10.17 g/m*3 13.3 C 0 km/h
1474 03-10-2010 06:53:04 13.3 C 10.28 g/m*3 13.3 C 0 km/h
1475 03-10-2010 07:05:04 13.3 C 10.28 g/m*3 13.3 C 0 km/h
Sensor: Nr:Datum:Temp:Abs-Feuchte:Windchill:Wind:
Aussen-T/F 1476 03-10-2010 07:17:04 13.4 C 10.46 g/m*3 13.4 C 0 km/h
1477 03-10-2010 07:29:04 13.4 C 10.46 g/m*3 13.4 C 0 km/h
1478 03-10-2010 07:41:05 13.5 C 10.53 g/m*3 13.5 C 0 km/h
1479 03-10-2010 07:53:02 13.5 C 10.41 g/m*3 13.5 C 0 km/h
1480 03-10-2010 08:05:01 13.7 C 10.42 g/m*3 13.7 C 0 km/h
1481 03-10-2010 08:17:02 13.9 C 10.43 g/m*3 13.9 C 0 km/h
1482 03-10-2010 08:29:02 13.9 C 10.43 g/m*3 13.9 C 0 km/h
1483 03-10-2010 08:41:01 14.1 C 10.44 g/m*3 14.1 C 0 km/h
1484 03-10-2010 08:53:03 14.3 C 10.32 g/m*3 14.3 C 0 km/h
1485 03-10-2010 09:05:02 14.8 C 10.26 g/m*3 14.8 C 0 km/h
1486 03-10-2010 09:17:02 15 C 10 g/m*3 15 C 0 km/h
1487 03-10-2010 09:29:03 15.1 C 9.93 g/m*3 15.1 C 0 km/h
1488 03-10-2010 09:41:02 15.2 C 10.12 g/m*3 15.2 C 0 km/h
1489 03-10-2010 09:53:02 15.5 C 10.05 g/m*3 15.5 C 0 km/h
1490 03-10-2010 10:05:02 16.2 C 10.2 g/m*3 16.2 C 0 km/h
1491 03-10-2010 10:17:02 16.9 C 9.92 g/m*3 16.9 C 0 km/h
1492 03-10-2010 10:29:03 17 C 9.69 g/m*3 17 C 0 km/h
1493 03-10-2010 10:41:01 17 C 9.84 g/m*3 17 C 0 km/h
1494 03-10-2010 10:53:02 16.8 C 9.87 g/m*3 16.8 C 0 km/h
1495 03-10-2010 11:05:01 17.2 C 9.81 g/m*3 17.2 C 0 km/h
1496 03-10-2010 11:17:02 17.6 C 10.35 g/m*3 17.6 C 0 km/h
1497 03-10-2010 11:29:02 17.9 C 10.23 g/m*3 17.9 C 0 km/h
1498 03-10-2010 11:41:02 18.5 C 9.97 g/m*3 18.5 C 0 km/h
1499 03-10-2010 11:53:02 19.5 C 10.24 g/m*3 19.5 C 0 km/h
1500 03-10-2010 12:05:03 19.7 C 9.85 g/m*3 19.7 C 0 km/h
Sensor: Nr:Datum:Temp:Abs-Feuchte:Windchill:Wind:
Aussen-T/F 1501 03-10-2010 12:17:02 19.7 C 10.02 g/m*3 19.7 C 0 km/h
1502 03-10-2010 12:29:02 19.3 C 9.45 g/m*3 19.3 C 0 km/h
1503 03-10-2010 12:41:02 19.7 C 9.68 g/m*3 19.7 C 0 km/h
1504 03-10-2010 12:53:01 20 C 9.68 g/m*3 20 C 0 km/h
1505 03-10-2010 13:05:02 20.7 C 9.9 g/m*3 20.7 C 0 km/h
1506 03-10-2010 13:17:01 21.1 C 9.58 g/m*3 21.1 C 0 km/h
1507 03-10-2010 13:29:01 21.5 C 9.62 g/m*3 21.5 C 0 km/h
1508 03-10-2010 13:41:01 21.7 C 8.97 g/m*3 21.7 C 0 km/h
1509 03-10-2010 13:53:01 21.8 C 9.02 g/m*3 21.8 C 0 km/h
1510 03-10-2010 14:05:02 22.2 C 8.83 g/m*3 22.2 C 0 km/h
1511 03-10-2010 14:17:01 22.7 C 9.5 g/m*3 22.7 C 0 km/h
1512 03-10-2010 14:29:01 23.2 C 9.15 g/m*3 23.2 C 0 km/h
1513 03-10-2010 14:41:01 24.4 C 9.12 g/m*3 24.4 C 0 km/h
1514 03-10-2010 14:53:01 24.2 C 8.8 g/m*3 24.2 C 0 km/h
1515 03-10-2010 15:05:02 24.4 C 8.68 g/m*3 24.4 C 0 km/h
1516 03-10-2010 15:17:02 24.4 C 8.68 g/m*3 24.4 C 0 km/h
1517 03-10-2010 15:29:02 24.5 C 8.5 g/m*3 24.5 C 0 km/h
1518 03-10-2010 15:41:01 24.9 C 8.7 g/m*3 24.9 C 0 km/h
1519 03-10-2010 15:53:02 25.4 C 8.48 g/m*3 25.4 C 0 km/h
1520 03-10-2010 16:05:01 24.6 C 8.33 g/m*3 24.6 C 0 km/h
1521 03-10-2010 16:17:02 24.7 C 8.37 g/m*3 24.7 C 0 km/h
1522 03-10-2010 16:29:02 25.1 C 8.57 g/m*3 25.1 C 0 km/h
1523 03-10-2010 16:41:01 25.4 C 8.95 g/m*3 25.4 C 0 km/h
1524 03-10-2010 16:53:03 25.8 C 9.15 g/m*3 25.8 C 0 km/h
1525 03-10-2010 17:05:02 26.1 C 9.3 g/m*3 26.1 C 0 km/h
Sensor: Nr:Datum:Temp:Abs-Feuchte:Windchill:Wind:
Aussen-T/F 1526 03-10-2010 17:17:02 25.6 C 9.05 g/m*3 25.6 C 0 km/h
1527 03-10-2010 17:29:02 25.6 C 9.52 g/m*3 25.6 C 0 km/h
1528 03-10-2010 17:41:03 24.4 C 9.35 g/m*3 24.4 C 0 km/h
1529 03-10-2010 17:53:02 24.4 C 9.57 g/m*3 24.4 C 0 km/h
1530 03-10-2010 18:05:01 23.6 C 10.21 g/m*3 23.6 C 0 km/h
1531 03-10-2010 18:17:02 22.5 C 10.39 g/m*3 22.5 C 0 km/h
1532 03-10-2010 18:29:02 21.4 C 10.5 g/m*3 21.4 C 0 km/h
1533 03-10-2010 18:41:02 20.4 C 10.61 g/m*3 20.4 C 0 km/h
1534 03-10-2010 18:53:02 19.8 C 10.76 g/m*3 19.8 C 0 km/h
1535 03-10-2010 19:05:03 19.3 C 10.95 g/m*3 19.3 C 0 km/h
1536 03-10-2010 19:17:02 19 C 10.76 g/m*3 19 C 0 km/h
1537 03-10-2010 19:29:02 18.9 C 10.85 g/m*3 18.9 C 0 km/h
1538 03-10-2010 19:41:02 18.4 C 10.85 g/m*3 18.4 C 0 km/h
1539 03-10-2010 19:53:01 18.3 C 10.79 g/m*3 18.3 C 0 km/h
1540 03-10-2010 20:05:02 18.1 C 10.82 g/m*3 18.1 C 0 km/h
1541 03-10-2010 20:17:01 18.5 C 10.92 g/m*3 18.5 C 0 km/h
1542 03-10-2010 20:29:01 18.4 C 10.85 g/m*3 18.4 C 0 km/h
1543 03-10-2010 20:41:02 18.4 C 10.85 g/m*3 18.4 C 0 km/h
1544 03-10-2010 20:53:01 18.3 C 10.94 g/m*3 18.3 C 0 km/h
1545 03-10-2010 21:05:02 18.3 C 10.94 g/m*3 18.3 C 0 km/h
1546 03-10-2010 21:17:02 18.1 C 10.97 g/m*3 18.1 C 0 km/h
1547 03-10-2010 21:29:02 17.9 C 11.15 g/m*3 17.9 C 0 km/h
1548 03-10-2010 21:41:02 17.8 C 11.08 g/m*3 17.8 C 0 km/h
1549 03-10-2010 21:53:01 17.7 C 11.01 g/m*3 17.7 C 0 km/h
1550 03-10-2010 22:05:01 17.6 C 11.1 g/m*3 17.6 C 0 km/h
Sensor: Nr:Datum:Temp:Abs-Feuchte:Windchill:Wind:
Aussen-T/F 1551 03-10-2010 22:17:02 17.5 C 11.03 g/m*3 17.5 C 0 km/h
1552 03-10-2010 22:29:02 17.5 C 10.88 g/m*3 17.5 C 0 km/h
1553 03-10-2010 22:41:01 17.6 C 10.8 g/m*3 17.6 C 0 km/h
1554 03-10-2010 22:53:02 17.6 C 10.5 g/m*3 17.6 C 0 km/h
1555 03-10-2010 23:05:01 17.5 C 10.44 g/m*3 17.5 C 0 km/h
1556 03-10-2010 23:18:06 17.6 C 10.5 g/m*3 17.6 C 0 km/h
1557 03-10-2010 23:30:07 17.6 C 10.35 g/m*3 17.6 C 0 km/h
1558 03-10-2010 23:42:07 17.6 C 10.2 g/m*3 17.6 C 0 km/h
1559 03-10-2010 23:54:07 17.5 C 10.14 g/m*3 17.5 C 0 km/h
1560 04-10-2010 00:06:07 17.4 C 9.93 g/m*3 17.4 C 0 km/h
1561 04-10-2010 00:18:07 17.4 C 9.93 g/m*3 17.4 C 0 km/h
1562 04-10-2010 00:30:07 17.2 C 9.81 g/m*3 17.2 C 0 km/h
1563 04-10-2010 00:42:07 17.2 C 9.81 g/m*3 17.2 C 0 km/h
1564 04-10-2010 00:54:07 17.2 C 9.81 g/m*3 17.2 C 0 km/h
1565 04-10-2010 01:06:07 17.2 C 9.81 g/m*3 17.2 C 0 km/h
1566 04-10-2010 01:18:07 17.2 C 9.67 g/m*3 17.2 C 0 km/h
1567 04-10-2010 01:30:07 17.2 C 9.52 g/m*3 17.2 C 0 km/h
1568 04-10-2010 01:42:07 17.2 C 9.52 g/m*3 17.2 C 0 km/h
1569 04-10-2010 01:54:07 17.1 C 9.46 g/m*3 17.1 C 0 km/h
1570 04-10-2010 02:06:07 17 C 9.55 g/m*3 17 C 0 km/h
1571 04-10-2010 02:18:07 16.9 C 9.64 g/m*3 16.9 C 0 km/h
1572 04-10-2010 02:30:07 16.8 C 9.72 g/m*3 16.8 C 0 km/h
1573 04-10-2010 02:42:07 16.8 C 9.58 g/m*3 16.8 C 0 km/h
1574 04-10-2010 02:54:07 16.6 C 9.75 g/m*3 16.6 C 0 km/h
1575 04-10-2010 03:06:07 16.4 C 9.77 g/m*3 16.4 C 0 km/h
Sensor: Nr:Datum:Temp:Abs-Feuchte:Windchill:Wind:
Aussen-T/F 1576 04-10-2010 03:18:07 15.9 C 10.02 g/m*3 15.9 C 0 km/h
1577 04-10-2010 03:30:08 15.6 C 9.97 g/m*3 15.6 C 0 km/h
1578 04-10-2010 03:42:08 15.5 C 10.05 g/m*3 15.5 C 0 km/h
1579 04-10-2010 03:54:08 15.4 C 9.99 g/m*3 15.4 C 0 km/h
1580 04-10-2010 04:06:08 15.3 C 9.92 g/m*3 15.3 C 0 km/h
1581 04-10-2010 04:18:08 15.2 C 9.99 g/m*3 15.2 C 0 km/h
1582 04-10-2010 04:30:08 15.2 C 9.99 g/m*3 15.2 C 0 km/h
1583 04-10-2010 04:42:08 15 C 10 g/m*3 15 C 0 km/h
1584 04-10-2010 04:54:08 14.8 C 10.01 g/m*3 14.8 C 0 km/h
1585 04-10-2010 05:06:08 14.6 C 10.01 g/m*3 14.6 C 0 km/h
1586 04-10-2010 05:18:08 14.4 C 9.89 g/m*3 14.4 C 0 km/h
1587 04-10-2010 05:30:08 14.3 C 9.95 g/m*3 14.3 C 0 km/h
1588 04-10-2010 05:42:08 14.1 C 9.95 g/m*3 14.1 C 0 km/h
1589 04-10-2010 05:54:08 14.1 C 9.95 g/m*3 14.1 C 0 km/h
1590 04-10-2010 06:06:08 14.2 C 10.01 g/m*3 14.2 C 0 km/h
1591 04-10-2010 06:18:08 13.9 C 10.07 g/m*3 13.9 C 0 km/h
1592 04-10-2010 06:30:08 14 C 9.89 g/m*3 14 C 0 km/h
1593 04-10-2010 06:42:08 13.8 C 9.89 g/m*3 13.8 C 0 km/h
1594 04-10-2010 06:54:08 13.7 C 9.83 g/m*3 13.7 C 0 km/h
1595 04-10-2010 07:06:03 13.8 C 10.01 g/m*3 13.8 C 0 km/h
1596 04-10-2010 07:18:02 13.7 C 9.83 g/m*3 13.7 C 0 km/h
1597 04-10-2010 07:30:02 13.5 C 9.71 g/m*3 13.5 C 0 km/h
1598 04-10-2010 07:42:03 13.5 C 9.71 g/m*3 13.5 C 0 km/h
1599 04-10-2010 07:54:02 13.6 C 9.89 g/m*3 13.6 C 0 km/h
1600 04-10-2010 08:06:02 13.8 C 9.89 g/m*3 13.8 C 0 km/h
Sensor: Nr:Datum:Temp:Abs-Feuchte:Windchill:Wind:
Aussen-T/F 1601 04-10-2010 08:18:02 14.1 C 9.95 g/m*3 14.1 C 0 km/h
1602 04-10-2010 08:30:02 14.3 C 9.83 g/m*3 14.3 C 0 km/h
1603 04-10-2010 08:42:03 14.4 C 9.64 g/m*3 14.4 C 0 km/h
1604 04-10-2010 08:54:02 14.7 C 9.69 g/m*3 14.7 C 0 km/h
1605 04-10-2010 09:06:02 14.9 C 9.56 g/m*3 14.9 C 0 km/h
1606 04-10-2010 09:18:02 15 C 9.23 g/m*3 15 C 0 km/h
1607 04-10-2010 09:30:02 15 C 9.1 g/m*3 15 C 0 km/h
1608 04-10-2010 09:42:02 15 C 9.1 g/m*3 15 C 0 km/h
1609 04-10-2010 09:54:02 15.1 C 9.16 g/m*3 15.1 C 0 km/h
1610 04-10-2010 10:06:02 15.2 C 9.09 g/m*3 15.2 C 0 km/h
1611 04-10-2010 10:18:02 15.3 C 9.01 g/m*3 15.3 C 0 km/h
1612 04-10-2010 10:30:02 15.4 C 9.07 g/m*3 15.4 C 0 km/h
1613 04-10-2010 10:42:02 16 C 8.86 g/m*3 16 C 0 km/h
1614 04-10-2010 10:54:01 16.4 C 8.79 g/m*3 16.4 C 0 km/h
1615 04-10-2010 11:06:02 17.1 C 8.88 g/m*3 17.1 C 0 km/h
1616 04-10-2010 11:18:01 17.1 C 8.88 g/m*3 17.1 C 0 km/h
1617 04-10-2010 11:30:01 17.6 C 9 g/m*3 17.6 C 0 km/h
1618 04-10-2010 11:42:01 18 C 8.91 g/m*3 18 C 0 km/h
1619 04-10-2010 11:54:01 18.3 C 8.91 g/m*3 18.3 C 0 km/h
1620 04-10-2010 12:06:01 18.5 C 8.86 g/m*3 18.5 C 0 km/h
1621 04-10-2010 12:18:02 18 C 8.91 g/m*3 18 C 0 km/h
1622 04-10-2010 12:30:02 17.8 C 8.8 g/m*3 17.8 C 0 km/h
1623 04-10-2010 12:42:01 17.5 C 8.65 g/m*3 17.5 C 0 km/h
1624 04-10-2010 12:54:02 17.4 C 8.6 g/m*3 17.4 C 0 km/h
1625 04-10-2010 13:06:01 17.9 C 8.7 g/m*3 17.9 C 0 km/h
Sensor: Nr:Datum:Temp:Abs-Feuchte:Windchill:Wind:
Aussen-T/F 1626 04-10-2010 13:18:02 18.3 C 8.6 g/m*3 18.3 C 0 km/h
1627 04-10-2010 13:30:02 18.9 C 8.59 g/m*3 18.9 C 0 km/h
1628 04-10-2010 13:42:01 19.1 C 8.52 g/m*3 19.1 C 0 km/h
1629 04-10-2010 13:54:02 19.4 C 8.68 g/m*3 19.4 C 0 km/h
1630 04-10-2010 14:06:02 19.3 C 8.63 g/m*3 19.3 C 0 km/h
1631 04-10-2010 14:18:02 19.5 C 8.73 g/m*3 19.5 C 0 km/h
1632 04-10-2010 14:30:02 19.7 C 8.66 g/m*3 19.7 C 0 km/h
1633 04-10-2010 14:42:02 19.9 C 8.59 g/m*3 19.9 C 0 km/h
1634 04-10-2010 14:54:02 20.4 C 9.02 g/m*3 20.4 C 0 km/h
1635 04-10-2010 15:06:01 21.2 C 8.9 g/m*3 21.2 C 0 km/h
1636 04-10-2010 15:18:02 22.3 C 8.29 g/m*3 22.3 C 0 km/h
1637 04-10-2010 15:30:02 22.7 C 8.69 g/m*3 22.7 C 0 km/h
1638 04-10-2010 15:42:02 23 C 8.63 g/m*3 23 C 0 km/h
1639 04-10-2010 15:54:02 23.3 C 8.57 g/m*3 23.3 C 0 km/h
1640 04-10-2010 16:06:02 23.1 C 8.27 g/m*3 23.1 C 0 km/h
1641 04-10-2010 16:18:02 23.4 C 8.2 g/m*3 23.4 C 0 km/h
1642 04-10-2010 16:30:02 23.9 C 8.44 g/m*3 23.9 C 0 km/h
1643 04-10-2010 16:42:02 23.9 C 8 g/m*3 23.9 C 0 km/h
1644 04-10-2010 16:54:01 23.9 C 8.22 g/m*3 23.9 C 0 km/h
1645 04-10-2010 17:06:02 23.3 C 8.15 g/m*3 23.3 C 0 km/h
1646 04-10-2010 17:18:01 22 C 8.54 g/m*3 22 C 0 km/h
1647 04-10-2010 17:30:01 20.4 C 9.38 g/m*3 20.4 C 0 km/h
1648 04-10-2010 17:42:01 19.5 C 9.73 g/m*3 19.5 C 0 km/h
1649 04-10-2010 17:54:01 20.5 C 9.61 g/m*3 20.5 C 0 km/h
1650 04-10-2010 18:06:02 20.2 C 9.44 g/m*3 20.2 C 0 km/h
Sensor: Nr:Datum:Temp:Abs-Feuchte:Windchill:Wind:
Aussen-T/F 1651 04-10-2010 18:18:02 19.5 C 9.57 g/m*3 19.5 C 0 km/h
1652 04-10-2010 18:30:02 18.7 C 9.61 g/m*3 18.7 C 0 km/h
1653 04-10-2010 18:42:01 17.8 C 9.71 g/m*3 17.8 C 0 km/h
1654 04-10-2010 18:54:01 17.2 C 9.81 g/m*3 17.2 C 0 km/h
1655 04-10-2010 19:06:01 16.9 C 10.07 g/m*3 16.9 C 0 km/h
1656 04-10-2010 19:18:02 16.8 C 10.15 g/m*3 16.8 C 0 km/h
1657 04-10-2010 19:30:02 16.5 C 10.11 g/m*3 16.5 C 0 km/h
1658 04-10-2010 19:42:01 16.2 C 10.07 g/m*3 16.2 C 0 km/h
1659 04-10-2010 19:54:03 16.2 C 10.07 g/m*3 16.2 C 0 km/h
1660 04-10-2010 20:06:02 16.4 C 10.19 g/m*3 16.4 C 0 km/h
1661 04-10-2010 20:18:02 16.5 C 10.11 g/m*3 16.5 C 0 km/h
1662 04-10-2010 20:30:03 16.4 C 10.05 g/m*3 16.4 C 0 km/h
1663 04-10-2010 20:42:02 16.1 C 9.87 g/m*3 16.1 C 0 km/h
1664 04-10-2010 20:54:02 15.7 C 9.9 g/m*3 15.7 C 0 km/h
1665 04-10-2010 21:06:01 15.6 C 9.97 g/m*3 15.6 C 0 km/h
1666 04-10-2010 21:18:02 15.5 C 10.05 g/m*3 15.5 C 0 km/h
1667 04-10-2010 21:30:02 15.6 C 9.97 g/m*3 15.6 C 0 km/h
1668 04-10-2010 21:42:02 15.4 C 9.85 g/m*3 15.4 C 0 km/h
1669 04-10-2010 21:54:01 15 C 9.87 g/m*3 15 C 0 km/h
1670 04-10-2010 22:06:02 14.8 C 9.88 g/m*3 14.8 C 0 km/h
1671 04-10-2010 22:19:04 14.7 C 9.95 g/m*3 14.7 C 0 km/h
1672 04-10-2010 22:31:04 14.5 C 9.95 g/m*3 14.5 C 0 km/h
1673 04-10-2010 22:43:04 14.5 C 9.95 g/m*3 14.5 C 0 km/h
1674 04-10-2010 22:55:04 14.3 C 9.83 g/m*3 14.3 C 0 km/h
1675 04-10-2010 23:07:04 14.2 C 9.89 g/m*3 14.2 C 0 km/h
Sensor: Nr:Datum:Temp:Abs-Feuchte:Windchill:Wind:
Aussen-T/F 1676 04-10-2010 23:19:04 14.2 C 9.89 g/m*3 14.2 C 0 km/h
1677 04-10-2010 23:31:04 14.3 C 9.95 g/m*3 14.3 C 0 km/h
1678 04-10-2010 23:43:05 14.2 C 9.89 g/m*3 14.2 C 0 km/h
1679 04-10-2010 23:55:05 14.1 C 9.95 g/m*3 14.1 C 0 km/h
1680 05-10-2010 00:07:05 14.1 C 9.95 g/m*3 14.1 C 0 km/h
1681 05-10-2010 00:19:05 14.1 C 9.95 g/m*3 14.1 C 0 km/h
1682 05-10-2010 00:31:05 14.2 C 10.01 g/m*3 14.2 C 0 km/h
1683 05-10-2010 00:43:05 14.3 C 10.07 g/m*3 14.3 C 0 km/h
1684 05-10-2010 00:55:05 14.3 C 10.07 g/m*3 14.3 C 0 km/h
1685 05-10-2010 01:07:05 14.2 C 10.01 g/m*3 14.2 C 0 km/h
1686 05-10-2010 01:19:05 14.1 C 9.95 g/m*3 14.1 C 0 km/h
1687 05-10-2010 01:31:05 13.8 C 9.77 g/m*3 13.8 C 0 km/h
1688 05-10-2010 01:43:05 13.8 C 9.89 g/m*3 13.8 C 0 km/h
1689 05-10-2010 01:55:05 13.8 C 9.89 g/m*3 13.8 C 0 km/h
1690 05-10-2010 02:07:05 13.4 C 9.65 g/m*3 13.4 C 0 km/h
1691 05-10-2010 02:19:05 13.5 C 9.71 g/m*3 13.5 C 0 km/h
1692 05-10-2010 02:31:05 13.5 C 9.83 g/m*3 13.5 C 0 km/h
1693 05-10-2010 02:43:05 13.6 C 10 g/m*3 13.6 C 0 km/h
1694 05-10-2010 02:55:05 13.6 C 10 g/m*3 13.6 C 0 km/h
1695 05-10-2010 03:07:05 13.6 C 10 g/m*3 13.6 C 0 km/h
1696 05-10-2010 03:19:05 13.6 C 10 g/m*3 13.6 C 0 km/h
1697 05-10-2010 03:31:05 13.7 C 10.07 g/m*3 13.7 C 0 km/h
1698 05-10-2010 03:43:05 13.6 C 10 g/m*3 13.6 C 0 km/h
1699 05-10-2010 03:55:06 13.5 C 9.94 g/m*3 13.5 C 0 km/h
1700 05-10-2010 04:07:06 13.5 C 9.94 g/m*3 13.5 C 0 km/h
Sensor: Nr:Datum:Temp:Abs-Feuchte:Windchill:Wind:
Aussen-T/F 1701 05-10-2010 04:19:06 13.6 C 10.12 g/m*3 13.6 C 0 km/h
1702 05-10-2010 04:31:06 13.6 C 10.12 g/m*3 13.6 C 0 km/h
1703 05-10-2010 04:43:06 13.6 C 10.12 g/m*3 13.6 C 0 km/h
1704 05-10-2010 04:55:06 13.7 C 10.18 g/m*3 13.7 C 0 km/h
1705 05-10-2010 05:07:06 13.7 C 10.18 g/m*3 13.7 C 0 km/h
1706 05-10-2010 05:19:06 13.7 C 10.18 g/m*3 13.7 C 0 km/h
1707 05-10-2010 05:31:06 13.6 C 10.12 g/m*3 13.6 C 0 km/h
1708 05-10-2010 05:43:06 13.5 C 10.06 g/m*3 13.5 C 0 km/h
1709 05-10-2010 05:55:06 13.5 C 10.18 g/m*3 13.5 C 0 km/h
1710 05-10-2010 06:07:06 13.4 C 10.23 g/m*3 13.4 C 0 km/h
1711 05-10-2010 06:19:06 13.4 C 10.35 g/m*3 13.4 C 0 km/h
1712 05-10-2010 06:31:06 13.4 C 10.35 g/m*3 13.4 C 0 km/h
1713 05-10-2010 06:43:06 13.4 C 10.46 g/m*3 13.4 C 0 km/h
1714 05-10-2010 06:55:06 13.5 C 10.53 g/m*3 13.5 C 0 km/h
1715 05-10-2010 07:07:01 13.4 C 10.46 g/m*3 13.4 C 0 km/h
1716 05-10-2010 07:19:02 13.4 C 10.58 g/m*3 13.4 C 0 km/h
1717 05-10-2010 07:31:02 13.4 C 10.58 g/m*3 13.4 C 0 km/h
1718 05-10-2010 07:43:02 13.4 C 10.58 g/m*3 13.4 C 0 km/h
1719 05-10-2010 07:55:02 13.4 C 10.58 g/m*3 13.4 C 0 km/h
1720 05-10-2010 08:07:02 13.4 C 10.58 g/m*3 13.4 C 0 km/h
1721 05-10-2010 08:19:02 13.2 C 10.45 g/m*3 13.2 C 0 km/h
1722 05-10-2010 08:31:02 13.1 C 10.38 g/m*3 13.1 C 0 km/h
1723 05-10-2010 08:43:02 13 C 10.32 g/m*3 13 C 0 km/h
1724 05-10-2010 08:55:02 13 C 10.32 g/m*3 13 C 0 km/h
1725 05-10-2010 09:07:02 13 C 10.43 g/m*3 13 C 0 km/h
Sensor: Nr:Datum:Temp:Abs-Feuchte:Windchill:Wind:
Aussen-T/F 1726 05-10-2010 09:19:02 13.2 C 10.56 g/m*3 13.2 C 0 km/h
1727 05-10-2010 09:31:01 13.4 C 10.69 g/m*3 13.4 C 0 km/h
1728 05-10-2010 09:43:01 13.4 C 10.81 g/m*3 13.4 C 0 km/h
1729 05-10-2010 09:55:02 13.5 C 10.88 g/m*3 13.5 C 0 km/h
1730 05-10-2010 10:07:01 13.8 C 11.08 g/m*3 13.8 C 0 km/h
1731 05-10-2010 10:19:02 14.3 C 11.43 g/m*3 14.3 C 0 km/h
1732 05-10-2010 10:31:02 14.7 C 11.83 g/m*3 14.7 C 0 km/h
1733 05-10-2010 10:43:02 15.2 C 12.07 g/m*3 15.2 C 0 km/h
1734 05-10-2010 10:55:02 16 C 12.67 g/m*3 16 C 0 km/h
1735 05-10-2010 11:07:02 17.2 C 13.62 g/m*3 17.2 C 0 km/h
1736 05-10-2010 11:19:02 17.3 C 13.7 g/m*3 17.3 C 0 km/h
1737 05-10-2010 11:31:02 17.4 C 13.34 g/m*3 17.4 C 0 km/h
1738 05-10-2010 11:43:02 17.3 C 12.37 g/m*3 17.3 C 0 km/h
1739 05-10-2010 11:55:01 18.2 C 11.97 g/m*3 18.2 C 0 km/h
1740 05-10-2010 12:07:02 18.3 C 11.73 g/m*3 18.3 C 0 km/h
1741 05-10-2010 12:19:02 17.9 C 11.45 g/m*3 17.9 C 0 km/h
1742 05-10-2010 12:31:01 18 C 11.37 g/m*3 18 C 0 km/h
1743 05-10-2010 12:43:01 17.9 C 11.3 g/m*3 17.9 C 0 km/h
1744 05-10-2010 12:55:02 18.4 C 11.32 g/m*3 18.4 C 0 km/h
1745 05-10-2010 13:07:01 18.7 C 11.37 g/m*3 18.7 C 0 km/h
1746 05-10-2010 13:19:02 18.9 C 11.18 g/m*3 18.9 C 0 km/h
1747 05-10-2010 13:31:01 19 C 11.08 g/m*3 19 C 0 km/h
1748 05-10-2010 13:43:01 19.3 C 11.44 g/m*3 19.3 C 0 km/h
1749 05-10-2010 13:55:02 20 C 11.06 g/m*3 20 C 0 km/h
1750 05-10-2010 14:07:02 19.9 C 10.31 g/m*3 19.9 C 0 km/h
Sensor: Nr:Datum:Temp:Abs-Feuchte:Windchill:Wind:
Aussen-T/F 1751 05-10-2010 14:19:02 19.5 C 10.57 g/m*3 19.5 C 0 km/h
1752 05-10-2010 14:31:02 19.6 C 10.8 g/m*3 19.6 C 0 km/h
1753 05-10-2010 14:43:02 18.7 C 11.05 g/m*3 18.7 C 0 km/h
1754 05-10-2010 14:55:02 18.6 C 11.94 g/m*3 18.6 C 0 km/h
1755 05-10-2010 15:07:01 19 C 12.22 g/m*3 19 C 0 km/h
1756 05-10-2010 15:19:02 17.9 C 12.06 g/m*3 17.9 C 0 km/h
1757 05-10-2010 15:31:02 18.3 C 12.51 g/m*3 18.3 C 0 km/h
1758 05-10-2010 15:43:02 19.3 C 13.27 g/m*3 19.3 C 0 km/h
1759 05-10-2010 15:55:01 19.5 C 13.09 g/m*3 19.5 C 0 km/h
1760 05-10-2010 16:07:02 19 C 12.55 g/m*3 19 C 0 km/h
1761 05-10-2010 16:19:01 18.7 C 12.65 g/m*3 18.7 C 0 km/h
1762 05-10-2010 16:31:02 18.4 C 12.43 g/m*3 18.4 C 0 km/h
1763 05-10-2010 16:43:02 18.3 C 12.51 g/m*3 18.3 C 0 km/h
1764 05-10-2010 16:55:02 18.1 C 12.21 g/m*3 18.1 C 0 km/h
1765 05-10-2010 17:07:02 17.7 C 11.92 g/m*3 17.7 C 0 km/h
1766 05-10-2010 17:19:01 17.2 C 11.42 g/m*3 17.2 C 0 km/h
1767 05-10-2010 17:31:02 16.8 C 11.58 g/m*3 16.8 C 0 km/h
1768 05-10-2010 17:43:02 16.8 C 11.72 g/m*3 16.8 C 0 km/h
1769 05-10-2010 17:55:02 17 C 11.72 g/m*3 17 C 0 km/h
1770 05-10-2010 18:07:02 17.1 C 11.65 g/m*3 17.1 C 0 km/h
1771 05-10-2010 18:19:02 17.1 C 11.65 g/m*3 17.1 C 0 km/h
1772 05-10-2010 18:31:02 17.1 C 11.35 g/m*3 17.1 C 0 km/h
1773 05-10-2010 18:43:02 17 C 11.29 g/m*3 17 C 0 km/h
1774 05-10-2010 18:55:02 16.8 C 11.29 g/m*3 16.8 C 0 km/h
1775 05-10-2010 19:07:02 16.6 C 11.3 g/m*3 16.6 C 0 km/h
Sensor: Nr:Datum:Temp:Abs-Feuchte:Windchill:Wind:
Aussen-T/F 1776 05-10-2010 19:19:03 16.5 C 11.23 g/m*3 16.5 C 0 km/h
1777 05-10-2010 19:31:02 16.5 C 11.37 g/m*3 16.5 C 0 km/h
1778 05-10-2010 19:43:02 17.3 C 11.64 g/m*3 17.3 C 0 km/h
1779 05-10-2010 19:55:02 16.4 C 11.03 g/m*3 16.4 C 0 km/h
1780 05-10-2010 20:07:02 16.4 C 11.03 g/m*3 16.4 C 0 km/h
1781 05-10-2010 20:19:02 16.4 C 11.03 g/m*3 16.4 C 0 km/h
1782 05-10-2010 20:31:02 16.4 C 11.03 g/m*3 16.4 C 0 km/h
1783 05-10-2010 20:43:02 16.3 C 10.96 g/m*3 16.3 C 0 km/h
1784 05-10-2010 20:55:02 16.3 C 10.68 g/m*3 16.3 C 0 km/h
1785 05-10-2010 21:07:02 16.1 C 10.55 g/m*3 16.1 C 0 km/h
1786 05-10-2010 21:19:02 16 C 10.35 g/m*3 16 C 0 km/h
1787 05-10-2010 21:31:01 15.6 C 10.24 g/m*3 15.6 C 0 km/h
1788 05-10-2010 21:43:01 15.4 C 10.12 g/m*3 15.4 C 0 km/h
1789 05-10-2010 21:55:02 15.3 C 10.06 g/m*3 15.3 C 0 km/h
1790 05-10-2010 22:07:01 15.2 C 9.99 g/m*3 15.2 C 0 km/h
1791 05-10-2010 22:19:02 15.3 C 9.92 g/m*3 15.3 C 0 km/h
1792 05-10-2010 22:31:01 15.4 C 9.99 g/m*3 15.4 C 0 km/h
1793 05-10-2010 22:43:01 15.2 C 9.99 g/m*3 15.2 C 0 km/h
1794 05-10-2010 22:55:02 15.4 C 9.99 g/m*3 15.4 C 0 km/h
1795 05-10-2010 23:07:01 15.6 C 9.97 g/m*3 15.6 C 0 km/h
1796 05-10-2010 23:19:02 15.6 C 9.97 g/m*3 15.6 C 0 km/h
1797 05-10-2010 23:31:01 15.6 C 9.97 g/m*3 15.6 C 0 km/h
1798 05-10-2010 23:43:01 15.6 C 9.97 g/m*3 15.6 C 0 km/h
1799 05-10-2010 23:55:02 15.6 C 9.97 g/m*3 15.6 C 0 km/h
1800 06-10-2010 00:07:01 15.6 C 9.97 g/m*3 15.6 C 0 km/h
Sensor: Nr:Datum:Temp:Abs-Feuchte:Windchill:Wind:
Aussen-T/F 1801 06-10-2010 00:19:02 15.6 C 9.97 g/m*3 15.6 C 0 km/h
1802 06-10-2010 00:31:01 15.6 C 9.97 g/m*3 15.6 C 0 km/h
1803 06-10-2010 00:43:01 15.6 C 9.97 g/m*3 15.6 C 0 km/h
1804 06-10-2010 00:55:02 15.6 C 9.97 g/m*3 15.6 C 0 km/h
1805 06-10-2010 01:07:02 15.5 C 9.91 g/m*3 15.5 C 0 km/h
1806 06-10-2010 01:19:02 15.5 C 9.91 g/m*3 15.5 C 0 km/h
1807 06-10-2010 01:31:03 15.5 C 10.05 g/m*3 15.5 C 0 km/h
1808 06-10-2010 01:43:03 15.5 C 10.05 g/m*3 15.5 C 0 km/h
1809 06-10-2010 01:55:02 15.5 C 10.05 g/m*3 15.5 C 0 km/h
1810 06-10-2010 02:07:01 15.5 C 10.05 g/m*3 15.5 C 0 km/h
1811 06-10-2010 02:19:02 15.5 C 10.18 g/m*3 15.5 C 0 km/h
1812 06-10-2010 02:31:02 15.4 C 10.25 g/m*3 15.4 C 0 km/h
1813 06-10-2010 02:43:02 15.4 C 10.25 g/m*3 15.4 C 0 km/h
1814 06-10-2010 02:55:01 15.4 C 10.12 g/m*3 15.4 C 0 km/h
1815 06-10-2010 03:07:01 15.3 C 10.19 g/m*3 15.3 C 0 km/h
1816 06-10-2010 03:19:02 15.3 C 10.06 g/m*3 15.3 C 0 km/h
1817 06-10-2010 03:31:01 15.3 C 10.06 g/m*3 15.3 C 0 km/h
1818 06-10-2010 03:43:02 15.3 C 10.06 g/m*3 15.3 C 0 km/h
1819 06-10-2010 03:55:02 15.2 C 10.12 g/m*3 15.2 C 0 km/h
1820 06-10-2010 04:07:01 15.2 C 10.12 g/m*3 15.2 C 0 km/h
1821 06-10-2010 04:19:01 15.2 C 10.12 g/m*3 15.2 C 0 km/h
1822 06-10-2010 04:31:02 15.1 C 10.06 g/m*3 15.1 C 0 km/h
1823 06-10-2010 04:43:02 15 C 10 g/m*3 15 C 0 km/h
1824 06-10-2010 04:55:01 15 C 10.13 g/m*3 15 C 0 km/h
1825 06-10-2010 05:07:02 14.9 C 10.2 g/m*3 14.9 C 0 km/h
Sensor: Nr:Datum:Temp:Abs-Feuchte:Windchill:Wind:
Aussen-T/F 1826 06-10-2010 05:19:01 15 C 10.13 g/m*3 15 C 0 km/h
1827 06-10-2010 05:31:02 14.9 C 10.32 g/m*3 14.9 C 0 km/h
1828 06-10-2010 05:43:02 14.9 C 10.32 g/m*3 14.9 C 0 km/h
1829 06-10-2010 05:55:01 14.9 C 10.32 g/m*3 14.9 C 0 km/h
1830 06-10-2010 06:07:02 14.8 C 10.26 g/m*3 14.8 C 0 km/h
1831 06-10-2010 06:19:01 14.9 C 10.32 g/m*3 14.9 C 0 km/h
1832 06-10-2010 06:31:01 14.8 C 10.01 g/m*3 14.8 C 0 km/h
1833 06-10-2010 06:43:01 14.8 C 10.01 g/m*3 14.8 C 0 km/h
1834 06-10-2010 06:55:01 14.8 C 9.88 g/m*3 14.8 C 0 km/h
1835 06-10-2010 07:07:01 14.7 C 9.82 g/m*3 14.7 C 0 km/h
1836 06-10-2010 07:19:01 14.7 C 9.95 g/m*3 14.7 C 0 km/h
1837 06-10-2010 07:31:01 14.7 C 9.95 g/m*3 14.7 C 0 km/h
1838 06-10-2010 07:43:02 14.6 C 10.01 g/m*3 14.6 C 0 km/h
1839 06-10-2010 07:55:02 14.6 C 10.01 g/m*3 14.6 C 0 km/h
1840 06-10-2010 08:07:01 14.5 C 10.07 g/m*3 14.5 C 0 km/h
1841 06-10-2010 08:19:02 14.3 C 9.95 g/m*3 14.3 C 0 km/h
1842 06-10-2010 08:31:01 14.1 C 9.95 g/m*3 14.1 C 0 km/h
1843 06-10-2010 08:43:01 14.5 C 10.32 g/m*3 14.5 C 0 km/h
1844 06-10-2010 08:55:01 15.2 C 10.64 g/m*3 15.2 C 0 km/h
1845 06-10-2010 09:07:01 15.6 C 10.64 g/m*3 15.6 C 0 km/h
1846 06-10-2010 09:19:02 15.5 C 10.31 g/m*3 15.5 C 0 km/h
1847 06-10-2010 09:31:01 15.3 C 10.06 g/m*3 15.3 C 0 km/h
1848 06-10-2010 09:43:01 15.6 C 9.84 g/m*3 15.6 C 0 km/h
1849 06-10-2010 09:55:02 15.7 C 9.77 g/m*3 15.7 C 0 km/h
1850 06-10-2010 10:07:01 15.9 C 10.16 g/m*3 15.9 C 0 km/h
Sensor: Nr:Datum:Temp:Abs-Feuchte:Windchill:Wind:
Aussen-T/F 1851 06-10-2010 10:19:01 16.2 C 9.93 g/m*3 16.2 C 0 km/h
1852 06-10-2010 10:31:01 16.3 C 9.99 g/m*3 16.3 C 0 km/h
1853 06-10-2010 10:43:01 16.4 C 9.63 g/m*3 16.4 C 0 km/h
1854 06-10-2010 10:55:02 16.4 C 9.91 g/m*3 16.4 C 0 km/h
1855 06-10-2010 11:07:01 17.1 C 9.46 g/m*3 17.1 C 0 km/h
1856 06-10-2010 11:19:01 17.2 C 9.37 g/m*3 17.2 C 0 km/h
1857 06-10-2010 11:31:02 17.7 C 9.35 g/m*3 17.7 C 0 km/h
1858 06-10-2010 11:43:02 18.2 C 9.01 g/m*3 18.2 C 0 km/h
1859 06-10-2010 11:55:01 18.6 C 9.07 g/m*3 18.6 C 0 km/h
1860 06-10-2010 12:07:02 18.9 C 8.91 g/m*3 18.9 C 0 km/h
1861 06-10-2010 12:19:01 18.8 C 8.7 g/m*3 18.8 C 0 km/h
1862 06-10-2010 12:31:02 19 C 8.64 g/m*3 19 C 0 km/h
1863 06-10-2010 12:43:02 19.2 C 8.57 g/m*3 19.2 C 0 km/h
1864 06-10-2010 12:55:01 19.3 C 8.63 g/m*3 19.3 C 0 km/h
1865 06-10-2010 13:07:02 19.8 C 8.71 g/m*3 19.8 C 0 km/h
1866 06-10-2010 13:19:01 20.2 C 8.39 g/m*3 20.2 C 0 km/h
1867 06-10-2010 13:31:01 20.4 C 8.67 g/m*3 20.4 C 0 km/h
1868 06-10-2010 13:43:01 20.3 C 8.27 g/m*3 20.3 C 0 km/h
1869 06-10-2010 13:55:01 20.3 C 8.44 g/m*3 20.3 C 0 km/h
1870 06-10-2010 14:07:01 20.4 C 8.31 g/m*3 20.4 C 0 km/h
1871 06-10-2010 14:19:01 21 C 8.43 g/m*3 21 C 0 km/h
1872 06-10-2010 14:31:01 21.6 C 8.35 g/m*3 21.6 C 0 km/h
1873 06-10-2010 14:43:01 22.2 C 8.25 g/m*3 22.2 C 0 km/h
1874 06-10-2010 14:55:01 22.9 C 7.77 g/m*3 22.9 C 0 km/h
1875 06-10-2010 15:07:01 23.3 C 8.15 g/m*3 23.3 C 0 km/h
Sensor: Nr:Datum:Temp:Abs-Feuchte:Windchill:Wind:
Aussen-T/F 1876 06-10-2010 15:19:02 23.4 C 8.41 g/m*3 23.4 C 0 km/h
1877 06-10-2010 15:31:01 23.3 C 8.15 g/m*3 23.3 C 0 km/h
1878 06-10-2010 15:43:01 22.9 C 8.17 g/m*3 22.9 C 0 km/h
1879 06-10-2010 15:55:02 22.4 C 8.34 g/m*3 22.4 C 0 km/h
1880 06-10-2010 16:07:01 22.8 C 8.53 g/m*3 22.8 C 0 km/h
1881 06-10-2010 16:19:02 23.2 C 8.32 g/m*3 23.2 C 0 km/h
1882 06-10-2010 16:31:01 22.8 C 9.14 g/m*3 22.8 C 0 km/h
1883 06-10-2010 16:43:01 22.7 C 9.7 g/m*3 22.7 C 0 km/h
1884 06-10-2010 16:55:02 22.7 C 9.09 g/m*3 22.7 C 0 km/h
1885 06-10-2010 17:07:01 21.9 C 9.84 g/m*3 21.9 C 0 km/h
1886 06-10-2010 17:19:01 21.5 C 10.18 g/m*3 21.5 C 0 km/h
1887 06-10-2010 17:31:02 21.1 C 10.32 g/m*3 21.1 C 0 km/h
1888 06-10-2010 17:43:02 20.7 C 10.26 g/m*3 20.7 C 0 km/h
1889 06-10-2010 17:55:01 20.2 C 10.14 g/m*3 20.2 C 0 km/h
1890 06-10-2010 18:07:01 19.7 C 10.02 g/m*3 19.7 C 0 km/h
1891 06-10-2010 18:19:01 19.4 C 10.34 g/m*3 19.4 C 0 km/h
1892 06-10-2010 18:31:02 18.9 C 10.21 g/m*3 18.9 C 0 km/h
1893 06-10-2010 18:43:02 18.6 C 10.35 g/m*3 18.6 C 0 km/h
1894 06-10-2010 18:55:01 18.1 C 10.2 g/m*3 18.1 C 0 km/h
1895 06-10-2010 19:07:02 17.9 C 10.23 g/m*3 17.9 C 0 km/h
1896 06-10-2010 19:19:01 17.5 C 10.14 g/m*3 17.5 C 0 km/h
1897 06-10-2010 19:31:01 17.2 C 10.25 g/m*3 17.2 C 0 km/h
1898 06-10-2010 19:43:01 17 C 10.13 g/m*3 17 C 0 km/h
1899 06-10-2010 19:55:01 16.9 C 10.21 g/m*3 16.9 C 0 km/h
1900 06-10-2010 20:07:01 16.9 C 10.07 g/m*3 16.9 C 0 km/h
Sensor: Nr:Datum:Temp:Abs-Feuchte:Windchill:Wind:
Aussen-T/F 1901 06-10-2010 20:19:01 17 C 9.98 g/m*3 17 C 0 km/h
1902 06-10-2010 20:31:01 17 C 9.98 g/m*3 17 C 0 km/h
1903 06-10-2010 20:43:01 16.8 C 10.29 g/m*3 16.8 C 0 km/h
1904 06-10-2010 20:55:01 16.8 C 10.29 g/m*3 16.8 C 0 km/h
1905 06-10-2010 21:07:01 16.6 C 10.45 g/m*3 16.6 C 0 km/h
1906 06-10-2010 21:19:02 16.5 C 10.39 g/m*3 16.5 C 0 km/h
1907 06-10-2010 21:31:01 16.4 C 10.47 g/m*3 16.4 C 0 km/h
1908 06-10-2010 21:43:01 16.2 C 10.34 g/m*3 16.2 C 0 km/h
1909 06-10-2010 21:55:02 16.1 C 10.42 g/m*3 16.1 C 0 km/h
1910 06-10-2010 22:07:02 16 C 10.49 g/m*3 16 C 0 km/h
1911 06-10-2010 22:19:01 15.8 C 10.5 g/m*3 15.8 C 0 km/h
1912 06-10-2010 22:31:01 15.8 C 10.63 g/m*3 15.8 C 0 km/h
1913 06-10-2010 22:43:01 15.7 C 10.57 g/m*3 15.7 C 0 km/h
1914 06-10-2010 22:55:01 15.4 C 10.38 g/m*3 15.4 C 0 km/h
1915 06-10-2010 23:07:01 15.2 C 10.38 g/m*3 15.2 C 0 km/h
1916 06-10-2010 23:19:01 15 C 10.26 g/m*3 15 C 0 km/h
1917 06-10-2010 23:31:01 14.9 C 10.32 g/m*3 14.9 C 0 km/h
1918 06-10-2010 23:43:01 14.8 C 10.39 g/m*3 14.8 C 0 km/h
1919 06-10-2010 23:55:01 14.6 C 10.26 g/m*3 14.6 C 0 km/h
1920 07-10-2010 00:07:01 14.5 C 10.2 g/m*3 14.5 C 0 km/h
1921 07-10-2010 00:19:01 14.3 C 10.2 g/m*3 14.3 C 0 km/h
1922 07-10-2010 00:31:02 14.2 C 10.14 g/m*3 14.2 C 0 km/h
1923 07-10-2010 00:43:02 14.1 C 10.19 g/m*3 14.1 C 0 km/h
1924 07-10-2010 00:55:01 14 C 10.13 g/m*3 14 C 0 km/h
1925 07-10-2010 01:07:01 14 C 10.25 g/m*3 14 C 0 km/h
Sensor: Nr:Datum:Temp:Abs-Feuchte:Windchill:Wind:
Aussen-T/F 1926 07-10-2010 01:19:01 14.4 C 10.63 g/m*3 14.4 C 0 km/h
1927 07-10-2010 01:31:02 14.3 C 10.57 g/m*3 14.3 C 0 km/h
1928 07-10-2010 01:43:02 14.2 C 10.5 g/m*3 14.2 C 0 km/h
1929 07-10-2010 01:55:01 14.3 C 10.57 g/m*3 14.3 C 0 km/h
1930 07-10-2010 02:07:02 14.3 C 10.57 g/m*3 14.3 C 0 km/h
1931 07-10-2010 02:19:01 14.2 C 10.38 g/m*3 14.2 C 0 km/h
1932 07-10-2010 02:31:01 14.2 C 10.38 g/m*3 14.2 C 0 km/h
1933 07-10-2010 02:43:01 14.3 C 10.44 g/m*3 14.3 C 0 km/h
1934 07-10-2010 02:55:01 14.2 C 10.38 g/m*3 14.2 C 0 km/h
1935 07-10-2010 03:07:01 14.2 C 10.38 g/m*3 14.2 C 0 km/h
1936 07-10-2010 03:19:02 14.2 C 10.38 g/m*3 14.2 C 0 km/h
1937 07-10-2010 03:31:01 14 C 10.25 g/m*3 14 C 0 km/h
1938 07-10-2010 03:43:01 14 C 10.37 g/m*3 14 C 0 km/h
1939 07-10-2010 03:55:01 14 C 10.37 g/m*3 14 C 0 km/h
1940 07-10-2010 04:07:02 14.5 C 10.7 g/m*3 14.5 C 0 km/h
1941 07-10-2010 04:19:01 13.9 C 10.43 g/m*3 13.9 C 0 km/h
1942 07-10-2010 04:31:01 13.9 C 10.43 g/m*3 13.9 C 0 km/h
1943 07-10-2010 04:43:01 13.5 C 10.06 g/m*3 13.5 C 0 km/h
1944 07-10-2010 04:55:01 13.3 C 9.94 g/m*3 13.3 C 0 km/h
1945 07-10-2010 05:07:01 13.1 C 9.93 g/m*3 13.1 C 0 km/h
1946 07-10-2010 05:20:01 13 C 9.87 g/m*3 13 C 0 km/h
1947 07-10-2010 05:31:01 13.1 C 10.04 g/m*3 13.1 C 0 km/h
1948 07-10-2010 05:43:01 13.6 C 10.47 g/m*3 13.6 C 0 km/h
1949 07-10-2010 05:56:01 13.7 C 10.54 g/m*3 13.7 C 0 km/h
1950 07-10-2010 06:07:01 13.8 C 10.48 g/m*3 13.8 C 0 km/h
Sensor: Nr:Datum:Temp:Abs-Feuchte:Windchill:Wind:
Aussen-T/F 1951 07-10-2010 06:19:02 13.8 C 10.48 g/m*3 13.8 C 0 km/h
1952 07-10-2010 06:32:01 13.8 C 10.48 g/m*3 13.8 C 0 km/h
1953 07-10-2010 06:44:01 13.9 C 10.55 g/m*3 13.9 C 0 km/h
1954 07-10-2010 06:55:02 13.9 C 10.55 g/m*3 13.9 C 0 km/h
1955 07-10-2010 07:08:01 13.8 C 10.48 g/m*3 13.8 C 0 km/h
1956 07-10-2010 07:20:01 14 C 10.49 g/m*3 14 C 0 km/h
1957 07-10-2010 07:31:02 14.1 C 10.56 g/m*3 14.1 C 0 km/h
1958 07-10-2010 07:43:02 14.4 C 10.75 g/m*3 14.4 C 0 km/h
1959 07-10-2010 07:56:01 14.3 C 10.69 g/m*3 14.3 C 0 km/h
1960 07-10-2010 08:08:01 14.4 C 10.75 g/m*3 14.4 C 0 km/h
1961 07-10-2010 08:20:01 14.6 C 10.89 g/m*3 14.6 C 0 km/h
1962 07-10-2010 08:32:02 14.7 C 10.95 g/m*3 14.7 C 0 km/h
1963 07-10-2010 08:44:02 14.8 C 11.02 g/m*3 14.8 C 0 km/h
1964 07-10-2010 08:56:01 14.8 C 10.89 g/m*3 14.8 C 0 km/h
1965 07-10-2010 09:08:02 14.8 C 10.77 g/m*3 14.8 C 0 km/h
1966 07-10-2010 09:20:01 14.7 C 10.45 g/m*3 14.7 C 0 km/h
1967 07-10-2010 09:32:01 14.8 C 10.51 g/m*3 14.8 C 0 km/h
1968 07-10-2010 09:44:01 15.3 C 10.71 g/m*3 15.3 C 0 km/h
1969 07-10-2010 09:56:01 15.7 C 10.57 g/m*3 15.7 C 0 km/h
1970 07-10-2010 10:08:01 16.2 C 10.48 g/m*3 16.2 C 0 km/h
1971 07-10-2010 10:20:02 16.1 C 10.14 g/m*3 16.1 C 0 km/h
1972 07-10-2010 10:32:01 16.2 C 10.34 g/m*3 16.2 C 0 km/h
1973 07-10-2010 10:44:01 16.2 C 10.34 g/m*3 16.2 C 0 km/h
1974 07-10-2010 10:56:01 16.2 C 10.34 g/m*3 16.2 C 0 km/h
1975 07-10-2010 11:08:01 16.7 C 10.52 g/m*3 16.7 C 0 km/h
Sensor: Nr:Datum:Temp:Abs-Feuchte:Windchill:Wind:
Aussen-T/F 1976 07-10-2010 11:20:02 17.1 C 10.34 g/m*3 17.1 C 0 km/h
1977 07-10-2010 11:32:01 17.3 C 10.31 g/m*3 17.3 C 0 km/h
1978 07-10-2010 11:44:01 17.4 C 10.08 g/m*3 17.4 C 0 km/h
1979 07-10-2010 11:56:02 17.8 C 10.32 g/m*3 17.8 C 0 km/h
1980 07-10-2010 12:08:01 18.1 C 9.89 g/m*3 18.1 C 0 km/h
1981 07-10-2010 12:20:01 18.3 C 10.01 g/m*3 18.3 C 0 km/h
1982 07-10-2010 12:32:02 18.3 C 10.01 g/m*3 18.3 C 0 km/h
1983 07-10-2010 12:44:02 18.7 C 10.09 g/m*3 18.7 C 0 km/h
1984 07-10-2010 12:56:01 18.6 C 9.87 g/m*3 18.6 C 0 km/h
1985 07-10-2010 13:08:02 18.8 C 10.15 g/m*3 18.8 C 0 km/h
1986 07-10-2010 13:20:01 19.2 C 10.06 g/m*3 19.2 C 0 km/h
1987 07-10-2010 13:32:02 19.3 C 9.62 g/m*3 19.3 C 0 km/h
1988 07-10-2010 13:44:02 19.5 C 9.73 g/m*3 19.5 C 0 km/h
1989 07-10-2010 13:56:01 19.5 C 9.57 g/m*3 19.5 C 0 km/h
1990 07-10-2010 14:08:02 19.7 C 9.85 g/m*3 19.7 C 0 km/h
1991 07-10-2010 14:20:01 19.8 C 9.91 g/m*3 19.8 C 0 km/h
1992 07-10-2010 14:32:01 19.7 C 9.68 g/m*3 19.7 C 0 km/h
1993 07-10-2010 14:44:01 19.9 C 9.79 g/m*3 19.9 C 0 km/h
1994 07-10-2010 14:56:01 20.3 C 9.67 g/m*3 20.3 C 0 km/h
1995 07-10-2010 15:08:01 20.5 C 9.43 g/m*3 20.5 C 0 km/h
1996 07-10-2010 15:20:01 20.8 C 9.6 g/m*3 20.8 C 0 km/h
1997 07-10-2010 15:32:01 20.7 C 9.54 g/m*3 20.7 C 0 km/h
1998 07-10-2010 15:44:01 20.4 C 9.38 g/m*3 20.4 C 0 km/h
1999 07-10-2010 15:56:01 20.1 C 9.56 g/m*3 20.1 C 0 km/h
2000 07-10-2010 16:08:01 20 C 9.68 g/m*3 20 C 0 km/h
Sensor: Nr:Datum:Temp:Abs-Feuchte:Windchill:Wind:
Aussen-T/F 2001 07-10-2010 16:20:02 20.4 C 9.55 g/m*3 20.4 C 0 km/h
2002 07-10-2010 16:32:01 20.1 C 9.39 g/m*3 20.1 C 0 km/h
2003 07-10-2010 16:44:01 19.6 C 9.45 g/m*3 19.6 C 0 km/h
2004 07-10-2010 16:56:02 19.6 C 9.28 g/m*3 19.6 C 0 km/h
2005 07-10-2010 17:08:01 19.6 C 9.45 g/m*3 19.6 C 0 km/h
2006 07-10-2010 17:20:01 19.3 C 9.45 g/m*3 19.3 C 0 km/h
2007 07-10-2010 17:32:02 19.2 C 9.56 g/m*3 19.2 C 0 km/h
2008 07-10-2010 17:44:02 19 C 9.45 g/m*3 19 C 0 km/h
2009 07-10-2010 17:56:01 18.7 C 9.93 g/m*3 18.7 C 0 km/h
2010 07-10-2010 18:08:02 18.3 C 10.01 g/m*3 18.3 C 0 km/h
2011 07-10-2010 18:20:01 18.1 C 10.2 g/m*3 18.1 C 0 km/h
2012 07-10-2010 18:32:02 17.9 C 10.23 g/m*3 17.9 C 0 km/h
2013 07-10-2010 18:44:02 17.7 C 10.26 g/m*3 17.7 C 0 km/h
2014 07-10-2010 18:56:01 17.4 C 10.37 g/m*3 17.4 C 0 km/h
2015 07-10-2010 19:08:02 17.1 C 10.34 g/m*3 17.1 C 0 km/h
2016 07-10-2010 19:20:01 17 C 10.42 g/m*3 17 C 0 km/h
2017 07-10-2010 19:32:01 16.8 C 10.44 g/m*3 16.8 C 0 km/h
2018 07-10-2010 19:44:01 17 C 10.42 g/m*3 17 C 0 km/h
2019 07-10-2010 19:56:01 16.6 C 10.31 g/m*3 16.6 C 0 km/h
2020 07-10-2010 20:08:01 16.5 C 10.39 g/m*3 16.5 C 0 km/h
2021 07-10-2010 20:20:02 16.4 C 10.33 g/m*3 16.4 C 0 km/h
2022 07-10-2010 20:32:01 16.2 C 10.34 g/m*3 16.2 C 0 km/h
2023 07-10-2010 20:44:01 16.2 C 10.34 g/m*3 16.2 C 0 km/h
2024 07-10-2010 20:56:02 16.2 C 10.34 g/m*3 16.2 C 0 km/h
2025 07-10-2010 21:08:01 16.3 C 10.13 g/m*3 16.3 C 0 km/h
Sensor: Nr:Datum:Temp:Abs-Feuchte:Windchill:Wind:
Aussen-T/F 2026 07-10-2010 21:20:02 16.3 C 10.27 g/m*3 16.3 C 0 km/h
2027 07-10-2010 21:32:01 16.2 C 10.2 g/m*3 16.2 C 0 km/h
2028 07-10-2010 21:44:01 16.2 C 10.07 g/m*3 16.2 C 0 km/h
2029 07-10-2010 21:56:02 16.1 C 10.01 g/m*3 16.1 C 0 km/h
2030 07-10-2010 22:08:01 16 C 9.95 g/m*3 16 C 0 km/h
2031 07-10-2010 22:20:02 16 C 9.95 g/m*3 16 C 0 km/h
2032 07-10-2010 22:32:02 16 C 9.95 g/m*3 16 C 0 km/h
2033 07-10-2010 22:44:02 16 C 9.81 g/m*3 16 C 0 km/h
2034 07-10-2010 22:56:02 16 C 9.67 g/m*3 16 C 0 km/h
2035 07-10-2010 23:08:02 16.1 C 9.73 g/m*3 16.1 C 0 km/h
2036 07-10-2010 23:20:02 16 C 9.67 g/m*3 16 C 0 km/h
2037 07-10-2010 23:32:02 16 C 9.67 g/m*3 16 C 0 km/h
2038 07-10-2010 23:44:02 16 C 9.81 g/m*3 16 C 0 km/h
2039 07-10-2010 23:56:02 16 C 9.81 g/m*3 16 C 0 km/h
2040 08-10-2010 00:08:03 15.8 C 9.83 g/m*3 15.8 C 0 km/h
2041 08-10-2010 00:20:03 15.9 C 10.02 g/m*3 15.9 C 0 km/h
2042 08-10-2010 00:32:03 15.8 C 9.96 g/m*3 15.8 C 0 km/h
2043 08-10-2010 00:44:03 15.8 C 9.96 g/m*3 15.8 C 0 km/h
2044 08-10-2010 00:56:03 15.8 C 9.69 g/m*3 15.8 C 0 km/h
2045 08-10-2010 01:08:03 15.7 C 9.77 g/m*3 15.7 C 0 km/h
2046 08-10-2010 01:20:03 15.7 C 9.77 g/m*3 15.7 C 0 km/h
2047 08-10-2010 01:32:03 15.6 C 9.71 g/m*3 15.6 C 0 km/h
2048 08-10-2010 01:44:03 15.5 C 9.52 g/m*3 15.5 C 0 km/h
2049 08-10-2010 01:56:03 15.6 C 9.58 g/m*3 15.6 C 0 km/h
2050 08-10-2010 02:08:03 15.6 C 9.58 g/m*3 15.6 C 0 km/h
Sensor: Nr:Datum:Temp:Abs-Feuchte:Windchill:Wind:
Aussen-T/F 2051 08-10-2010 02:20:03 15.5 C 9.39 g/m*3 15.5 C 0 km/h
2052 08-10-2010 02:32:03 15.4 C 9.33 g/m*3 15.4 C 0 km/h
2053 08-10-2010 02:44:03 15.4 C 9.33 g/m*3 15.4 C 0 km/h
2054 08-10-2010 02:56:03 15.3 C 9.14 g/m*3 15.3 C 0 km/h
2055 08-10-2010 03:08:03 15.2 C 8.96 g/m*3 15.2 C 0 km/h
2056 08-10-2010 03:20:03 15 C 8.98 g/m*3 15 C 0 km/h
2057 08-10-2010 03:32:03 14.9 C 8.79 g/m*3 14.9 C 0 km/h
2058 08-10-2010 03:44:03 14.8 C 8.49 g/m*3 14.8 C 0 km/h
2059 08-10-2010 03:56:03 14.7 C 8.56 g/m*3 14.7 C 0 km/h
2060 08-10-2010 04:08:03 14.7 C 8.56 g/m*3 14.7 C 0 km/h
2061 08-10-2010 04:20:03 14.6 C 8.51 g/m*3 14.6 C 0 km/h
2062 08-10-2010 04:32:04 14.5 C 8.58 g/m*3 14.5 C 0 km/h
2063 08-10-2010 04:44:04 14.4 C 8.53 g/m*3 14.4 C 0 km/h
2064 08-10-2010 04:56:04 14.4 C 8.65 g/m*3 14.4 C 0 km/h
2065 08-10-2010 05:08:04 14.3 C 8.72 g/m*3 14.3 C 0 km/h
2066 08-10-2010 05:20:04 14.3 C 8.85 g/m*3 14.3 C 0 km/h
2067 08-10-2010 05:32:04 14.3 C 8.85 g/m*3 14.3 C 0 km/h
2068 08-10-2010 05:44:04 14.1 C 8.74 g/m*3 14.1 C 0 km/h
2069 08-10-2010 05:56:04 14.2 C 8.91 g/m*3 14.2 C 0 km/h
2070 08-10-2010 06:08:04 14.1 C 8.86 g/m*3 14.1 C 0 km/h
2071 08-10-2010 06:20:04 14 C 8.93 g/m*3 14 C 0 km/h
2072 08-10-2010 06:32:04 14 C 8.93 g/m*3 14 C 0 km/h
2073 08-10-2010 06:44:04 13.9 C 8.99 g/m*3 13.9 C 0 km/h
2074 08-10-2010 06:56:04 13.9 C 9.11 g/m*3 13.9 C 0 km/h
2075 08-10-2010 07:08:04 13.9 C 9.11 g/m*3 13.9 C 0 km/h
Sensor: Nr:Datum:Temp:Abs-Feuchte:Windchill:Wind:
Aussen-T/F 2076 08-10-2010 07:20:01 14 C 9.17 g/m*3 14 C 0 km/h
2077 08-10-2010 07:32:01 14.1 C 9.22 g/m*3 14.1 C 0 km/h
2078 08-10-2010 07:44:01 14.1 C 9.1 g/m*3 14.1 C 0 km/h
2079 08-10-2010 07:56:01 14 C 9.05 g/m*3 14 C 0 km/h
2080 08-10-2010 08:08:02 14 C 9.05 g/m*3 14 C 0 km/h
2081 08-10-2010 08:20:02 14.1 C 9.1 g/m*3 14.1 C 0 km/h
2082 08-10-2010 08:32:01 14.2 C 9.28 g/m*3 14.2 C 0 km/h
2083 08-10-2010 08:44:01 14.3 C 9.34 g/m*3 14.3 C 0 km/h
2084 08-10-2010 08:56:02 14.4 C 9.39 g/m*3 14.4 C 0 km/h
2085 08-10-2010 09:08:01 14.4 C 9.27 g/m*3 14.4 C 0 km/h
2086 08-10-2010 09:20:01 14.5 C 9.33 g/m*3 14.5 C 0 km/h
2087 08-10-2010 09:32:02 14.6 C 9.51 g/m*3 14.6 C 0 km/h
2088 08-10-2010 09:44:02 14.7 C 9.44 g/m*3 14.7 C 0 km/h
2089 08-10-2010 09:56:02 14.8 C 9.5 g/m*3 14.8 C 0 km/h
2090 08-10-2010 10:08:01 14.9 C 9.43 g/m*3 14.9 C 0 km/h
2091 08-10-2010 10:20:02 15.1 C 9.42 g/m*3 15.1 C 0 km/h
2092 08-10-2010 10:32:02 15.3 C 9.53 g/m*3 15.3 C 0 km/h
2093 08-10-2010 10:44:02 15.4 C 9.33 g/m*3 15.4 C 0 km/h
2094 08-10-2010 10:56:02 15.7 C 9.63 g/m*3 15.7 C 0 km/h
2095 08-10-2010 11:08:02 15.7 C 9.23 g/m*3 15.7 C 0 km/h
2096 08-10-2010 11:20:02 15.8 C 9.42 g/m*3 15.8 C 0 km/h
2097 08-10-2010 11:32:02 15.8 C 9.29 g/m*3 15.8 C 0 km/h
2098 08-10-2010 11:44:02 15.9 C 9.21 g/m*3 15.9 C 0 km/h
2099 08-10-2010 11:56:02 16.1 C 9.32 g/m*3 16.1 C 0 km/h
2100 08-10-2010 12:08:02 16.3 C 9.43 g/m*3 16.3 C 0 km/h
Sensor: Nr:Datum:Temp:Abs-Feuchte:Windchill:Wind:
Aussen-T/F 2101 08-10-2010 12:20:03 16.5 C 9.13 g/m*3 16.5 C 0 km/h
2102 08-10-2010 12:32:02 16.6 C 9.04 g/m*3 16.6 C 0 km/h
2103 08-10-2010 12:44:02 16.6 C 8.9 g/m*3 16.6 C 0 km/h
2104 08-10-2010 12:56:02 16.7 C 8.95 g/m*3 16.7 C 0 km/h
2105 08-10-2010 13:08:02 16.7 C 8.81 g/m*3 16.7 C 0 km/h
2106 08-10-2010 13:20:02 17 C 8.83 g/m*3 17 C 0 km/h
2107 08-10-2010 13:32:02 17 C 8.83 g/m*3 17 C 0 km/h
2108 08-10-2010 13:44:02 17 C 8.54 g/m*3 17 C 0 km/h
2109 08-10-2010 13:56:02 17 C 8.83 g/m*3 17 C 0 km/h
2110 08-10-2010 14:08:02 17.6 C 9 g/m*3 17.6 C 0 km/h
2111 08-10-2010 14:20:02 18.1 C 8.81 g/m*3 18.1 C 0 km/h
2112 08-10-2010 14:32:02 18.6 C 8.75 g/m*3 18.6 C 0 km/h
2113 08-10-2010 14:44:02 19.7 C 8.66 g/m*3 19.7 C 0 km/h
2114 08-10-2010 14:56:02 19.8 C 8.54 g/m*3 19.8 C 0 km/h
2115 08-10-2010 15:08:02 19.7 C 8.66 g/m*3 19.7 C 0 km/h
2116 08-10-2010 15:20:01 19.9 C 8.25 g/m*3 19.9 C 0 km/h
2117 08-10-2010 15:32:02 20.4 C 8.67 g/m*3 20.4 C 0 km/h
2118 08-10-2010 15:44:02 20.6 C 8.59 g/m*3 20.6 C 0 km/h
2119 08-10-2010 15:56:02 21 C 8.43 g/m*3 21 C 0 km/h
2120 08-10-2010 16:08:02 22 C 8.73 g/m*3 22 C 0 km/h
2121 08-10-2010 16:20:02 22.1 C 8.98 g/m*3 22.1 C 0 km/h
2122 08-10-2010 16:32:02 22.5 C 9.19 g/m*3 22.5 C 0 km/h
2123 08-10-2010 16:44:02 22.4 C 8.74 g/m*3 22.4 C 0 km/h
2124 08-10-2010 16:56:02 22 C 9.12 g/m*3 22 C 0 km/h
2125 08-10-2010 17:08:02 22.1 C 9.17 g/m*3 22.1 C 0 km/h
Sensor: Nr:Datum:Temp:Abs-Feuchte:Windchill:Wind:
Aussen-T/F 2126 08-10-2010 17:20:03 22.1 C 9.17 g/m*3 22.1 C 0 km/h
2127 08-10-2010 17:32:02 21.9 C 9.26 g/m*3 21.9 C 0 km/h
2128 08-10-2010 17:44:02 21.6 C 9.29 g/m*3 21.6 C 0 km/h
2129 08-10-2010 17:56:02 21.2 C 9.27 g/m*3 21.2 C 0 km/h
2130 08-10-2010 18:08:02 20.6 C 9.49 g/m*3 20.6 C 0 km/h
2131 08-10-2010 18:20:03 20 C 9.51 g/m*3 20 C 0 km/h
2132 08-10-2010 18:32:02 19.3 C 9.62 g/m*3 19.3 C 0 km/h
2133 08-10-2010 18:44:02 18.1 C 9.73 g/m*3 18.1 C 0 km/h
2134 08-10-2010 18:56:02 17.3 C 9.87 g/m*3 17.3 C 0 km/h
2135 08-10-2010 19:08:02 16.9 C 10.21 g/m*3 16.9 C 0 km/h
2136 08-10-2010 19:20:02 16.1 C 10.01 g/m*3 16.1 C 0 km/h
2137 08-10-2010 19:32:02 15.8 C 9.96 g/m*3 15.8 C 0 km/h
2138 08-10-2010 19:44:02 15.4 C 9.85 g/m*3 15.4 C 0 km/h
2139 08-10-2010 19:56:02 15.2 C 9.86 g/m*3 15.2 C 0 km/h
2140 08-10-2010 20:08:02 15 C 9.75 g/m*3 15 C 0 km/h
2141 08-10-2010 20:20:02 14.9 C 9.81 g/m*3 14.9 C 0 km/h
2142 08-10-2010 20:32:02 14.8 C 9.88 g/m*3 14.8 C 0 km/h
2143 08-10-2010 20:44:02 14.7 C 9.82 g/m*3 14.7 C 0 km/h
2144 08-10-2010 20:56:02 14.5 C 9.7 g/m*3 14.5 C 0 km/h
2145 08-10-2010 21:08:02 14.4 C 9.77 g/m*3 14.4 C 0 km/h
2146 08-10-2010 21:20:02 14.2 C 9.65 g/m*3 14.2 C 0 km/h
2147 08-10-2010 21:32:02 14.1 C 9.59 g/m*3 14.1 C 0 km/h
2148 08-10-2010 21:44:02 14 C 9.65 g/m*3 14 C 0 km/h
2149 08-10-2010 21:56:01 13.7 C 9.59 g/m*3 13.7 C 0 km/h
2150 08-10-2010 22:08:01 13.5 C 9.59 g/m*3 13.5 C 0 km/h
Sensor: Nr:Datum:Temp:Abs-Feuchte:Windchill:Wind:
Aussen-T/F 2151 08-10-2010 22:20:02 13.5 C 9.59 g/m*3 13.5 C 0 km/h
2152 08-10-2010 22:33:02 13.3 C 9.47 g/m*3 13.3 C 0 km/h
2153 08-10-2010 22:45:02 13.1 C 9.47 g/m*3 13.1 C 0 km/h
2154 08-10-2010 22:57:02 13 C 9.41 g/m*3 13 C 0 km/h
2155 08-10-2010 23:09:02 12.9 C 9.47 g/m*3 12.9 C 0 km/h
2156 08-10-2010 23:21:02 12.7 C 9.35 g/m*3 12.7 C 0 km/h
2157 08-10-2010 23:33:02 12.6 C 9.29 g/m*3 12.6 C 0 km/h
2158 08-10-2010 23:45:02 12.4 C 9.18 g/m*3 12.4 C 0 km/h
2159 08-10-2010 23:57:02 12.3 C 9.23 g/m*3 12.3 C 0 km/h
2160 09-10-2010 00:09:02 12.1 C 9.12 g/m*3 12.1 C 0 km/h
2161 09-10-2010 00:21:03 12 C 9.06 g/m*3 12 C 0 km/h
2162 09-10-2010 00:33:03 11.9 C 9.11 g/m*3 11.9 C 0 km/h
2163 09-10-2010 00:45:03 11.7 C 9.1 g/m*3 11.7 C 0 km/h
2164 09-10-2010 00:57:03 11.8 C 9.16 g/m*3 11.8 C 0 km/h
2165 09-10-2010 01:09:03 11.5 C 8.99 g/m*3 11.5 C 0 km/h
2166 09-10-2010 01:21:03 11.5 C 8.99 g/m*3 11.5 C 0 km/h
2167 09-10-2010 01:33:03 11.4 C 9.03 g/m*3 11.4 C 0 km/h
2168 09-10-2010 01:45:03 11.2 C 8.92 g/m*3 11.2 C 0 km/h
2169 09-10-2010 01:57:03 11.1 C 8.86 g/m*3 11.1 C 0 km/h
2170 09-10-2010 02:09:03 11 C 8.81 g/m*3 11 C 0 km/h
2171 09-10-2010 02:21:03 10.9 C 8.85 g/m*3 10.9 C 0 km/h
2172 09-10-2010 02:33:03 10.7 C 8.64 g/m*3 10.7 C 0 km/h
2173 09-10-2010 02:45:03 10.6 C 8.59 g/m*3 10.6 C 0 km/h
2174 09-10-2010 02:57:03 10.5 C 8.53 g/m*3 10.5 C 0 km/h
2175 09-10-2010 03:09:03 10.4 C 8.48 g/m*3 10.4 C 0 km/h
Sensor: Nr:Datum:Temp:Abs-Feuchte:Windchill:Wind:
Aussen-T/F 2176 09-10-2010 03:21:03 10.3 C 8.43 g/m*3 10.3 C 0 km/h
2177 09-10-2010 03:33:03 10.2 C 8.37 g/m*3 10.2 C 0 km/h
2178 09-10-2010 03:45:03 10.2 C 8.47 g/m*3 10.2 C 0 km/h
2179 09-10-2010 03:57:03 10.1 C 8.42 g/m*3 10.1 C 0 km/h
2180 09-10-2010 04:09:03 10 C 8.36 g/m*3 10 C 0 km/h
2181 09-10-2010 04:21:03 9.8 C 8.35 g/m*3 9.8 C 0 km/h
2182 09-10-2010 04:33:04 9.8 C 8.35 g/m*3 9.8 C 0 km/h
2183 09-10-2010 04:45:04 9.7 C 8.3 g/m*3 9.7 C 0 km/h
2184 09-10-2010 04:57:04 9.6 C 8.24 g/m*3 9.6 C 0 km/h
2185 09-10-2010 05:09:04 9.6 C 8.34 g/m*3 9.6 C 0 km/h
2186 09-10-2010 05:21:04 9.5 C 8.28 g/m*3 9.5 C 0 km/h
2187 09-10-2010 05:33:04 9.4 C 8.23 g/m*3 9.4 C 0 km/h
2188 09-10-2010 05:45:04 9.5 C 8.28 g/m*3 9.5 C 0 km/h
2189 09-10-2010 05:57:04 9.6 C 8.34 g/m*3 9.6 C 0 km/h
2190 09-10-2010 06:09:04 9.6 C 8.34 g/m*3 9.6 C 0 km/h
2191 09-10-2010 06:21:04 9.5 C 8.37 g/m*3 9.5 C 0 km/h
2192 09-10-2010 06:33:04 9.4 C 8.32 g/m*3 9.4 C 0 km/h
2193 09-10-2010 06:45:04 9.3 C 8.27 g/m*3 9.3 C 0 km/h
2194 09-10-2010 06:57:04 9.3 C 8.27 g/m*3 9.3 C 0 km/h
2195 09-10-2010 07:09:04 9.3 C 8.27 g/m*3 9.3 C 0 km/h
2196 09-10-2010 07:21:04 9.2 C 8.22 g/m*3 9.2 C 0 km/h
2197 09-10-2010 07:33:04 9.1 C 8.16 g/m*3 9.1 C 0 km/h
2198 09-10-2010 07:45:04 9.2 C 8.22 g/m*3 9.2 C 0 km/h
2199 09-10-2010 07:57:04 9.4 C 8.32 g/m*3 9.4 C 0 km/h
2200 09-10-2010 08:09:04 9.2 C 8.22 g/m*3 9.2 C 0 km/h
Sensor: Nr:Datum:Temp:Abs-Feuchte:Windchill:Wind:
Aussen-T/F 2201 09-10-2010 08:21:04 9.2 C 8.22 g/m*3 9.2 C 0 km/h
2202 09-10-2010 08:33:02 9.2 C 8.22 g/m*3 9.2 C 0 km/h
2203 09-10-2010 08:45:02 9.2 C 8.22 g/m*3 9.2 C 0 km/h
2204 09-10-2010 08:57:02 9.2 C 8.22 g/m*3 9.2 C 0 km/h
2205 09-10-2010 09:09:02 9.2 C 8.22 g/m*3 9.2 C 0 km/h
2206 09-10-2010 09:21:02 9.2 C 8.22 g/m*3 9.2 C 0 km/h
2207 09-10-2010 09:33:02 9.2 C 8.13 g/m*3 9.2 C 0 km/h
2208 09-10-2010 09:45:02 9.3 C 8.27 g/m*3 9.3 C 0 km/h
2209 09-10-2010 09:57:02 9.5 C 8.37 g/m*3 9.5 C 0 km/h
2210 09-10-2010 10:09:02 9.7 C 8.48 g/m*3 9.7 C 0 km/h
2211 09-10-2010 10:21:01 10 C 8.55 g/m*3 10 C 0 km/h
2212 09-10-2010 10:33:02 10.5 C 8.92 g/m*3 10.5 C 0 km/h
2213 09-10-2010 10:45:02 10.8 C 9.09 g/m*3 10.8 C 0 km/h
2214 09-10-2010 10:57:02 11.2 C 9.33 g/m*3 11.2 C 0 km/h
2215 09-10-2010 11:09:02 11.7 C 9.62 g/m*3 11.7 C 0 km/h
2216 09-10-2010 11:21:02 12.1 C 9.65 g/m*3 12.1 C 0 km/h
2217 09-10-2010 11:33:02 12.5 C 9.68 g/m*3 12.5 C 0 km/h
2218 09-10-2010 11:45:02 12.9 C 9.47 g/m*3 12.9 C 0 km/h
2219 09-10-2010 11:57:02 13.4 C 9.18 g/m*3 13.4 C 0 km/h
2220 09-10-2010 12:09:02 13.7 C 8.76 g/m*3 13.7 C 0 km/h
2221 09-10-2010 12:21:01 14.4 C 8.28 g/m*3 14.4 C 0 km/h
2222 09-10-2010 12:33:02 14.7 C 7.81 g/m*3 14.7 C 0 km/h
2223 09-10-2010 12:45:01 15.1 C 8.39 g/m*3 15.1 C 0 km/h
2224 09-10-2010 12:57:01 15.5 C 7.67 g/m*3 15.5 C 0 km/h
2225 09-10-2010 13:09:02 16.1 C 7.95 g/m*3 16.1 C 0 km/h
Sensor: Nr:Datum:Temp:Abs-Feuchte:Windchill:Wind:
Aussen-T/F 2226 09-10-2010 13:21:02 16.6 C 8.05 g/m*3 16.6 C 0 km/h
2227 09-10-2010 13:33:02 17 C 8.1 g/m*3 17 C 0 km/h
2228 09-10-2010 13:45:02 17.6 C 7.8 g/m*3 17.6 C 0 km/h
2229 09-10-2010 13:57:02 18.2 C 7.46 g/m*3 18.2 C 0 km/h
2230 09-10-2010 14:09:01 19 C 6.84 g/m*3 19 C 0 km/h
2231 09-10-2010 14:21:02 19.5 C 7.05 g/m*3 19.5 C 0 km/h
2232 09-10-2010 14:33:02 20 C 7.09 g/m*3 20 C 0 km/h
2233 09-10-2010 14:45:02 20.4 C 6.72 g/m*3 20.4 C 0 km/h
2234 09-10-2010 14:57:02 20.9 C 7.47 g/m*3 20.9 C 0 km/h
2235 09-10-2010 15:09:02 21.4 C 6.75 g/m*3 21.4 C 0 km/h
2236 09-10-2010 15:21:02 21.8 C 6.72 g/m*3 21.8 C 0 km/h
2237 09-10-2010 15:33:02 21.7 C 5.91 g/m*3 21.7 C 0 km/h
2238 09-10-2010 15:45:02 22.1 C 6.25 g/m*3 22.1 C 0 km/h
2239 09-10-2010 15:57:02 22.3 C 5.73 g/m*3 22.3 C 0 km/h
2240 09-10-2010 16:09:01 22.4 C 6.16 g/m*3 22.4 C 0 km/h
2241 09-10-2010 16:21:02 22.4 C 6.16 g/m*3 22.4 C 0 km/h
2242 09-10-2010 16:33:02 22.4 C 6.36 g/m*3 22.4 C 0 km/h
2243 09-10-2010 16:45:01 22 C 6.21 g/m*3 22 C 0 km/h
2244 09-10-2010 16:57:01 21.6 C 6.26 g/m*3 21.6 C 0 km/h
2245 09-10-2010 17:09:02 21.3 C 5.96 g/m*3 21.3 C 0 km/h
2246 09-10-2010 17:21:01 21.3 C 6.15 g/m*3 21.3 C 0 km/h
2247 09-10-2010 17:33:01 21.1 C 6.26 g/m*3 21.1 C 0 km/h
2248 09-10-2010 17:45:01 20.6 C 6.26 g/m*3 20.6 C 0 km/h
2249 09-10-2010 17:57:01 19.7 C 6.28 g/m*3 19.7 C 0 km/h
2250 09-10-2010 18:09:02 19.1 C 6.23 g/m*3 19.1 C 0 km/h
Sensor: Nr:Datum:Temp:Abs-Feuchte:Windchill:Wind:
Aussen-T/F 2251 09-10-2010 18:21:01 18.2 C 6.22 g/m*3 18.2 C 0 km/h
2252 09-10-2010 18:33:01 17 C 6.37 g/m*3 17 C 0 km/h
2253 09-10-2010 18:45:01 15.8 C 6.33 g/m*3 15.8 C 0 km/h
2254 09-10-2010 18:57:01 15 C 6.03 g/m*3 15 C 0 km/h
2255 09-10-2010 19:09:02 14.6 C 6.01 g/m*3 14.6 C 0 km/h
2256 09-10-2010 19:21:02 14 C 6.03 g/m*3 14 C 0 km/h
2257 09-10-2010 19:33:01 13.8 C 5.96 g/m*3 13.8 C 0 km/h
2258 09-10-2010 19:45:02 13.4 C 6.28 g/m*3 13.4 C 0 km/h
2259 09-10-2010 19:57:02 13.2 C 6.32 g/m*3 13.2 C 0 km/h
2260 09-10-2010 20:09:01 13 C 6.35 g/m*3 13 C 0 km/h
2261 09-10-2010 20:21:02 13.1 C 6.39 g/m*3 13.1 C 0 km/h
2262 09-10-2010 20:33:01 13 C 6.46 g/m*3 13 C 0 km/h
2263 09-10-2010 20:45:02 12.7 C 6.79 g/m*3 12.7 C 0 km/h
2264 09-10-2010 20:57:02 12.4 C 6.88 g/m*3 12.4 C 0 km/h
2265 09-10-2010 21:09:02 12 C 6.82 g/m*3 12 C 0 km/h
2266 09-10-2010 21:21:02 11.7 C 7.01 g/m*3 11.7 C 0 km/h
2267 09-10-2010 21:33:02 11.5 C 7.02 g/m*3 11.5 C 0 km/h
2268 09-10-2010 21:45:01 11.2 C 7.1 g/m*3 11.2 C 0 km/h
2269 09-10-2010 21:57:01 11 C 7.01 g/m*3 11 C 0 km/h
2270 09-10-2010 22:09:01 11 C 7.01 g/m*3 11 C 0 km/h
2271 09-10-2010 22:21:02 10.8 C 7.12 g/m*3 10.8 C 0 km/h
2272 09-10-2010 22:33:01 10.6 C 7.03 g/m*3 10.6 C 0 km/h
2273 09-10-2010 22:46:02 10.4 C 7.04 g/m*3 10.4 C 0 km/h
2274 09-10-2010 22:58:02 10.2 C 6.95 g/m*3 10.2 C 0 km/h
2275 09-10-2010 23:10:02 10 C 6.86 g/m*3 10 C 0 km/h
Sensor: Nr:Datum:Temp:Abs-Feuchte:Windchill:Wind:
Aussen-T/F 2276 09-10-2010 23:22:02 9.8 C 6.96 g/m*3 9.8 C 0 km/h
2277 09-10-2010 23:34:02 9.7 C 6.91 g/m*3 9.7 C 0 km/h
2278 09-10-2010 23:46:02 9.4 C 6.96 g/m*3 9.4 C 0 km/h
2279 09-10-2010 23:58:02 9.2 C 6.88 g/m*3 9.2 C 0 km/h
2280 10-10-2010 00:10:02 9.1 C 6.92 g/m*3 9.1 C 0 km/h
2281 10-10-2010 00:22:02 9.1 C 7.01 g/m*3 9.1 C 0 km/h
2282 10-10-2010 00:34:02 9 C 6.96 g/m*3 9 C 0 km/h
2283 10-10-2010 00:46:02 8.8 C 7.05 g/m*3 8.8 C 0 km/h
2284 10-10-2010 00:58:02 8.7 C 7.01 g/m*3 8.7 C 0 km/h
2285 10-10-2010 01:10:03 8.5 C 6.92 g/m*3 8.5 C 0 km/h
2286 10-10-2010 01:22:03 8.5 C 7 g/m*3 8.5 C 0 km/h
2287 10-10-2010 01:34:03 8.4 C 6.96 g/m*3 8.4 C 0 km/h
2288 10-10-2010 01:46:03 8.3 C 6.91 g/m*3 8.3 C 0 km/h
2289 10-10-2010 01:58:03 8.2 C 6.87 g/m*3 8.2 C 0 km/h
2290 10-10-2010 02:10:03 8 C 6.86 g/m*3 8 C 0 km/h
2291 10-10-2010 02:22:03 7.9 C 6.9 g/m*3 7.9 C 0 km/h
2292 10-10-2010 02:34:03 7.9 C 6.9 g/m*3 7.9 C 0 km/h
2293 10-10-2010 02:46:03 7.6 C 6.77 g/m*3 7.6 C 0 km/h
2294 10-10-2010 02:58:03 7.4 C 6.68 g/m*3 7.4 C 0 km/h
2295 10-10-2010 03:10:03 7.5 C 6.8 g/m*3 7.5 C 0 km/h
2296 10-10-2010 03:22:03 7.2 C 6.67 g/m*3 7.2 C 0 km/h
2297 10-10-2010 03:34:03 7.1 C 6.63 g/m*3 7.1 C 0 km/h
2298 10-10-2010 03:46:03 7 C 6.59 g/m*3 7 C 0 km/h
2299 10-10-2010 03:58:03 6.9 C 6.62 g/m*3 6.9 C 0 km/h
2300 10-10-2010 04:10:03 7 C 6.59 g/m*3 7 C 0 km/h
Sensor: Nr:Datum:Temp:Abs-Feuchte:Windchill:Wind:
Aussen-T/F 2301 10-10-2010 04:22:03 6.8 C 6.65 g/m*3 6.8 C 0 km/h
2302 10-10-2010 04:34:03 6.7 C 6.61 g/m*3 6.7 C 0 km/h
2303 10-10-2010 04:46:03 6.7 C 6.61 g/m*3 6.7 C 0 km/h
2304 10-10-2010 04:58:03 6.6 C 6.57 g/m*3 6.6 C 0 km/h
2305 10-10-2010 05:10:03 6.5 C 6.52 g/m*3 6.5 C 0 km/h
2306 10-10-2010 05:22:03 6.4 C 6.48 g/m*3 6.4 C 0 km/h
2307 10-10-2010 05:34:03 6.2 C 6.4 g/m*3 6.2 C 0 km/h
2308 10-10-2010 05:46:04 6.2 C 6.4 g/m*3 6.2 C 0 km/h
2309 10-10-2010 05:58:04 6.1 C 6.43 g/m*3 6.1 C 0 km/h
2310 10-10-2010 06:10:04 5.9 C 6.35 g/m*3 5.9 C 0 km/h
2311 10-10-2010 06:22:04 6 C 6.39 g/m*3 6 C 0 km/h
2312 10-10-2010 06:34:04 6 C 6.39 g/m*3 6 C 0 km/h
2313 10-10-2010 06:46:04 5.8 C 6.38 g/m*3 5.8 C 0 km/h
2314 10-10-2010 06:58:04 5.6 C 6.29 g/m*3 5.6 C 0 km/h
2315 10-10-2010 07:10:02 5.5 C 6.25 g/m*3 5.5 C 0 km/h
2316 10-10-2010 07:22:03 5.6 C 6.29 g/m*3 5.6 C 0 km/h
2317 10-10-2010 07:34:02 5.4 C 6.28 g/m*3 5.4 C 0 km/h
2318 10-10-2010 07:46:02 5.4 C 6.28 g/m*3 5.4 C 0 km/h
2319 10-10-2010 07:58:02 5.6 C 6.43 g/m*3 5.6 C 0 km/h
2320 10-10-2010 08:10:01 6 C 6.53 g/m*3 6 C 0 km/h
2321 10-10-2010 08:22:01 6.2 C 6.62 g/m*3 6.2 C 0 km/h
2322 10-10-2010 08:34:01 6.4 C 6.71 g/m*3 6.4 C 0 km/h
2323 10-10-2010 08:46:01 6.5 C 6.75 g/m*3 6.5 C 0 km/h
2324 10-10-2010 08:58:01 6.7 C 6.84 g/m*3 6.7 C 0 km/h
2325 10-10-2010 09:10:02 7 C 6.82 g/m*3 7 C 0 km/h
Sensor: Nr:Datum:Temp:Abs-Feuchte:Windchill:Wind:
Aussen-T/F 2326 10-10-2010 09:22:01 6.9 C 6.85 g/m*3 6.9 C 0 km/h
2327 10-10-2010 09:34:01 7.1 C 6.79 g/m*3 7.1 C 0 km/h
2328 10-10-2010 09:46:01 7.5 C 6.8 g/m*3 7.5 C 0 km/h
2329 10-10-2010 09:58:01 7.8 C 6.69 g/m*3 7.8 C 0 km/h
2330 10-10-2010 10:10:01 8.1 C 6.49 g/m*3 8.1 C 0 km/h
2331 10-10-2010 10:22:02 8.4 C 6.45 g/m*3 8.4 C 0 km/h
2332 10-10-2010 10:34:01 8.8 C 6.7 g/m*3 8.8 C 0 km/h
2333 10-10-2010 10:46:03 9.5 C 6.74 g/m*3 9.5 C 0 km/h
2334 10-10-2010 10:58:03 9.8 C 6.59 g/m*3 9.8 C 0 km/h
2335 10-10-2010 11:10:02 10.2 C 6.47 g/m*3 10.2 C 0 km/h
2336 10-10-2010 11:22:02 10.3 C 6.7 g/m*3 10.3 C 0 km/h
2337 10-10-2010 11:34:02 10.8 C 6.72 g/m*3 10.8 C 0 km/h
2338 10-10-2010 11:46:02 11.5 C 6.51 g/m*3 11.5 C 0 km/h
2339 10-10-2010 11:58:03 11.8 C 6.42 g/m*3 11.8 C 0 km/h
2340 10-10-2010 12:10:01 12 C 6.61 g/m*3 12 C 0 km/h
2341 10-10-2010 12:22:02 12.3 C 6.73 g/m*3 12.3 C 0 km/h
2342 10-10-2010 12:34:02 12.7 C 6.68 g/m*3 12.7 C 0 km/h
2343 10-10-2010 12:46:02 13.2 C 6.2 g/m*3 13.2 C 0 km/h
2344 10-10-2010 12:58:02 13.8 C 6.08 g/m*3 13.8 C 0 km/h
2345 10-10-2010 13:10:03 14.4 C 5.69 g/m*3 14.4 C 0 km/h
2346 10-10-2010 13:22:02 15.2 C 5.58 g/m*3 15.2 C 0 km/h
2347 10-10-2010 13:34:02 16 C 5.86 g/m*3 16 C 0 km/h
2348 10-10-2010 13:46:01 16.5 C 5.76 g/m*3 16.5 C 0 km/h
2349 10-10-2010 13:58:01 17.2 C 5.42 g/m*3 17.2 C 0 km/h
2350 10-10-2010 14:10:02 17.8 C 5.01 g/m*3 17.8 C 0 km/h
Sensor: Nr:Datum:Temp:Abs-Feuchte:Windchill:Wind:
Aussen-T/F 2351 10-10-2010 14:22:01 18.3 C 5.16 g/m*3 18.3 C 0 km/h
2352 10-10-2010 14:34:01 18.7 C 5.76 g/m*3 18.7 C 0 km/h
2353 10-10-2010 14:46:01 19 C 5.7 g/m*3 19 C 0 km/h
2354 10-10-2010 14:58:01 19.3 C 5.64 g/m*3 19.3 C 0 km/h
2355 10-10-2010 15:10:01 19.6 C 5.91 g/m*3 19.6 C 0 km/h
2356 10-10-2010 15:22:02 20 C 6.05 g/m*3 20 C 0 km/h
2357 10-10-2010 15:34:01 20.4 C 6.01 g/m*3 20.4 C 0 km/h
2358 10-10-2010 15:46:02 20.9 C 6.37 g/m*3 20.9 C 0 km/h
2359 10-10-2010 15:58:02 21.1 C 5.16 g/m*3 21.1 C 0 km/h
2360 10-10-2010 16:10:01 21.1 C 5.71 g/m*3 21.1 C 0 km/h
2361 10-10-2010 16:22:02 21.4 C 5.81 g/m*3 21.4 C 0 km/h
2362 10-10-2010 16:34:01 21.3 C 5.78 g/m*3 21.3 C 0 km/h
2363 10-10-2010 16:46:02 21.3 C 5.59 g/m*3 21.3 C 0 km/h
2364 10-10-2010 16:58:02 21.3 C 5.59 g/m*3 21.3 C 0 km/h
2365 10-10-2010 17:10:02 21.2 C 5.56 g/m*3 21.2 C 0 km/h
2366 10-10-2010 17:22:02 21 C 5.86 g/m*3 21 C 0 km/h
2367 10-10-2010 17:34:02 20.8 C 5.79 g/m*3 20.8 C 0 km/h
2368 10-10-2010 17:46:01 20.4 C 5.48 g/m*3 20.4 C 0 km/h
2369 10-10-2010 17:58:01 19.8 C 5.3 g/m*3 19.8 C 0 km/h
2370 10-10-2010 18:10:02 19.1 C 5.41 g/m*3 19.1 C 0 km/h
2371 10-10-2010 18:22:01 18.3 C 5.32 g/m*3 18.3 C 0 km/h
2372 10-10-2010 18:34:02 17.1 C 5.24 g/m*3 17.1 C 0 km/h
2373 10-10-2010 18:46:01 16.2 C 5.65 g/m*3 16.2 C 0 km/h
2374 10-10-2010 18:58:01 15.3 C 5.48 g/m*3 15.3 C 0 km/h
2375 10-10-2010 19:10:02 14.8 C 5.57 g/m*3 14.8 C 0 km/h
Sensor: Nr:Datum:Temp:Abs-Feuchte:Windchill:Wind:
Aussen-T/F 2376 10-10-2010 19:22:01 14.5 C 5.35 g/m*3 14.5 C 0 km/h
2377 10-10-2010 19:34:02 14.2 C 5.62 g/m*3 14.2 C 0 km/h
2378 10-10-2010 19:46:01 13.7 C 5.68 g/m*3 13.7 C 0 km/h
2379 10-10-2010 19:58:01 13.7 C 5.21 g/m*3 13.7 C 0 km/h
2380 10-10-2010 20:10:02 13.4 C 5.23 g/m*3 13.4 C 0 km/h
2381 10-10-2010 20:22:02 13 C 5.22 g/m*3 13 C 0 km/h
2382 10-10-2010 20:34:01 13 C 4.99 g/m*3 13 C 0 km/h
2383 10-10-2010 20:46:02 12.8 C 4.7 g/m*3 12.8 C 0 km/h
2384 10-10-2010 20:58:02 12.9 C 4.4 g/m*3 12.9 C 0 km/h
2385 10-10-2010 21:10:01 12.7 C 4.23 g/m*3 12.7 C 0 km/h
2386 10-10-2010 21:22:02 12.6 C 4.09 g/m*3 12.6 C 0 km/h
2387 10-10-2010 21:34:01 12.5 C 3.85 g/m*3 12.5 C 0 km/h
2388 10-10-2010 21:46:02 12.4 C 3.93 g/m*3 12.4 C 0 km/h
2389 10-10-2010 21:58:03 12 C 3.94 g/m*3 12 C 0 km/h
2390 10-10-2010 22:11:02 11.8 C 3.89 g/m*3 11.8 C 0 km/h
2391 10-10-2010 22:23:03 11.6 C 4.16 g/m*3 11.6 C 0 km/h
2392 10-10-2010 22:35:03 11.4 C 4.11 g/m*3 11.4 C 0 km/h
2393 10-10-2010 22:47:03 11.3 C 4.18 g/m*3 11.3 C 0 km/h
2394 10-10-2010 22:59:03 11.2 C 4.26 g/m*3 11.2 C 0 km/h
2395 10-10-2010 23:11:03 11.1 C 4.33 g/m*3 11.1 C 0 km/h
2396 10-10-2010 23:23:03 10.9 C 4.48 g/m*3 10.9 C 0 km/h
2397 10-10-2010 23:35:03 10.7 C 4.52 g/m*3 10.7 C 0 km/h
2398 10-10-2010 23:47:03 10.6 C 4.59 g/m*3 10.6 C 0 km/h
2399 10-10-2010 23:59:03 10.3 C 4.69 g/m*3 10.3 C 0 km/h
2400 11-10-2010 00:11:03 10.2 C 4.85 g/m*3 10.2 C 0 km/h
Sensor: Nr:Datum:Temp:Abs-Feuchte:Windchill:Wind:
Aussen-T/F 2401 11-10-2010 00:23:03 10 C 4.89 g/m*3 10 C 0 km/h
2402 11-10-2010 00:35:03 9.9 C 4.95 g/m*3 9.9 C 0 km/h
2403 11-10-2010 00:47:03 10 C 4.79 g/m*3 10 C 0 km/h
2404 11-10-2010 00:59:03 9.8 C 4.92 g/m*3 9.8 C 0 km/h
2405 11-10-2010 01:11:03 9.6 C 4.95 g/m*3 9.6 C 0 km/h
2406 11-10-2010 01:23:03 9.5 C 4.92 g/m*3 9.5 C 0 km/h
2407 11-10-2010 01:35:03 9.4 C 4.88 g/m*3 9.4 C 0 km/h
2408 11-10-2010 01:47:03 9.3 C 4.94 g/m*3 9.3 C 0 km/h
2409 11-10-2010 01:59:03 9.4 C 4.88 g/m*3 9.4 C 0 km/h
2410 11-10-2010 02:11:03 9.4 C 4.79 g/m*3 9.4 C 0 km/h
2411 11-10-2010 02:23:03 9.4 C 4.88 g/m*3 9.4 C 0 km/h
2412 11-10-2010 02:35:03 9 C 4.85 g/m*3 9 C 0 km/h
2413 11-10-2010 02:47:04 8.9 C 4.91 g/m*3 8.9 C 0 km/h
2414 11-10-2010 02:59:04 8.7 C 4.93 g/m*3 8.7 C 0 km/h
2415 11-10-2010 03:11:04 8.5 C 4.95 g/m*3 8.5 C 0 km/h
2416 11-10-2010 03:23:04 8.3 C 4.97 g/m*3 8.3 C 0 km/h
2417 11-10-2010 03:35:04 8.2 C 5.02 g/m*3 8.2 C 0 km/h
2418 11-10-2010 03:47:04 8.1 C 4.99 g/m*3 8.1 C 0 km/h
2419 11-10-2010 03:59:04 8.1 C 4.99 g/m*3 8.1 C 0 km/h
2420 11-10-2010 04:11:04 7.7 C 5.03 g/m*3 7.7 C 0 km/h
2421 11-10-2010 04:23:04 7.5 C 5.12 g/m*3 7.5 C 0 km/h
2422 11-10-2010 04:35:04 7.5 C 5.12 g/m*3 7.5 C 0 km/h
2423 11-10-2010 04:47:04 7.6 C 5.16 g/m*3 7.6 C 0 km/h
2424 11-10-2010 04:59:04 7.6 C 5.08 g/m*3 7.6 C 0 km/h
2425 11-10-2010 05:11:04 7.1 C 5.07 g/m*3 7.1 C 0 km/h
Sensor: Nr:Datum:Temp:Abs-Feuchte:Windchill:Wind:
Aussen-T/F 2426 11-10-2010 05:23:04 7 C 5.27 g/m*3 7 C 0 km/h
2427 11-10-2010 05:35:04 6.6 C 5.28 g/m*3 6.6 C 0 km/h
2428 11-10-2010 05:47:04 6.3 C 5.26 g/m*3 6.3 C 0 km/h
2429 11-10-2010 05:59:04 6.2 C 5.29 g/m*3 6.2 C 0 km/h
2430 11-10-2010 06:11:04 6 C 5.23 g/m*3 6 C 0 km/h
2431 11-10-2010 06:23:04 5.8 C 5.23 g/m*3 5.8 C 0 km/h
2432 11-10-2010 06:35:04 5.7 C 5.34 g/m*3 5.7 C 0 km/h
2433 11-10-2010 06:47:04 5.6 C 5.37 g/m*3 5.6 C 0 km/h
2434 11-10-2010 06:59:05 5.5 C 5.41 g/m*3 5.5 C 0 km/h
2435 11-10-2010 07:11:02 5.4 C 5.37 g/m*3 5.4 C 0 km/h
2436 11-10-2010 07:23:02 5.3 C 5.41 g/m*3 5.3 C 0 km/h
2437 11-10-2010 07:35:03 5.3 C 5.41 g/m*3 5.3 C 0 km/h
2438 11-10-2010 07:47:02 5.1 C 5.34 g/m*3 5.1 C 0 km/h
2439 11-10-2010 07:59:02 5 C 5.3 g/m*3 5 C 0 km/h
2440 11-10-2010 08:11:02 4.9 C 5.33 g/m*3 4.9 C 0 km/h
2441 11-10-2010 08:23:02 4.9 C 5.4 g/m*3 4.9 C 0 km/h
2442 11-10-2010 08:35:02 5 C 5.37 g/m*3 5 C 0 km/h
2443 11-10-2010 08:47:02 5 C 5.44 g/m*3 5 C 0 km/h
2444 11-10-2010 08:59:02 5 C 5.44 g/m*3 5 C 0 km/h
2445 11-10-2010 09:11:02 5.3 C 5.61 g/m*3 5.3 C 0 km/h
2446 11-10-2010 09:23:02 5.4 C 5.65 g/m*3 5.4 C 0 km/h
2447 11-10-2010 09:35:02 5.6 C 5.73 g/m*3 5.6 C 0 km/h
2448 11-10-2010 09:47:01 5.8 C 5.73 g/m*3 5.8 C 0 km/h
2449 11-10-2010 09:59:01 5.9 C 5.77 g/m*3 5.9 C 0 km/h
2450 11-10-2010 10:11:01 6.1 C 5.77 g/m*3 6.1 C 0 km/h
Sensor: Nr:Datum:Temp:Abs-Feuchte:Windchill:Wind:
Aussen-T/F 2451 11-10-2010 10:23:01 6.5 C 6 g/m*3 6.5 C 0 km/h
2452 11-10-2010 10:35:01 7.1 C 6.16 g/m*3 7.1 C 0 km/h
2453 11-10-2010 10:47:02 7.7 C 6.32 g/m*3 7.7 C 0 km/h
2454 11-10-2010 10:59:02 8.2 C 6.28 g/m*3 8.2 C 0 km/h
2455 11-10-2010 11:11:02 8.7 C 6.31 g/m*3 8.7 C 0 km/h
2456 11-10-2010 11:23:03 9 C 6.26 g/m*3 9 C 0 km/h
2457 11-10-2010 11:35:02 9.4 C 6.33 g/m*3 9.4 C 0 km/h
2458 11-10-2010 11:47:01 9.9 C 6.44 g/m*3 9.9 C 0 km/h
2459 11-10-2010 11:59:01 10.3 C 6.42 g/m*3 10.3 C 0 km/h
2460 11-10-2010 12:11:02 10.7 C 6.38 g/m*3 10.7 C 0 km/h
2461 11-10-2010 12:23:01 11.3 C 6.43 g/m*3 11.3 C 0 km/h
2462 11-10-2010 12:35:01 11.6 C 6.44 g/m*3 11.6 C 0 km/h
2463 11-10-2010 12:47:01 12 C 6.39 g/m*3 12 C 0 km/h
2464 11-10-2010 12:59:01 12.5 C 6.6 g/m*3 12.5 C 0 km/h
2465 11-10-2010 13:11:01 13.8 C 6.2 g/m*3 13.8 C 0 km/h
2466 11-10-2010 13:23:02 14.5 C 6.09 g/m*3 14.5 C 0 km/h
2467 11-10-2010 13:35:01 14.9 C 5.99 g/m*3 14.9 C 0 km/h
2468 11-10-2010 13:47:02 15.4 C 5.65 g/m*3 15.4 C 0 km/h
2469 11-10-2010 13:59:02 16 C 5.45 g/m*3 16 C 0 km/h
2470 11-10-2010 14:11:02 16.7 C 4.97 g/m*3 16.7 C 0 km/h
2471 11-10-2010 14:23:02 17.1 C 5.82 g/m*3 17.1 C 0 km/h
2472 11-10-2010 14:35:01 17.4 C 5.48 g/m*3 17.4 C 0 km/h
2473 11-10-2010 14:47:01 17.9 C 5.5 g/m*3 17.9 C 0 km/h
2474 11-10-2010 14:59:02 18.3 C 5.47 g/m*3 18.3 C 0 km/h
2475 11-10-2010 15:11:01 18.8 C 5.31 g/m*3 18.8 C 0 km/h
Sensor: Nr:Datum:Temp:Abs-Feuchte:Windchill:Wind:
Aussen-T/F 2476 11-10-2010 15:23:01 19.4 C 5.51 g/m*3 19.4 C 0 km/h
2477 11-10-2010 15:35:01 19.8 C 5.12 g/m*3 19.8 C 0 km/h
2478 11-10-2010 15:47:01 20.3 C 4.57 g/m*3 20.3 C 0 km/h
2479 11-10-2010 15:59:01 20.6 C 4.65 g/m*3 20.6 C 0 km/h
2480 11-10-2010 16:11:02 20.8 C 4.71 g/m*3 20.8 C 0 km/h
2481 11-10-2010 16:23:01 21.1 C 4.97 g/m*3 21.1 C 0 km/h
2482 11-10-2010 16:35:01 21.2 C 4.63 g/m*3 21.2 C 0 km/h
2483 11-10-2010 16:47:01 21 C 4.58 g/m*3 21 C 0 km/h
2484 11-10-2010 16:59:01 20.7 C 4.14 g/m*3 20.7 C 0 km/h
2485 11-10-2010 17:11:02 20.5 C 3.74 g/m*3 20.5 C 0 km/h
2486 11-10-2010 17:23:01 20 C 3.63 g/m*3 20 C 0 km/h
2487 11-10-2010 17:35:01 19.5 C 3.36 g/m*3 19.5 C 0 km/h
2488 11-10-2010 17:47:01 19.1 C 3.44 g/m*3 19.1 C 0 km/h
2489 11-10-2010 17:59:01 18.7 C 3.84 g/m*3 18.7 C 0 km/h
2490 11-10-2010 18:11:01 18 C 4.45 g/m*3 18 C 0 km/h
2491 11-10-2010 18:23:02 16.9 C 4.31 g/m*3 16.9 C 0 km/h
2492 11-10-2010 18:35:01 15.7 C 3.88 g/m*3 15.7 C 0 km/h
2493 11-10-2010 18:47:03 15.1 C 3.61 g/m*3 15.1 C 0 km/h
2494 11-10-2010 18:59:03 14.9 C 3.7 g/m*3 14.9 C 0 km/h
2495 11-10-2010 19:11:02 14.4 C 3.71 g/m*3 14.4 C 0 km/h
2496 11-10-2010 19:23:02 13.7 C 4.14 g/m*3 13.7 C 0 km/h
2497 11-10-2010 19:35:02 13.2 C 4.48 g/m*3 13.2 C 0 km/h
2498 11-10-2010 19:47:02 12.5 C 4.51 g/m*3 12.5 C 0 km/h
2499 11-10-2010 19:59:03 12.1 C 4.72 g/m*3 12.1 C 0 km/h
2500 11-10-2010 20:11:02 11.9 C 4.77 g/m*3 11.9 C 0 km/h
Sensor: Nr:Datum:Temp:Abs-Feuchte:Windchill:Wind:
Aussen-T/F 2501 11-10-2010 20:23:02 11.8 C 4.84 g/m*3 11.8 C 0 km/h
2502 11-10-2010 20:35:02 11.3 C 4.79 g/m*3 11.3 C 0 km/h
2503 11-10-2010 20:47:01 11 C 4.7 g/m*3 11 C 0 km/h
2504 11-10-2010 20:59:01 10.6 C 4.98 g/m*3 10.6 C 0 km/h
2505 11-10-2010 21:11:02 10.3 C 5.08 g/m*3 10.3 C 0 km/h
2506 11-10-2010 21:23:01 10.1 C 4.82 g/m*3 10.1 C 0 km/h
2507 11-10-2010 21:35:02 9.9 C 4.95 g/m*3 9.9 C 0 km/h
2508 11-10-2010 21:48:03 9.8 C 5.01 g/m*3 9.8 C 0 km/h
2509 11-10-2010 22:00:03 9.6 C 4.95 g/m*3 9.6 C 0 km/h
2510 11-10-2010 22:12:03 9.4 C 4.88 g/m*3 9.4 C 0 km/h
2511 11-10-2010 22:24:03 9.3 C 4.76 g/m*3 9.3 C 0 km/h
2512 11-10-2010 22:36:03 8.9 C 4.82 g/m*3 8.9 C 0 km/h
2513 11-10-2010 22:48:03 8.8 C 4.79 g/m*3 8.8 C 0 km/h
2514 11-10-2010 23:00:03 8.7 C 5.02 g/m*3 8.7 C 0 km/h
2515 11-10-2010 23:12:04 8.4 C 4.84 g/m*3 8.4 C 0 km/h
2516 11-10-2010 23:24:04 8.2 C 4.86 g/m*3 8.2 C 0 km/h
2517 11-10-2010 23:36:04 8.1 C 4.83 g/m*3 8.1 C 0 km/h
2518 11-10-2010 23:48:04 7.8 C 4.82 g/m*3 7.8 C 0 km/h

Legende:
   Min
   Max


Maximal/Minimal-Werte vom 21.09.2010 - 11.10.2010

Sensor Min Max Avg
Temp
(Aussen-T/F)
4.9 °C
11-10-2010  08:11:02
27.6 °C
22-09-2010  16:42:02
13.91 °C
Abs-Feuchte
(Aussen-T/F)
3.36 g/m*3
11-10-2010  17:35:01
13.7 g/m*3
05-10-2010  11:19:02
8.82 g/m*3
Windchill
(Aussen-T/F)
4.9 C
11-10-2010  08:11:02
27.6 C
22-09-2010  16:42:02
13.9 C

Die Daten stammen von einer Davis Vantage Pro 2 Wetter-Station und werden unter Linux mit der Software wview2wettercgi und aufbereitet. Alle Angaben erfolgen ohne Gewähr für ihre Vollständigkeit oder Richtigkeit.
Kontakt: Rainer Krienke krienke@uni-koblenz.de . Meine Webseiten an der Uni Koblenz oder privat.
Version: $Revision: 0.78 $